     2              OBSERVATION DATA    GPS                 RINEX VERSION / TYPE
srx-v1.5-(11/13/93) SEISMO 01-FEB-1994                      PGM / RUN BY / DATE
                                                            COMMENT
sig: 9 8 7 6 5 4 1 0                                        COMMENT
sig: 9 8 7 6 5 4 1 0                                        COMMENT
sig: 9 8 7 6 5 4 1 0                                        COMMENT
Original Marker Name: CSUN                                  COMMENT
Campaign Name: jpl 1993-1997                                COMMENT
4-Character Station Name: CSUN                              COMMENT
6-Character Antenna Code: DMRCHT                            COMMENT
Vertical Measurement Point: BCR                             COMMENT
Vertical Offset to Rinex Ref. Point: 0.0349                 COMMENT
Radial Measurement Point: ECF                               COMMENT
Radial Offset to Rinex Ref. Point: 0.1896                   COMMENT
Antenna Height from Field Measurement: 1.3230 m             COMMENT
Additional Antenna Identification Info.:                    COMMENT
Turborogue and Ashtech Choke Ring                           COMMENT
Original XYZ: -2521088.2380 -4637429.6078 3569019.5543      COMMENT
New XYZ position is based on association with SCEC monument COMMENT
E1E9I1H9+0011. Position of that monument is believed to be  COMMENT
valid to within 1 m horizontally; vertical accuracy         COMMENT
should be no worse than 3-times this value.                 COMMENT
                                                            COMMENT
Revised Rinex header created by UCSD GPS archive for        COMMENT
GSAC on 17-Apr-1999 (1999:107) 01:26:35 GMT                 COMMENT
For assistance contact dagnew@ucsd.edu or hjohnson@ucsd.edu COMMENT
                                                            COMMENT
CAL STATE UNIV NORTHRIDGE                                   MARKER NAME
CSUN                                                        MARKER NUMBER
GAL JET PROPULSION LABORATORY                               OBSERVER / AGENCY
262 TURBOROGUE SNR-8000 93.07.06                            REC # / TYPE / VERS
329 DORNE-MARGOL. TYPE T                                    ANT # / TYPE
 -2521050.0000 -4637279.0000  3569003.0000                  APPROX POSITION XYZ
        1.2744        0.0000        0.0000                  ANTENNA: DELTA H/E/N
     1     1     0                                          WAVELENGTH FACT L1/2
     4    L1    L2    P1    P2                              # / TYPES OF OBSERV
    30                                                      INTERVAL
  1994     1    30     0     0    0.000000                  TIME OF FIRST OBS
  1994     1    30    23    59   30.000000                  TIME OF LAST OBS
    26                                                      # OF SATELLITES
          01   802   802   802   802                        PRN / # OF OBS
          02   803   803   803   803                        PRN / # OF OBS
          03   697   697   697   697                        PRN / # OF OBS
          04   650   650   650   650                        PRN / # OF OBS
          05   679   679   679   679                        PRN / # OF OBS
          07   738   738   738   738                        PRN / # OF OBS
          09   523   523   523   523                        PRN / # OF OBS
          12   880   880   880   880                        PRN / # OF OBS
          13   717   717   717   717                        PRN / # OF OBS
          14   671   671   671   671                        PRN / # OF OBS
          15   717   717   717   717                        PRN / # OF OBS
          16   674   674   674   674                        PRN / # OF OBS
          17   853   853   853   853                        PRN / # OF OBS
          18   705   705   705   705                        PRN / # OF OBS
          19   859   859   859   859                        PRN / # OF OBS
          20   848   848   848   848                        PRN / # OF OBS
          21   883   883   883   883                        PRN / # OF OBS
          22   852   852   852   852                        PRN / # OF OBS
          23   774   774   774   774                        PRN / # OF OBS
          24   199   199   199   199                        PRN / # OF OBS
          25   682   682   682   682                        PRN / # OF OBS
          26   821   821   821   821                        PRN / # OF OBS
          27   780   780   780   780                        PRN / # OF OBS
          28   827   827   827   827                        PRN / # OF OBS
          29   843   843   843   843                        PRN / # OF OBS
                                                            END OF HEADER
 94 01 30 00 00 00.0000000  0  7 02 07 18 19 27 29 31
 -15054037.57308 -11730406.24308  21860097.82508  21860099.06408
  -4708456.38608  -3668923.20908  24396349.02708  24396352.51708
  -5783056.05708  -4506271.33908  22040394.66208  22040396.04108
 -16843876.34109 -13125081.87308  20781966.37709  20781966.91208
 -17289888.44708 -13472629.25608  20539973.39608  20539973.92608
   4303209.29307   3353146.01808  24847709.38007  24847712.87708
 -15431076.40508 -12024195.59708  22297311.15908  22297311.91808
 94 01 30 00 00 30.0000000  0  7 02 07 18 19 27 29 31
 -15105392.12608 -11770422.74908  21850325.40808  21850326.78608
  -4816035.77108  -3752751.21008  24375877.23008  24375880.75008
  -5691161.87508  -4434665.51608  22057881.35508  22057882.82308
 -16826065.77009 -13111203.50308  20785355.64609  20785356.17808
 -17320627.17708 -13496581.49308  20534124.02208  20534124.56308
   4413422.74807   3439026.56507  24868682.52007  24868686.05507
 -15382502.46208 -11986345.75408  22306554.30108  22306555.15308
 94 01 30 00 01 00.0000000  0  7 02 07 18 19 27 29 31
 -15156477.95608 -11810229.85408  21840604.14108  21840605.54508
  -4923612.01308  -3836576.75807  24355406.00008  24355409.45807
  -5598975.86908  -4362832.30708  22075423.79908  22075425.43308
 -16808011.90309 -13097135.55708  20788791.24209  20788791.61908
 -17351123.71708 -13520345.01408  20528320.59808  20528321.23408
   4523686.30507   3524946.17507  24889664.72807  24889668.23807
 -15333426.07108 -11948104.40808  22315893.00008  22315894.00808
 94 01 30 00 01 30.0000000  0  7 02 07 18 19 27 29 31
 -15207272.47908 -11849809.96608  21830938.20108  21830939.64108
  -5031157.45108  -3920378.28207  24334940.49008  24334943.58907
  -5506476.69908  -4290755.06808  22093025.96808  22093027.58808
 -16789690.56009 -13082859.17908  20792277.69009  20792278.09608
 -17381370.25008 -13543913.71708  20522564.92808  20522565.46808
   4634011.24907   3610913.62507  24910658.64907  24910662.18807
 -15283819.43608 -11909449.87608  22325333.06008  22325333.96708
 94 01 30 00 02 00.0000000  0  7 02 07 18 19 27 29 31
 -15257781.35508 -11889167.49508  21821326.45808  21821328.08908
  -5138658.89508  -4004145.53307  24314483.54908  24314486.70307
  -5413662.47508  -4218432.33608  22110687.99808  22110689.58008
 -16771122.45709 -13068390.52008  20795811.10809  20795811.62508
 -17411362.18309 -13567284.02908  20516857.80809  20516858.13308
   4744397.76907   3696929.06907  24931664.85107  24931668.35907
 -15233676.57008 -11870377.49708  22334874.99008  22334875.67908
 94 01 30 00 02 30.0000000  0  7 02 07 18 19 27 29 31
 -15308020.20508 -11928314.61708  21811766.34408  21811767.83208
  -5246125.54707  -4087885.65007  24294033.08107  24294036.39607
  -5320535.69208  -4145866.04808  22128409.46608  22128411.04108
 -16752324.62709 -13053742.86108  20799388.22709  20799388.71408
 -17441108.14808 -13590462.68308  20511197.28908  20511197.71708
   4854849.20807   3782995.11207  24952682.84607  24952686.75807
 -15182996.96008 -11830886.87208  22344519.08508  22344519.50308
 94 01 30 00 03 00.0000000  0  7 02 07 18 19 27 29 31
 -15357997.98208 -11967258.29608  21802255.90308  21802257.31908
  -5353577.50707  -4171614.30307  24273585.38007  24273589.22507
  -5227104.92408  -4073062.89508  22146188.66608  22146190.57008
 -16733300.98509 -13038919.23808  20803008.30409  20803008.70408
 -17470626.08009 -13613463.64808  20505580.25109  20505580.59408
   4965368.26707   3869113.85507  24973713.90407  24973717.99507
 -15131768.85808 -11790968.83408  22354267.50308  22354267.68408
 94 01 30 00 03 30.0000000  0  7 02 07 18 19 27 29 31
 -15407707.79408 -12005993.17008  21792796.23208  21792797.87308
  -5461019.63507  -4255335.27408  24253139.50507  24253143.60408
  -5133375.44408  -4000026.98408  22164024.77308  22164026.54308
 -16714060.84308 -13023926.91308  20806669.42608  20806669.86908
 -17499911.90209 -13636283.76108  20500007.41209  20500007.68408
   5075958.73607   3955288.24007  24994758.67807  24994762.54307
 -15079995.80508 -11750626.16108  22364119.46108  22364119.50308
 94 01 30 00 04 00.0000000  0  7 02 07 18 19 27 29 31
 -15457148.94908 -12044518.70908  21783387.71608  21783389.34808
  -5568445.95207  -4339043.92408  24232696.95807  24232700.72708
  -5039344.99008  -3926756.53408  22181918.15508  22181919.94408
 -16694617.43009 -13008776.19408  20810369.35209  20810369.90308
 -17528938.62509 -13658901.96908  20494483.59209  20494484.11008
   5186628.53407   4041524.44107  25015818.47507  25015822.21607
 -15027676.65608 -11709857.95808  22374075.27408  22374075.77908
 94 01 30 00 04 30.0000000  0  7 02 07 18 19 27 29 31
 -15506343.87508 -12082852.37608  21774026.40708  21774027.88308
  -5675880.64608  -4422759.11608  24212253.09908  24212256.80608
  -4945036.35308  -3853269.32608  22199864.57808  22199866.44908
 -16674984.47408 -12993477.78008  20814105.40108  20814106.04308
 -17557734.92009 -13681340.62408  20489003.94209  20489004.27308
   5297343.17507   4127795.59207  25036886.83907  25036890.47507
 -14974833.76008 -11668681.65208  22384130.81008  22384131.43208
 94 01 30 00 05 00.0000000  0  7 02 07 18 19 27 29 31
 -15555277.87108 -12120982.72308  21764714.70908  21764716.05808
  -5783311.93008  -4506471.66008  24191809.64108  24191813.06108
  -4850446.45308  -3779562.93908  22217864.67408  22217866.29208
 -16655150.07608 -12978022.39208  20817879.66308  20817880.27608
 -17586287.41308 -13703589.30108  20483570.45808  20483570.91808
   5408091.17307   4214092.72407  25057961.21707  25057965.14907
 -14921471.53508 -11627100.67408  22394284.92708  22394286.08608
 94 01 30 00 05 30.0000000  0  7 02 07 18 19 27 29 31
 -15603924.21808 -12158888.92808  21755457.51208  21755458.94108
  -5890720.14908  -4590166.24408  24171370.48208  24171373.88708
  -4755565.45208  -3705629.72608  22235919.93608  22235921.56208
 -16635101.39308 -12962400.03508  20821694.92808  20821695.46808
 -17614579.78809 -13725635.28608  20478186.66809  20478187.06408
   5518883.34307   4300424.27707  25079044.22207  25079048.40907
 -14867583.91608 -11585110.31108  22404539.12208  22404540.62608
 94 01 30 00 06 00.0000000  0  6 02 07 18 19 27 31
 -15652306.42108 -12196589.30808  21746250.65108  21746252.11708
  -5998126.02108  -4673859.00408  24150931.87708  24150935.07308
  -4660432.18908  -3631499.95108  22254023.19108  22254024.64108
 -16614850.36008 -12946619.99708  20825548.51908  20825549.06508
 -17642657.86508 -13747514.27908  20472843.49808  20472844.01408
 -14813202.09008 -11542734.85308  22414887.74708  22414889.21008
 94 01 30 00 06 30.0000000  0  6 02 07 18 19 27 31
 -15700440.63008 -12234096.45008  21737090.99408  21737092.50508
  -6105557.41308  -4757571.66508  24130488.08308  24130491.45308
  -4565067.92008  -3557190.15608  22272170.57908  22272171.89708
 -16594403.98309 -12930687.74208  20829439.39109  20829439.84008
 -17670567.92808 -13769262.35908  20467532.37208  20467532.76508
 -14758362.37708 -11500002.61108  22425323.59108  22425324.97408
 94 01 30 00 07 00.0000000  0  7 02 07 18 19 27 29 31
 -15748239.93008 -12271342.62108  21727995.06708  21727996.61408
  -6212930.98508  -4841239.26308  24110055.42008  24110058.71608
  -4469389.20808  -3482635.35008  22290377.61708  22290379.00308
 -16573666.48908 -12914528.64808  20833385.53108  20833386.02908
 -17698218.78408 -13790808.45708  20462270.58208  20462271.05508
        -0.66317        -0.13617  25142303.49217  25142307.57817
 -14702982.89808 -11456849.76208  22435862.14008  22435863.23008
 94 01 30 00 07 30.0000000  0  7 02 07 18 19 27 29 31
 -15795728.09608 -12308346.35808  21718958.31508  21718959.76808
  -6320266.05408  -4924876.85608  24089630.16508  24089633.41308
  -4373427.02408  -3407859.65608  22308638.64308  22308639.93808
 -16552645.07409 -12898148.30908  20837385.78909  20837386.26508
 -17725626.83809 -13812165.35908  20457054.97109  20457055.40008
    110908.91107     86422.90207  25163409.09107  25163412.93807
 -14647078.64308 -11413288.01408  22446500.19508  22446501.32808
 94 01 30 00 08 00.0000000  0  6 02 07 18 19 27 31
 -15842944.05508 -12345137.98208  21709973.40808  21709974.78808
  -6427571.86108  -5008491.64908  24069210.53408  24069213.75008
  -4277197.57508  -3332875.70308  22326950.37508  22326951.64208
 -16531345.60109 -12881551.30508  20841438.97809  20841439.49508
 -17752809.50809 -13833346.63908  20451882.30509  20451882.70908
 -14590683.45308 -11369343.71108  22457231.86608  22457232.89808
 94 01 30 00 08 30.0000000  0  6 02 07 18 19 27 31
 -15889933.10908 -12381752.79608  21701031.62808  21701032.97708
  -6534874.66908  -5092104.10908  24048791.24808  24048794.45108
  -4180726.28808  -3257703.30608  22345308.20108  22345309.59708
 -16509805.56709 -12864766.84608  20845537.81109  20845538.20708
 -17779782.58509 -13854364.59808  20446749.52109  20446749.92008
 -14533831.05108 -11325043.12608  22468050.47708  22468051.35408
 94 01 30 00 09 00.0000000  0  6 02 07 18 19 27 31
 -15936633.48408 -12418142.66408  21692144.82208  21692146.13908
  -6642092.88908  -5175650.65608  24028388.20508  24028391.40508
  -4083958.55508  -3182299.91208  22363722.40508  22363724.02308
 -16487954.70508 -12847740.19108  20849695.88708  20849696.34808
 -17806467.59709 -13875158.09808  20441671.59809  20441671.82008
 -14476448.52708 -11280329.44808  22478970.26208  22478970.84508
 94 01 30 00 09 30.0000000  0  6 02 07 18 19 27 31
 -15983050.16308 -12454311.46708  21683311.97108  21683313.35608
  -6749227.06508  -5259131.72408  24008001.36108  24008004.49508
  -3986916.96108  -3106683.12208  22382188.60908  22382190.48308
 -16465809.10809 -12830483.87408  20853910.07709  20853910.42308
 -17832877.28109 -13895737.06408  20436646.04209  20436646.23508
 -14418556.85208 -11235219.04608  22489986.64208  22489987.17608
 94 01 30 00 10 00.0000000  0  6 02 07 18 19 27 31
 -16029176.08908 -12490253.71308  21674534.37408  21674535.89808
  -6856258.75508  -5342532.93808  23987633.67808  23987636.97908
  -3889587.36108  -3030841.91108  22400709.99908  22400711.73708
 -16443375.44109 -12813003.09208  20858178.99509  20858179.59608
 -17859000.97009 -13916093.16608  20431674.79009  20431675.14708
 -14360143.12608 -11189701.86108  22501102.51808  22501102.69608
 94 01 30 00 10 30.0000000  0  6 02 07 18 19 27 31
 -16074970.10708 -12525937.33208  21665819.96608  21665821.52008
  -6963165.97008  -5425837.16708  23967289.86308  23967293.03008
  -3791947.88908  -2954759.23708  22419290.26808  22419292.01208
 -16420648.49709 -12795293.77708  20862503.88509  20862504.26708
 -17884805.20009 -13936200.34309  20426764.25509  20426764.69609
 -14301165.29008 -11143745.09108  22512325.45008  22512326.11408
 94 01 30 00 11 00.0000000  0  7 02 07 16 18 19 27 31
 -16120449.55008 -12561375.82508  21657165.50508  21657166.93308
  -7069975.02008  -5509064.91108  23946964.77208  23946967.71608
         0.29816         0.09516  23909663.29916  23909667.16616
  -3694024.89908  -2878455.65608  22437924.31708  22437926.27408
 -16397662.96808 -12777382.95708  20866877.76808  20866878.31408
 -17910310.91309 -13956074.90209  20421910.68909  20421911.09909
 -14241629.79708 -11097353.78908  22523654.72508  22523655.38608
 94 01 30 00 11 30.0000000  0  6 02 07 18 19 27 31
 -16165654.04508 -12596600.07208  21648563.51308  21648564.71808
  -7176733.69708  -5592253.42008  23926649.04108  23926651.98808
  -3595842.77008  -2801950.14608  22456607.90408  22456609.83708
 -16374471.78708 -12759311.90008  20871290.89008  20871291.38308
 -17935552.23509 -13975743.44908  20417107.36709  20417107.79408
 -14181570.66908 -11050554.47608  22535083.60108  22535084.43808
 94 01 30 00 12 00.0000000  0  6 02 07 18 19 27 31
 -16210607.04308 -12631628.34008  21640009.25308  21640010.50108
  -7283462.48608  -5675418.63908  23906338.91708  23906342.25808
  -3497390.79408  -2725234.35108  22475342.87108  22475344.64108
 -16351094.34608 -12741095.70708  20875739.44908  20875739.94108
 -17960546.53309 -13995219.50509  20412351.17709  20412351.57409
 -14120991.95208 -11003350.29408  22546611.46308  22546612.30308
 94 01 30 00 12 30.0000000  0  6 02 07 18 19 27 31
 -16255323.90708 -12666472.61208  21631499.91308  21631501.28208
  -7390189.41808  -5758582.40408  23886029.84808  23886032.96408
  -3398691.10408  -2648325.54108  22494124.70508  22494126.55608
 -16327544.89608 -12722745.47908  20880220.74008  20880221.21008
 -17985325.71309 -14014527.94309  20407635.81509  20407636.31009
 -14059931.97308 -10955771.08208  22558230.80108  22558231.58808
 94 01 30 00 13 00.0000000  0  6 02 07 18 19 27 31
 -16299764.90808 -12701101.93108  21623042.99908  21623044.34308
  -7496860.05908  -5841702.31008  23865730.95908  23865734.09508
  -3299701.52708  -2571190.84308  22512961.95008  22512963.63808
 -16303755.47108 -12704208.26308  20884747.66508  20884748.20608
 -18009854.36009 -14033641.15608  20402968.13309  20402968.58308
 -13998362.73408 -10907795.06308  22569947.04408  22569947.75308
 94 01 30 00 13 30.0000000  0  6 02 07 18 19 27 31
 -16343922.76408 -12735510.61708  21614640.04808  21614641.45808
  -7603467.67908  -5924773.12608  23845443.84608  23845447.19208
  -3200425.91408  -2493833.26108  22531853.44308  22531855.46508
 -16279703.10608 -12685466.16208  20889324.66708  20889325.15208
 -18034139.10309 -14052564.31808  20398346.95809  20398347.27108
 -13936305.58108 -10859438.84508  22581756.14408  22581756.69508
 94 01 30 00 14 00.0000000  0  6 02 07 18 19 27 31
 -16387810.99408 -12769709.20208  21606288.29308  21606289.66408
  -7710023.69008  -6007803.71808  23825167.00908  23825170.28608
  -3100909.89708  -2416288.36208  22550790.81908  22550792.65508
 -16255400.97808 -12666529.43008  20893949.32108  20893949.74708
 -18058196.03509 -14071309.97008  20393768.96709  20393769.35008
 -13873794.24108 -10810728.73408  22593651.30108  22593652.23008
 94 01 30 00 14 30.0000000  0  6 02 07 18 19 27 31
 -16431406.06908 -12803679.35108  21597992.38808  21597993.81908
  -7816496.75408  -6090769.68108  23804905.89908  23804909.00208
  -3001154.55108  -2338556.96408  22569773.80708  22569775.44108
 -16230820.19708 -12647375.57108  20898626.92908  20898627.19908
 -18081991.97109 -14089852.23808  20389240.89109  20389241.12208
 -13810810.98708 -10761650.88908  22605636.69808  22605637.48008
 94 01 30 00 15 00.0000000  0  6 02 07 18 19 27 31
 -16474707.93108 -12837421.02408  21589752.29208  21589753.68008
  -7922882.03508  -6173667.24208  23784661.19108  23784664.44908
  -2901172.66308  -2260649.03308  22588799.71208  22588801.32808
 -16205958.11508 -12628002.51508  20903357.96708  20903358.31308
 -18105511.80809 -14108179.37608  20384765.21909  20384765.38608
 -13747343.63008 -10712195.79408  22617714.14908  22617714.65308
 94 01 30 00 15 30.0000000  0  6 02 07 18 19 27 31
 -16517697.31708 -12870919.21408  21581571.70408  21581573.09808
  -8029158.64808  -6256480.11508  23764437.10808  23764440.48408
  -2800948.13408  -2182552.02908  22607871.74608  22607873.51608
 -16180810.87308 -12608407.26108  20908143.30608  20908143.70508
 -18128724.93109 -14126267.50808  20380347.83809  20380348.05008
 -13683362.03508 -10662339.99508  22629889.29008  22629890.05408
 94 01 30 00 16 00.0000000  0  6 02 07 18 19 27 31
 -16560395.43908 -12904190.44608  21573446.52008  21573447.89108
  -8135337.58908  -6339216.87908  23744232.22108  23744235.28808
  -2700491.16908  -2104273.92008  22626988.10808  22626990.09808
 -16155397.02508 -12588604.26208  20912979.57108  20912979.93308
 -18151643.95209 -14144126.47108  20375986.53009  20375986.78408
 -13618880.45008 -10612094.60808  22642159.51908  22642160.63608
 94 01 30 00 16 30.0000000  0  6 02 07 18 19 27 31
 -16602836.68308 -12937261.51508  21565370.18808  21565371.43108
  -8241433.62008  -6421889.04908  23724042.94408  23724045.75808
  -2599813.56608  -2025823.89108  22646146.54208  22646148.53308
 -16129735.03809 -12568607.90808  20917862.94209  20917863.28208
 -18174308.36009 -14161787.03508  20371673.55909  20371673.81608
 -13553930.30908 -10561484.10308  22654519.71208  22654520.48208
 94 01 30 00 17 00.0000000  0  6 02 07 18 19 27 31
 -16645016.06508 -12970128.52808  21557343.65308  21557344.81308
  -8347446.49008  -6504496.40608  23703869.26608  23703872.23308
  -2498915.89808  -1947202.38208  22665346.76208  22665348.50508
 -16103826.05208 -12548419.08308  20922793.14108  20922793.56308
 -18196724.86809 -14179254.44008  20367407.87209  20367408.14808
 -13488515.23708 -10510511.31908  22666968.04708  22666968.65108
 94 01 30 00 17 30.0000000  0  6 02 07 18 19 27 31
 -16686884.70308 -13002753.40108  21549376.30408  21549377.55308
  -8453322.15808  -6586996.84308  23683721.57008  23683724.81808
  -2397737.71308  -1868362.27208  22684600.28308  22684601.90808
 -16077620.06008 -12527998.82308  20927780.03108  20927780.52308
 -18218846.03409 -14196491.69108  20363198.29909  20363198.61008
 -13422598.74708 -10459147.82308  22679511.53608  22679512.32308
 94 01 30 00 18 00.0000000  0  6 02 07 18 19 27 31
 -16728469.06908 -13035156.76308  21541462.99308  21541464.22008
  -8559078.43208  -6669404.24808  23663596.85808  23663599.97608
  -2296305.68908  -1789324.36708  22703902.26908  22703903.91908
 -16051134.77408 -12507360.93708  20932819.95908  20932820.40508
 -18240695.93509 -14213517.57508  20359040.39309  20359040.63208
 -13356221.32308 -10407425.15408  22692142.77208  22692143.41808
 94 01 30 00 18 30.0000000  0  6 02 07 18 19 27 31
 -16769801.82008 -13067364.06408  21533597.67308  21533598.82808
  -8664747.97608  -6751744.06708  23643488.57708  23643491.50508
  -2194654.45208  -1710115.66308  22723246.02908  22723247.82208
 -16024408.87508 -12486535.56208  20937905.73908  20937906.20108
 -18262305.95909 -14230356.53708  20354928.04209  20354928.35908
 -13289405.88708 -10355361.18308  22704857.32008  22704857.97308
 94 01 30 00 19 00.0000000  0  6 02 07 18 19 27 31
 -16810864.80408 -13099361.15808  21525783.53708  21525784.77208
  -8770326.68008  -6834013.11408  23623397.63108  23623400.42708
  -2092774.29608  -1630728.58208  22742633.27708  22742634.94408
 -15997437.66308 -12465519.03108  20943038.29608  20943038.78008
 -18283648.18309 -14246986.82109  20350866.80709  20350867.13009
 -13222126.93408 -10302936.02908  22717660.12008  22717660.73908
 94 01 30 00 19 30.0000000  0  6 02 07 18 19 27 31
 -16851647.08008 -13131139.52308  21518023.00408  21518024.20408
  -8875770.52608  -6916177.08308  23603332.31308  23603335.02208
  -1990637.67108  -1551141.64308  22762069.02808  22762070.88008
 -15970195.26908 -12444291.18708  20948222.39108  20948222.90508
 -18304688.35409 -14263381.74009  20346862.97109  20346863.34009
 -13154357.43008 -10250128.61608  22730556.06408  22730556.80708
 94 01 30 00 20 00.0000000  0  6 02 07 18 19 27 31
 -16892170.32008 -13162716.04108  21510311.55108  21510312.82608
  -8981084.56608  -6998239.89508  23583291.87208  23583294.49008
  -1888246.19608  -1471356.12408  22781553.43508  22781555.09808
 -15942691.67608 -12422859.81608  20953455.97608  20953456.72508
 -18325444.83109 -14279555.59709  20342913.15309  20342913.48009
 -13086090.67608 -10196933.74408  22743547.07608  22743547.67408
 94 01 30 00 20 30.0000000  0  6 02 07 18 19 27 31
 -16932440.97608 -13194095.74008  21502648.22508  21502649.49808
  -9086286.17508  -7080215.09808  23563272.29408  23563275.32608
  -1785612.09108  -1391381.53408  22801084.27308  22801085.72608
 -15914930.83308 -12401227.98708  20958738.63808  20958739.35808
 -18345926.68009 -14295515.46309  20339015.62509  20339015.85509
 -13017322.01908 -10143347.80008  22756632.87108  22756633.98808
 94 01 30 00 21 00.0000000  0  6 02 07 18 19 27 31
 -16972461.26008 -13225280.34008  21495032.74008  21495033.90408
  -9191373.54608  -7162101.28008  23543274.83508  23543277.74508
  -1682754.81808  -1311233.04608  22820657.11608  22820658.94908
 -15886914.69108 -12379397.21808  20964069.74908  20964070.63308
 -18366123.98309 -14311253.59709  20335172.11709  20335172.38409
 -12948064.26408 -10089380.72908  22769811.70708  22769813.03708
 94 01 30 00 21 30.0000000  0  6 02 07 18 19 27 31
 -17012219.09908 -13256260.43708  21487467.02208  21487468.17408
  -9296330.64808  -7243885.95808  23523302.43908  23523304.92708
  -1579669.25108  -1230906.69008  22840273.65908  22840275.66108
 -15858629.13708 -12357356.52108  20969452.33508  20969453.11908
 -18386034.06609 -14326767.93309  20331383.42209  20331383.69209
 -12878320.82208 -10035035.20508  22783083.46508  22783084.66808
 94 01 30 00 22 00.0000000  0  6 02 07 18 19 27 31
 -17051716.00108 -13287037.20408  21479951.00608  21479952.16908
  -9401202.03608  -7325603.84208  23503345.85008  23503348.31608
  -1476384.92108  -1150425.43908  22859928.12708  22859929.83708
 -15830096.23708 -12335123.08308  20974881.98508  20974882.64108
 -18405684.20609 -14342079.70909  20327643.94609  20327644.34609
 -12808126.14008  -9980338.06908  22796441.22008  22796442.24808
 94 01 30 00 22 30.0000000  0  6 02 07 18 19 27 31
 -17090961.14808 -13317617.80008  21472482.87408  21472484.00108
  -9506010.25908  -7407272.51808  23483401.49408  23483404.06208
  -1372946.82808  -1069824.36708  22879611.86008  22879613.69208
 -15801343.29608 -12312718.18908  20980353.58208  20980354.06508
 -18425083.13009 -14357195.73709  20323952.61909  20323952.89209
 -12737530.14908  -9925328.19808  22809874.98408  22809876.10708
 94 01 30 00 23 00.0000000  0  6 02 07 18 19 27 31
 -17129916.78908 -13347972.80808  21465069.91908  21465070.98908
  -9610701.97808  -7488850.40708  23463479.29108  23463481.86708
  -1269315.50508   -989072.73808  22899332.33308  22899334.12008
 -15772340.65808 -12290118.72608  20985872.72708  20985873.04308
 -18444201.44909 -14372093.11309  20320314.42009  20320314.76309
 -12666505.39708  -9869984.22508  22823390.97308  22823391.27908
 94 01 30 00 23 30.0000000  0  6 02 07 18 19 27 31
 -17168592.58208 -13378109.75508  21457710.08908  21457711.15608
  -9715287.35808  -7570345.42708  23443577.12608  23443579.53108
  -1165480.55708   -908162.43408  22919091.37308  22919093.26608
 -15743088.75108 -12267325.02908  20991439.15608  20991439.49308
 -18463051.48209 -14386781.43109  20316727.43109  20316727.60709
 -12595061.59708  -9814313.73808  22836986.45408  22836986.60208
 94 01 30 00 24 00.0000000  0  6 02 07 18 19 27 31
 -17206975.71208 -13408018.65508  21450405.94808  21450406.96408
  -9819754.50808  -7651748.32508  23423697.56508  23423699.87308
  -1061430.65208   -827084.64608  22938891.24808  22938893.32108
 -15713564.88809 -12244319.42408  20997057.56209  20997057.78108
 -18481606.09809 -14401239.55909  20313196.59709  20313196.76009
 -12523185.38808  -9758306.30908  22850664.25408  22850664.20808
 94 01 30 00 24 30.0000000  0  6 02 07 18 19 27 31
 -17245074.75808 -13437706.18908  21443155.92508  21443156.93008
  -9924088.44208  -7733047.41808  23403843.57708  23403846.02908
   -957165.91408   -745839.45608  22958732.31508  22958734.25708
 -15683768.87809 -12221101.75008  21002727.49309  21002727.67208
 -18499861.42209 -14415464.46809  20309722.64709  20309722.87509
 -12450876.88508  -9701962.01308  22864424.12708  22864424.00108
 94 01 30 00 25 00.0000000  0  6 02 07 18 19 27 31
 -17282900.93308 -13467181.09908  21435957.79008  21435958.82108
 -10028298.50808  -7814249.98708  23384013.02408  23384015.58308
   -852699.79308   -664437.32408  22978611.92408  22978613.63508
 -15653699.54509 -12197671.09308  21008449.55909  21008449.79408
 -18517823.87509 -14429461.16509  20306304.46509  20306304.71309
 -12378132.92108  -9645278.42508  22878266.90508  22878267.04408
 94 01 30 00 25 30.0000000  0  6 02 07 18 19 27 31
 -17320438.98408 -13496431.49508  21428814.47208  21428815.69408
 -10132378.26108  -7895351.00708  23364207.29108  23364209.53508
   -748030.23008   -582876.66308  22998529.89208  22998531.63408
 -15623342.47508 -12174016.24308  21014226.22808  21014226.55008
 -18535462.34809 -14443205.41309  20302947.99709  20302948.35109
 -12304941.02208  -9588245.78908  22892194.62508  22892195.05008
 94 01 30 00 26 00.0000000  0  6 02 07 18 19 27 31
 -17357674.30008 -13525445.99308  21421728.74308  21421730.00208
 -10236299.32608  -7976328.37108  23344431.71308  23344434.01708
   -643153.87808   -501154.88208  23018486.86108  23018488.99808
 -15592693.56808 -12150133.97108  21020058.46508  21020058.85208
 -18552764.71209 -14456687.75909  20299655.46909  20299655.77009
 -12231290.63108  -9530855.86008  22906209.93308  22906210.43208
 94 01 30 00 26 30.0000000  0  6 02 07 18 19 27 31
 -17394606.18808 -13554224.05108  21414700.96508  21414702.05308
 -10340033.80608  -8057160.34708  23324691.38708  23324693.90208
   -538065.36808   -419267.79408  23038484.53608  23038486.69608
 -15561754.55208 -12126025.64108  21025945.80108  21025946.35808
 -18569727.71509 -14469905.66609  20296427.35509  20296427.80809
 -12157169.26608  -9473098.97608  22920314.65608  22920315.26908
 94 01 30 00 27 00.0000000  0  6 02 07 18 19 27 31
 -17431265.72708 -13582789.89208  21407724.95608  21407725.96108
 -10443595.50108  -8137857.68008  23304984.13008  23304986.99108
   -432783.49508   -337230.02408  23058519.20208  23058521.17208
 -15530546.40908 -12101707.60708  21031884.68608  21031884.96908
 -18586375.91609 -14482878.27009  20293259.41309  20293259.69009
 -12082581.82408  -9414978.89508  22934507.95208  22934508.47708
 94 01 30 00 27 30.0000000  0  6 02 07 18 19 27 31
 -17467672.99608 -13611159.16408  21400796.85308  21400797.83708
 -10546987.33608  -8218422.65108  23285309.16908  23285311.99608
   -327313.14408   -255045.37608  23078589.47608  23078591.54908
 -15499086.60008 -12077193.46308  21037871.08008  21037871.52808
 -18602727.36709 -14495619.64409  20290147.80909  20290148.08309
 -12007544.58008  -9356508.33808  22948786.86908  22948787.70808
 94 01 30 00 28 00.0000000  0  6 02 07 18 19 27 31
 -17503834.95108 -13639337.27608  21393915.41108  21393916.40708
 -10650201.47508  -8298849.15908  23265668.09408  23265670.66508
   -221654.70408   -172714.17908  23098695.57008  23098697.74208
 -15467364.96208 -12052475.29408  21043907.52308  21043907.95908
 -18618780.06809 -14508128.23109  20287093.12409  20287093.33809
 -11932067.75208  -9297695.25308  22963149.65508  22963150.75408
 94 01 30 00 28 30.0000000  0  6 02 07 18 19 27 31
 -17539753.50208 -13667325.72408  21387080.15608  21387081.19308
 -10753250.94908  -8379147.35808  23246058.47808  23246061.08808
   -115820.69608    -90246.18708  23118835.35308  23118837.57108
 -15435378.73608 -12027550.96308  21049994.18208  21049994.69908
 -18634538.07009 -14520407.18209  20284094.36709  20284094.56309
 -11856153.20408  -9238541.07808  22977595.94708  22977596.76108
 94 01 30 00 29 00.0000000  0  6 02 07 18 19 27 31
 -17575440.54108 -13695133.77108  21380289.08308  21380290.11208
 -10856168.45008  -8459342.72708  23226473.97008  23226476.36308
     -9829.98208     -7656.07208  23139004.91108  23139006.95408
 -15403135.80108 -12002426.59708  21056129.88908  21056130.36108
 -18650011.39509 -14532464.30709  20281149.95209  20281150.14109
 -11779824.99908  -9179064.55008  22992120.90108  22992121.83608
 94 01 30 00 29 30.0000000  0  6 02 07 18 19 27 31
 -17610895.55808 -13722761.01608  21373542.23508  21373543.17708
 -10958978.58208  -8539454.43308  23206909.63208  23206912.06808
     96301.67008     75043.86908  23159200.98708  23159203.19508
 -15370655.29608 -11977117.10808  21062310.84408  21062311.32308
 -18665204.98909 -14544303.46009  20278258.55509  20278258.83509
 -11703120.10208  -9119294.53008  23006717.30208  23006718.12708
 94 01 30 00 30 00.0000000  0  6 02 07 18 19 27 31
 -17646080.07008 -13750177.48408  21366846.87308  21366847.81808
 -11061660.66908  -8619466.36008  23187369.73208  23187372.30908
    202603.21708    157876.19008  23179429.51208  23179431.77508
 -15337904.72608 -11951597.17808  21068542.95408  21068543.42308
 -18680095.40109 -14555906.37209  20275425.02809  20275425.28209
 -11626013.30108  -9059211.31508  23021390.57108  23021390.87808
 94 01 30 00 30 30.0000000  0  6 02 07 18 19 27 31
 -17680969.94008 -13777364.36408  21360207.61508  21360208.41508
 -11164192.78908  -8699361.43808  23167858.45708  23167860.95708
    309101.37908    240861.71208  23199695.53508  23199697.89308
 -15304876.49308 -11925860.89208  21074828.20308  21074828.48008
 -18694684.40009 -14567274.41108  20272648.80809  20272649.06108
 -11548486.65408  -8998800.96408  23036143.50308  23036143.63708
 94 01 30 00 31 00.0000000  0  6 02 07 18 19 27 31
 -17715573.12908 -13804327.85908  21353622.81408  21353623.67008
 -11266584.71908  -8779147.27008  23148373.86208  23148376.34808
    415782.51908    323989.80308  23219996.24408  23219998.57408
 -15271588.96208 -11899922.55808  21081162.75608  21081162.89608
 -18708987.01209 -14578419.29508  20269927.13409  20269927.25708
 -11470561.45408  -8938080.02108  23050971.93508  23050972.18208
 94 01 30 00 31 30.0000000  0  6 02 07 18 19 27 31
 -17749880.21708 -13831060.62808  21347094.25908  21347095.23108
 -11368831.59408  -8858820.07808  23128917.10708  23128919.18708
    522642.62808    407257.37608  23240331.25108  23240333.25508
 -15238042.24208 -11873782.26108  21087546.35208  21087546.45108
 -18723012.35009 -14589348.12808  20267258.24509  20267258.27308
 -11392232.08308  -8877044.17708  23065877.20808  23065877.95708
 94 01 30 00 32 00.0000000  0  6 02 07 18 19 27 31
 -17783890.58008 -13857562.18008  21340622.19008  21340623.32508
 -11470911.30108  -8938362.62808  23109491.78508  23109493.93508
    629678.79408    490662.13608  23260699.78308  23260701.74908
 -15204212.44408 -11847421.38908  21093984.02408  21093983.92008
 -18736753.74109 -14600055.70008  20264643.41309  20264643.49408
 -11313489.12708  -8815686.04708  23080861.54808  23080862.46308
 94 01 30 00 32 30.0000000  0  6 02 07 18 19 27 31
 -17817578.35008 -13883812.36308  21334211.53208  21334212.73908
 -11572781.94208  -9017742.25108  23090106.22608  23090108.68508
    736910.00308    574218.86908  23281105.37108  23281107.24608
 -15170072.61708 -11820818.92308  21100480.72608  21100480.69208
 -18750165.65609 -14610506.53709  20262091.23609  20262091.29309
 -11234300.52608  -8753980.65708  23095930.83108  23095931.64208
 94 01 30 00 33 00.0000000  0  8 02 07 15 18 19 26 27 31
 -17850980.91608 -13909840.31408  21327855.24308  21327856.39808
 -11674477.36008  -9096985.34008  23070754.40908  23070756.78008
        -0.37817        -0.55516  25289941.39517  25289943.94616
    844299.65408    657899.05808  23301540.92908  23301542.84608
 -15135636.23708 -11793985.38708  21107033.73608  21107033.79408
         0.36716         0.11116  24879384.17616  24879385.92016
 -18763253.28309 -14620704.68308  20259600.73509  20259600.85508
 -11154690.89008  -8691947.18808  23111079.92308  23111080.79308
 94 01 30 00 33 30.0000000  0  7 02 07 15 18 19 27 31
 -17884130.12808 -13935670.84708  21321547.28708  21321548.25008
 -11775994.85708  -9176089.79308  23051436.27008  23051438.40608
    -68369.34007    -53274.92106  25276930.79507  25276932.92806
    951843.43008    741699.34908  23322005.79608  23322007.72308
 -15100909.25908 -11766925.41008  21113641.93408  21113642.07108
 -18776019.00809 -14630651.99309  20257171.42509  20257171.56109
 -11074674.98908  -8629597.12808  23126306.85808  23126307.35808
 94 01 30 00 34 00.0000000  0  7 02 07 15 18 19 27 31
 -17917084.42308 -13961349.48908  21315276.21108  21315277.16108
 -11877362.80108  -9255077.71008  23032146.32908  23032148.64408
   -136690.31207   -106511.91907  25263930.10707  25263932.18707
   1059491.70208    825581.06308  23342490.57008  23342492.48208
 -15065944.68508 -11739680.29708  21120295.55408  21120295.80808
 -18788492.83909 -14640371.85209  20254797.71809  20254797.87509
 -10994316.87308  -8566980.43008  23141598.62508  23141598.90908
 94 01 30 00 34 30.0000000  0  7 02 07 15 18 19 27 31
 -17949854.79508 -13986884.81808  21309040.26508  21309041.23508
 -11978582.28308  -9333949.93608  23012884.89608  23012887.22808
   -204967.87407   -159715.10107  25250936.82407  25250939.12607
   1167242.99508    909543.06608  23362994.99908  23362997.12908
 -15030772.07008 -11712273.07508  21126988.54808  21126988.72008
 -18800683.31009 -14649870.91409  20252477.95509  20252478.13309
 -10913618.21208  -8504098.36008  23156954.67608  23156955.49808
 94 01 30 00 35 00.0000000  0  7 02 07 15 18 19 27 31
 -17982373.51108 -14012224.04608  21302852.10108  21302853.09408
 -12079570.76408  -9412642.16508  22993667.37408  22993669.64708
   -273122.51107   -212822.46406  25237966.35407  25237969.45406
   1275169.35108    993641.46708  23383532.75308  23383535.01808
 -14995315.91008 -11684644.90408  21133735.65408  21133735.88608
 -18812525.51709 -14659098.59709  20250224.39309  20250224.68509
 -10832506.10908  -8440894.14308  23172389.75108  23172390.54808
 94 01 30 00 35 30.0000000  0  7 02 07 15 18 19 27 31
 -18014640.69208 -14037367.27308  21296711.74208  21296712.76808
 -12180319.89408  -9491147.88908  22974495.36108  22974497.39008
   -341158.28206   -265837.27307  25225019.77806  25225023.32207
   1383262.39108   1077869.74408  23404102.42608  23404104.34608
 -14959591.18308 -11656807.46508  21140533.83908  21140534.13908
 -18824033.30509 -14668065.69609  20248034.51209  20248034.80809
 -10750995.54708  -8377379.43108  23187900.72608  23187901.63808
 94 01 30 00 36 00.0000000  0  7 02 07 15 18 19 27 31
 -18046632.66208 -14062296.04508  21290623.87608  21290625.00608
 -12280839.57808  -9569474.83708  22955367.06408  22955369.24908
   -409068.13006   -318754.01706  25212096.33806  25212100.01906
   1491518.64508   1162225.21608  23424702.93408  23424704.82308
 -14923589.75208 -11628754.41108  21147384.64508  21147385.00008
 -18835209.25409 -14676774.21509  20245907.77109  20245908.19509
 -10669079.09008  -8313548.44608  23203488.97608  23203489.90408
 94 01 30 00 36 30.0000000  0  7 02 07 15 18 19 27 31
 -18078360.66308 -14087019.13108  21284586.23608  21284587.34908
 -12381156.04608  -9647643.42808  22936277.47808  22936279.64508
   -476866.85906   -371584.14006  25199195.03206  25199198.11406
   1599942.60708   1246711.35908  23445335.08708  23445337.21608
 -14887312.30508 -11600486.27808  21154288.09708  21154288.27908
 -18846074.26109 -14685240.43709  20243840.28709  20243840.59409
 -10586757.26808  -8249401.60308  23219154.35708  23219155.28808
 94 01 30 00 37 00.0000000  0  7 02 07 15 18 19 27 31
 -18109819.07508 -14111532.14708  21278599.77808  21278600.85908
 -12481274.48308  -9725657.71808  22917225.36108  22917227.44808
   -544542.72207   -424318.44407  25186316.79207  25186320.41307
   1708539.10608   1331331.94108  23466000.33708  23466002.56608
 -14850730.59308 -11571981.05508  21161249.40408  21161249.58808
 -18856615.43409 -14693454.32409  20241834.27209  20241834.53609
 -10504038.67408  -8184945.57808  23234895.22608  23234896.01108
 94 01 30 00 37 30.0000000  0  8 02 07 15 18 19 26 27 31
 -18141016.01108 -14135841.41508  21272663.24008  21272664.30408
 -12581225.15308  -9803541.28708  22898205.48008  22898207.35708
   -612110.69307   -476968.78706  25173458.75707  25173462.86006
   1817298.21308   1416079.23408  23486696.65208  23486698.75808
 -14813859.42708 -11543250.28408  21168265.66308  21168265.91608
        -0.46316        -0.10016  24716867.08316  24716869.26816
 -18866844.88809 -14701425.30809  20239887.70809  20239887.88909
 -10420937.88408  -8120191.73208  23250708.58408  23250709.54108
 94 01 30 00 38 00.0000000  0  8 02 07 15 18 19 26 27 31
 -18171927.86408 -14159928.54208  21266780.96808  21266781.94008
 -12680977.63208  -9881270.41508  22879222.98908  22879225.01308
   -679540.55907   -529511.51306  25160627.93407  25160629.65706
   1926239.66008   1500968.62108  23507427.70608  23507429.78708
 -14776671.69208 -11514272.84008  21175342.03608  21175342.38208
    -93916.28506    -73181.09606  24698995.61306  24698996.61206
 -18876732.08009 -14709129.60209  20238006.42409  20238006.47809
 -10337425.98708  -8055117.52908  23266599.92308  23266601.05708
 94 01 30 00 38 30.0000000  0  7 02 07 18 19 26 27 31
 -18202582.95808 -14183815.59708  21260947.41508  21260948.24208
 -12780526.17708  -9958840.63508  22860279.42508  22860281.39408
   2035342.16908   1585983.50608  23528189.17808  23528191.09708
 -14739177.15808 -11485056.31908  21182477.14608  21182477.49708
   -187613.88906   -146192.07406  24681164.85006  24681166.57806
 -18886276.67309 -14716566.94109  20236190.17609  20236190.11509
 -10253513.58608  -7989731.27308  23282567.90508  23282569.15508
 94 01 30 00 39 00.0000000  0  7 02 07 18 19 26 27 31
 -18233040.21808 -14207548.49908  21255151.60608  21255152.45108
 -12879929.18808 -10036297.45508  22841363.65008  22841365.64808
   2144514.49408   1671052.80008  23548963.81208  23548965.78608
 -14701439.84608 -11455650.63008  21189658.27808  21189658.65108
   -281164.69406   -219088.68006  24663362.35806  24663364.42106
 -18895547.48409 -14723790.94209  20234426.05909  20234425.88809
 -10169281.80508  -7924096.10408  23298596.85208  23298597.93108
 94 01 30 00 39 30.0000000  0  8 02 07 15 18 19 26 27 31
 -18263209.84309 -14231057.26808  21249410.50809  21249411.31008
 -12979093.96908 -10113568.65008  22822493.35908  22822495.19108
        -0.11917        -0.42716  25122263.01417  25122266.48216
   2253822.70108   1756227.96208  23569764.48908  23569766.74708
 -14663380.86208 -11425994.27408  21196900.80508  21196901.04608
   -374497.79706   -291815.65806  24645601.81906  24645604.02506
 -18904463.38909 -14730738.38908  20232729.40809  20232729.24308
 -10084652.60208  -7858151.29708  23314701.28408  23314702.47008
 94 01 30 00 40 00.0000000  0  8 02 07 15 18 19 26 27 31
 -18293132.93208 -14254373.93408  21243716.30108  21243717.19408
 -13078049.52108 -10190676.80308  22803662.68408  22803664.57708
    -66967.41407    -52182.70206  25109519.40107  25109522.63006
   2363209.90808   1841464.67308  23590580.35808  23590582.53008
 -14625036.30608 -11396115.40408  21204197.48608  21204197.73108
   -467657.83606   -364407.76607  24627874.00206  24627876.33607
 -18913060.74409 -14737437.61509  20231093.32709  20231093.24609
  -9999682.06008  -7791940.51608  23330871.17608  23330871.61208
 94 01 30 00 40 30.0000000  0  8 02 07 15 18 19 26 27 31
 -18322810.06608 -14277498.94708  21238068.87608  21238069.83008
 -13176820.35008 -10267641.01908  22784867.09308  22784868.95408
   -133832.08007   -104285.00806  25096795.29607  25096800.14706
   2472669.43008   1926757.73908  23611409.92308  23611411.88408
 -14586422.35508 -11366026.60608  21211545.45508  21211545.84308
   -560650.22406   -436869.24606  24610177.30606  24610180.02306
 -18921350.97009 -14743897.51209  20229515.66109  20229515.68209
  -9914384.93208  -7725475.25208  23347102.40308  23347103.27308
 94 01 30 00 41 00.0000000  0  6 02 07 18 19 27 31
 -18352204.40808 -14300403.60008  21232475.35408  21232476.31608
 -13275386.76208 -10344445.96108  22766110.67708  22766112.48908
   2582231.38208   2012130.63808  23632258.90108  23632260.75008
 -14547528.77708 -11335719.92308  21218946.66508  21218946.95308
 -18929318.16009 -14750105.69809  20227999.55609  20227999.55209
  -9828746.39108  -7658743.94708  23363398.55308  23363400.01008
 94 01 30 00 41 30.0000000  0  6 02 07 18 19 27 31
 -18381320.85808 -14323091.71508  21226934.70608  21226935.64608
 -13373728.39708 -10421075.75008  22747396.67908  22747398.75308
   2691909.80808   2097594.29908  23653130.08108  23653131.78408
 -14508368.52208 -11305205.43808  21226398.68208  21226398.85408
 -18936951.35109 -14756053.62409  20226546.98809  20226547.05209
  -9742749.79808  -7591733.67008  23379763.23908  23379764.82008
 94 01 30 00 42 00.0000000  0  6 02 07 18 19 27 31
 -18410060.68108 -14345486.35808  21221465.67208  21221466.56808
 -13471732.85008 -10497442.79208  22728747.04108  22728748.86508
   2801827.64408   2183244.51108  23674046.55708  23674048.40708
 -14468854.83408 -11274415.55408  21233917.92008  21233918.00108
 -18944149.48109 -14761662.54409  20225176.97909  20225177.25709
  -9656286.26308  -7524359.53108  23396216.57508  23396218.25008
 94 01 30 00 42 30.0000000  0  7 02 07 18 19 26 27 31
 -18438503.87009 -14367649.85708  21216052.96209  21216053.86308
 -13569471.04108 -10573602.36508  22710147.96808  22710149.75608
   2911921.04108   2269031.51508  23694996.87508  23694998.74508
 -14429069.35408 -11243413.88808  21241488.81008  21241488.83008
         0.14217        -0.05717  24539816.12317  24539817.33717
 -18950990.99709 -14766993.58309  20223875.06009  20223875.23809
  -9569422.80108  -7456673.73808  23412745.99408  23412747.67108
 94 01 30 00 43 00.0000000  0  8 02 07 15 18 19 26 27 31
 -18466753.47109 -14389662.51208  21210677.18909  21210678.08008
 -13667024.90508 -10649618.29908  22691583.77208  22691585.89208
        -0.02017        -0.12116  25033625.56817  25033628.35816
   3022087.05208   2354875.10208  23715960.84508  23715962.79108
 -14389094.17008 -11212264.39108  21249095.84608  21249095.85208
    -91877.26907    -71592.74707  24522331.97507  24522333.45907
 -18957569.68209 -14772119.81609  20222623.22709  20222623.53509
  -9482260.34408  -7388754.96908  23429332.76308  23429334.19508
 94 01 30 00 43 30.0000000  0  7 02 07 18 19 26 27 31
 -18494842.11609 -14411549.74608  21205332.13509  21205332.88108
 -13764445.17208 -10725530.12908  22673045.47808  22673047.29208
   3132283.27508   2440742.23808  23736930.50708  23736932.56708
 -14348951.79308 -11180984.61708  21256734.67508  21256734.70008
   -183619.43206   -143080.09306  24504873.71206  24504875.50206
 -18963918.79709 -14777067.15909  20221414.99009  20221415.38709
  -9394830.98908  -7320628.21808  23445969.90508  23445971.02308
 94 01 30 00 44 00.0000000  0  7 02 07 18 19 26 27 31
 -18522696.77809 -14433254.65408  21200031.64709  21200032.36508
 -13861696.65208 -10801310.42608  22654538.95508  22654540.95208
   3242561.39608   2526673.18608  23757915.63608  23757917.91408
 -14308568.48708 -11149517.10808  21264419.32608  21264419.53708
   -275168.61607   -214417.02306  24487452.90007  24487453.59406
 -18969971.35909 -14781783.42509  20220263.26409  20220263.52709
  -9307079.52008  -7252250.44908  23462668.67308  23462669.46008
 94 01 30 00 44 30.0000000  0  7 02 07 18 19 26 27 31
 -18550289.33409 -14454755.32308  21194780.87109  21194781.62708
 -13958757.66708 -10876942.30408  22636068.87408  22636070.75908
   3352930.38108   2612674.92908  23778918.24708  23778920.54208
 -14267897.32608 -11117825.30708  21272158.77508  21272159.09008
   -366503.01607   -285586.54007  24470072.67307  24470073.72307
 -18975684.78209 -14786235.43109  20219176.13409  20219176.34309
  -9218977.89508  -7183599.84108  23479434.17308  23479434.65708
 94 01 30 00 45 00.0000000  0  7 02 07 18 19 26 27 31
 -18577603.32409 -14476038.92908  21189583.16209  21189583.89408
 -14055605.02708 -10952407.69608  22617639.31008  22617641.33908
   3463399.23808   2698754.50408  23799939.87008  23799942.06208
 -14226915.72108 -11085891.58108  21279957.30408  21279957.75408
   -457609.06507   -356578.13307  24452735.81907  24452737.23407
 -18981038.26809 -14790406.97109  20218157.51209  20218157.59609
  -9130513.50208  -7114666.57008  23496268.54808  23496268.44408
 94 01 30 00 45 30.0000000  0  7 02 07 18 19 26 27 31
 -18604647.42609 -14497112.23308  21184436.81209  21184437.60408
 -14152211.41108 -11027685.31408  22599255.63308  22599257.55808
   3573978.30308   2784919.96008  23820982.22408  23820984.38108
 -14185622.88908 -11053715.34808  21287815.05808  21287815.56708
   -548494.00407   -427397.44607  24435440.53907  24435442.66107
 -18986025.00109 -14794292.72708  20217208.39309  20217208.48108
  -9041681.43008  -7045446.79208  23513172.83908  23513172.58608
 94 01 30 00 46 00.0000000  0  7 02 07 18 19 26 27 31
 -18631456.80209 -14518002.63308  21179335.13709  21179335.95308
 -14248554.94908 -11102758.11508  22580922.12408  22580924.18108
   3684651.82408   2871159.02808  23842042.96008  23842045.09108
 -14144034.38208 -11021308.71908  21295729.19208  21295729.46008
   -639156.06807   -498043.11407  24418187.67907  24418190.35607
 -18990656.50609 -14797901.68509  20216327.13109  20216327.17709
  -8952512.73208  -6975964.69708  23530140.89508  23530141.51608
 94 01 30 00 46 30.0000000  0  7 02 07 18 19 26 27 31
 -18658039.64009 -14538716.50908  21174276.62409  21174277.40308
 -14344599.50208 -11177597.92408  22562645.37908  22562647.52108
   3795432.79908   2957481.81608  23863123.82408  23863126.19408
 -14102138.85608 -10988662.85508  21303701.69108  21303702.01908
   -729577.56207   -568501.34307  24400980.95107  24400983.74807
 -18994932.82009 -14801233.87309  20215513.35009  20215513.32409
  -8863007.56208  -6906220.42208  23547173.45708  23547174.35008
 94 01 30 00 47 00.0000000  0  7 02 07 18 19 26 27 31
 -18684396.42009 -14559254.23708  21169261.16709  21169261.85008
 -14440340.01808 -11252200.83408  22544426.62708  22544428.49708
   3906328.46608   3043893.96908  23884226.58808  23884229.21908
 -14059942.59308 -10955782.65408  21311731.38808  21311731.63108
   -819762.54507   -638775.28407  24383818.87007  24383821.89007
 -18998865.25209 -14804298.09609  20214764.99609  20214765.03809
  -8773189.06708  -6836231.99808  23564264.85608  23564266.10808
 94 01 30 00 47 30.0000000  0  7 02 07 18 19 26 27 31
 -18710532.61609 -14579620.08208  21164287.63909  21164288.22908
 -14535796.75108 -11326582.61408  22526261.60608  22526263.44408
   4017337.40608   3130394.38708  23905350.86408  23905353.60808
 -14017462.17208 -10922681.01908  21319814.98108  21319815.41908
   -909725.03907   -708875.85807  24366699.55807  24366702.01407
 -19002453.45609 -14807094.09209  20214082.13209  20214082.12509
  -8683074.31608  -6766012.72708  23581413.15708  23581414.37908
 94 01 30 00 48 00.0000000  0  7 02 07 18 19 26 27 31
 -18736437.44309 -14599805.64008  21159358.11709  21159358.64708
 -14631013.20608 -11400777.17508  22508142.57708  22508144.26608
   4128441.30608   3216968.80008  23926493.11708  23926495.98108
 -13974719.63008 -10889375.14608  21327948.82808  21327949.24008
   -999470.97607   -778807.67207  24349621.51807  24349623.30907
 -19005700.58309 -14809624.31309  20213464.27909  20213464.26409
  -8592673.73108  -6695570.78408  23598616.13408  23598616.91308
 94 01 30 00 48 30.0000000  0  7 02 07 18 19 26 27 31
 -18762071.93409 -14619780.54908  21154479.86909  21154480.42508
 -14725992.34508 -11474786.80908  22490068.55108  22490070.32508
   4239653.14108   3303627.32208  23947656.25008  23947658.94008
 -13931705.76408 -10855857.84208  21336134.01208  21336134.33708
  -1088978.89507   -848554.01507  24332588.55407  24332590.84707
 -19008581.56909 -14811869.22709  20212916.04909  20212916.10609
  -8501961.00608  -6624885.57908  23615878.30608  23615879.08508
 94 01 30 00 49 00.0000000  0  7 02 07 18 19 26 27 31
 -18787425.47809 -14639536.53808  21149655.10309  21149655.80708
 -14820742.00308 -11548617.62608  22472038.30308  22472039.95208
   4350964.18408   3390363.15508  23968838.11308  23968840.65908
 -13888419.27208 -10822128.10808  21344371.13508  21344371.51108
  -1178234.15507   -918103.48707  24315603.87107  24315606.25207
 -19011087.08409 -14813821.57209  20212439.22009  20212439.27409
  -8410929.20508  -6553951.71308  23633201.21008  23633202.00308
 94 01 30 00 49 30.0000000  0  7 02 07 18 19 26 27 31
 -18812512.55609 -14659084.88808  21144881.24709  21144882.09808
 -14915269.61408 -11622275.43608  22454050.33708  22454051.85808
   4462343.49408   3477152.19108  23990032.99108  23990035.31708
 -13844863.77108 -10788188.75708  21352659.34608  21352659.83908
  -1267227.03307   -987448.50207  24298668.66707  24298671.23307
 -19013224.12809 -14815486.79309  20212032.52609  20212032.59909
  -8319563.03008  -6482757.31408  23650587.78808  23650588.37508
 94 01 30 00 50 00.0000000  0  7 02 07 18 19 26 27 31
 -18837329.61409 -14678422.83308  21140158.79909  21140159.60208
 -15009549.55908 -11695740.26108  22436109.36008  22436110.88008
   4573770.76508   3563978.59408  24011237.05708  24011239.52708
 -13801020.11108 -10754024.87108  21361002.56208  21361002.89908
  -1355926.72107  -1056565.04107  24281790.04507  24281792.29707
 -19015002.69209 -14816872.68709  20211694.13209  20211694.18409
  -8227847.20008  -6411290.42008  23668040.96108  23668040.62208
 94 01 30 00 50 30.0000000  0  7 02 07 18 19 26 27 31
 -18861883.92909 -14697556.04408  21135486.23209  21135487.05808
 -15103539.49308 -11768979.10908  22418223.43708  22418225.11108
   4685258.45508   3650852.08208  24032452.31808  24032454.87608
 -13756853.31208 -10719609.17508  21369407.25108  21369407.65608
  -1444326.80808  -1125448.12307  24264968.17508  24264970.04407
 -19016429.19309 -14817984.24109  20211422.77109  20211422.79909
  -8135765.01408  -6339538.05608  23685563.31708  23685563.51308
 94 01 30 00 51 00.0000000  0  7 02 07 18 19 26 27 31
 -18886256.10909 -14716547.33008  21130848.45209  21130849.19208
 -15197292.41108 -11842033.26608  22400382.75708  22400384.50308
   4796745.57308   3737725.12708  24053667.77208  24053670.31308
 -13712428.09708 -10684992.13208  21377861.27408  21377861.59208
  -1532508.15508  -1194160.76707  24248187.74708  24248189.40107
 -19017583.19909 -14818883.46509  20211203.11009  20211203.10709
  -8043389.15508  -6267556.87508  23703141.51208  23703142.16608
 94 01 30 00 51 30.0000000  0  7 02 07 18 19 26 27 31
 -18910403.25809 -14735363.26908  21126253.47009  21126254.04908
 -15290753.51908 -11914860.03808  22382597.60208  22382599.45808
   4908285.72308   3824639.49808  24074893.11708  24074895.74508
 -13667711.03108 -10650147.66508  21386370.52808  21386370.84108
  -1620438.25508  -1262677.63708  24231455.36708  24231457.08708
 -19018424.76109 -14819539.22109  20211042.90409  20211042.96109
  -7950678.03408  -6195314.43207  23720784.16508  23720784.14807
 94 01 30 00 52 00.0000000  0  7 02 07 18 19 26 27 31
 -18934292.04209 -14753977.88808  21121707.44509  21121708.02308
 -15383902.31308 -11987443.44908  22364871.90508  22364873.67208
   5019926.73708   3911632.46108  24096137.56308  24096140.34808
 -13622688.63808 -10615065.27808  21394938.07108  21394938.45208
  -1708111.38808  -1330994.27608  24214771.88808  24214773.45208
 -19018926.06309 -14819929.84009  20210947.49409  20210947.57909
  -7857628.71408  -6122808.44908  23738490.90708  23738491.43808
 94 01 30 00 52 30.0000000  0  7 02 07 18 19 26 27 31
 -18957946.99009 -14772410.29608  21117205.95409  21117206.50408
 -15476769.57408 -12059807.48708  22347199.94908  22347201.52408
   5131660.23508   3998697.48308  24117399.77608  24117402.60108
 -13577395.21508 -10579771.70908  21403557.05908  21403557.43708
  -1795576.04808  -1399148.46908  24198127.74008  24198129.31408
 -19019086.95909 -14820055.21008  20210916.79009  20210916.95608
  -7764282.44808  -6050071.13408  23756253.46608  23756255.23608
 94 01 30 00 53 00.0000000  0  7 02 07 18 19 26 27 31
 -18981358.23309 -14790652.79908  21112750.90309  21112751.45908
 -15569373.31808 -12131966.17608  22329577.79108  22329579.52708
   5243469.71008   4085821.70208  24138676.43308  24138679.07208
 -13531846.61008 -10544279.29308  21412224.67308  21412225.02008
  -1882823.63708  -1467133.51408  24181524.80708  24181526.34708
 -19018879.48709 -14819893.53809  20210956.26409  20210956.36809
  -7670661.68908  -5977119.87508  23774068.27108  23774070.60408
 94 01 30 00 53 30.0000000  0  7 02 07 18 19 26 27 31
 -19004529.13009 -14808708.02108  21108341.55809  21108342.19308
 -15661722.90308 -12203926.81708  22312004.22508  22312005.95008
   5355330.24108   4172985.70408  24159962.72308  24159965.45808
 -13486044.60808 -10508589.41708  21420940.53108  21420940.84308
  -1969847.84208  -1534944.49508  24164964.41508  24164965.93808
 -19018290.63709 -14819434.68609  20211068.35509  20211068.43609
  -7576781.20108  -5903966.25108  23791933.80308  23791935.84008
 94 01 30 00 54 00.0000000  0  7 02 07 18 19 26 27 31
 -19027450.83709 -14826569.06808  21103979.61409  21103980.36208
 -15753814.61308 -12275686.51208  22294479.75208  22294481.34508
   5467239.67108   4260187.81208  24181258.27408  24181261.15208
 -13439981.64408 -10472696.19708  21429706.06608  21429706.50708
  -2056635.11307  -1602570.85908  24148449.05907  24148450.72208
 -19017311.77109 -14818671.92709  20211254.62609  20211254.72709
  -7482646.74608  -5830614.75008  23809847.07308  23809848.78908
 94 01 30 00 54 30.0000000  0  7 02 07 18 19 26 27 31
 -19050115.88109 -14844230.11508  21099666.72209  21099667.50108
 -15845623.28108 -12347225.66308  22277009.36608  22277010.69008
   5579192.37908   4347423.65108  24202562.15208  24202565.01208
 -13393637.06908 -10436583.54908  21438525.08208  21438525.44108
  -2143153.44507  -1669987.66808  24131984.89807  24131986.56208
 -19015934.25909 -14817598.53508  20211516.78909  20211516.76708
  -7388243.91708  -5757054.16008  23827811.23508  23827812.70008
 94 01 30 00 55 00.0000000  0  7 02 07 18 19 26 27 31
 -19072509.04009 -14861679.30508  21095405.48309  21095406.18508
 -15937135.27908 -12418533.62708  22259595.08608  22259596.52508
   5691201.83708   4434703.72007  24223876.87108  24223879.52107
 -13346989.54608 -10400234.83608  21447401.97908  21447402.24508
  -2229370.25508  -1737169.51308  24115578.72508  24115580.12808
 -19014168.08309 -14816222.28609  20211852.84409  20211852.88409
  -7293561.27608  -5683275.49908  23845828.99208  23845830.07808
 94 01 30 00 55 30.0000000  0  7 02 07 18 19 26 27 31
 -19094642.20109 -14878925.89808  21091193.65409  21091194.29508
 -16028350.48708 -12489610.33008  22242237.46808  22242238.63108
   5803283.56808   4522040.12307  24245205.36208  24245207.74507
 -13300031.77208 -10363644.36408  21456337.69108  21456338.03108
  -2315284.96008  -1804115.94608  24099229.75108  24099231.27208
 -19012035.37509 -14814560.42508  20212258.74109  20212258.68908
  -7198596.45408  -5609276.92908  23863900.24008  23863901.42108
 94 01 30 00 56 00.0000000  0  7 02 07 18 19 26 27 31
 -19116501.87509 -14895959.38408  21087033.84209  21087034.41008
 -16119258.82808 -12560447.91408  22224938.09908  22224939.23908
   5915464.75408   4609454.02107  24266552.59108  24266555.20107
 -13252731.55908 -10326787.05808  21465338.42008  21465338.60708
  -2400880.77208  -1870813.87808  24082941.19408  24082942.90408
 -19009521.16609 -14812601.29408  20212737.14809  20212737.12508
  -7103326.04308  -5535040.25408  23882029.34108  23882030.52608
 94 01 30 00 56 30.0000000  0  7 02 07 18 19 26 27 31
 -19138119.68409 -14912804.40308  21082920.11509  21082920.75608
 -16209874.75908 -12631057.64508  22207694.38708  22207695.59208
   6027720.75808   4696926.22807  24287914.26908  24287916.95407
 -13205086.35508 -10289660.92808  21474405.21408  21474405.36708
  -2486169.26508  -1937272.33708  24066711.20408  24066713.12508
 -19006638.47509 -14810355.03509  20213285.75509  20213285.68209
  -7007769.60108  -5460580.69508  23900212.98708  23900214.00708
 94 01 30 00 57 00.0000000  0  7 02 07 18 19 26 27 31
 -19159526.16509 -14929484.75308  21078846.55009  21078847.16808
 -16300223.93208 -12701459.51308  22190501.30008  22190502.51908
   6140034.86008   4784443.69307  24309287.14908  24309289.70207
 -13157118.87508 -10252283.68308  21483533.20508  21483533.38108
  -2571168.75108  -2003505.59408  24050536.27908  24050537.83808
 -19003398.68909 -14807830.52109  20213902.24009  20213902.24809
  -6911957.50708  -5385921.93408  23918445.37008  23918446.66308
 94 01 30 00 57 30.0000000  0  7 02 07 18 19 26 27 31
 -19180736.85309 -14946012.53808  21074810.34809  21074810.94508
 -16390317.67708 -12771662.34608  22173357.02308  22173358.21008
   6252383.94208   4871988.42307  24330666.62808  24330669.10807
 -13108852.55408 -10214673.56808  21492717.73108  21492718.06208
  -2655883.28508  -2069516.81808  24034415.72408  24034416.99308
 -18999798.63209 -14805025.27409  20214587.27609  20214587.32909
  -6815898.52008  -5311070.78908  23936724.88508  23936726.48408
 94 01 30 00 58 00.0000000  0  7 02 07 18 19 26 27 31
 -19201737.06209 -14962376.31008  21070814.07809  21070814.63008
 -16480124.07308 -12841641.27908  22156267.53208  22156268.65208
   6364758.05908   4959552.65408  24352050.80508  24352053.30808
 -13060293.53608 -10176835.38008  21501958.22308  21501958.66308
  -2740307.22508  -2135301.61008  24018350.50808  24018351.53308
 -18995835.86809 -14801937.40109  20215341.35809  20215341.33909
  -6719584.54708  -5236020.96608  23955052.86708  23955054.57108
 94 01 30 00 58 30.0000000  0  7 02 07 18 19 26 27 31
 -19222504.58609 -14978558.77008  21066862.16009  21066862.66108
 -16569612.43208 -12911372.39408  22139238.42408  22139239.48908
   6477168.50608   5047145.19508  24373441.74608  24373444.30608
 -13011443.37708 -10138770.32908  21511254.11308  21511254.54208
  -2824416.43508  -2200841.17608  24002344.79308  24002346.16808
 -18991511.36409 -14798567.64808  20216164.28009  20216164.33108
  -6623000.15208  -5160760.39808  23973432.39908  23973433.72508
 94 01 30 00 59 00.0000000  0  7 02 07 18 19 26 27 31
 -19243038.14709 -14994558.92508  21062954.63909  21062955.24608
 -16658788.76908 -12980860.37708  22122268.49108  22122269.69308
   6589601.03708   5134754.95008  24394836.73008  24394839.53608
 -12962334.95708 -10100504.03208  21520599.26008  21520599.57008
  -2908224.21008  -2266145.86008  23986396.33108  23986398.01208
 -18986837.02209 -14794925.29208  20217053.80409  20217053.75408
  -6526150.34708  -5085293.02808  23991862.73608  23991863.65208
 94 01 30 00 59 30.0000000  0  7 02 07 18 19 26 27 31
 -19263319.26809 -15010362.37208  21059095.18509  21059095.90608
 -16747631.94808 -13050088.75108  22105362.06608  22105363.35108
   6702064.30308   5222388.65208  24416237.83108  24416240.67708
 -12912956.22208 -10062027.10008  21529995.50408  21529996.00608
  -2991728.93308  -2331214.39508  23970506.05908  23970507.56508
 -18981812.96809 -14791010.43908  20218009.84209  20218009.74508
  -6429007.86308  -5009597.60708  24010348.50108  24010349.34808
 94 01 30 01 00 00.0000000  0  7 02 07 18 19 26 27 31
 -19283359.49409 -15025978.11008  21055281.68109  21055282.42208
 -16836139.69108 -13119055.75808  22088519.51408  22088520.69808
   6814549.00308   5310039.05708  24437642.99708  24437645.76408
 -12863306.40108 -10023338.93608  21539443.58208  21539444.26608
  -3074951.30708  -2396062.91408  23954669.36308  23954670.51708
 -18976451.95209 -14786833.01709  20219029.97309  20219030.04109
  -6331585.12208  -4933683.78408  24028887.60208  24028888.13608
 94 01 30 01 00 30.0000000  0  7 02 07 18 19 26 27 31
 -19303186.49909 -15041427.70408  21051508.70309  21051509.40308
 -16924355.68708 -13187795.42708  22071732.59908  22071733.88708
   6927036.11108   5397691.34108  24459048.69708  24459051.31208
 -12813399.56108  -9984450.49808  21548940.30608  21548941.13108
  -3157904.74208  -2460701.86008  23938883.90908  23938885.04708
 -18970751.99609 -14782391.48409  20220114.62009  20220114.70409
  -6233910.31308  -4857573.54908  24047474.71508  24047474.86908
 94 01 30 01 01 00.0000000  0  7 02 07 18 19 26 27 31
 -19322803.61209 -15056713.74908  21047775.77509  21047776.38508
 -17012280.97508 -13256308.57208  22055000.85808  22055002.09708
   7039527.22008   5485346.73908  24480454.80008  24480457.73808
 -12763236.31808  -9945362.26508  21558486.13108  21558486.89508
  -3240590.88808  -2525132.52908  23923149.32808  23923150.43108
 -18964700.59809 -14777676.10009  20221266.17709  20221266.22509
  -6135985.72108  -4781268.67208  24066109.00008  24066109.27408
 94 01 30 01 01 30.0000000  0  7 02 07 18 19 26 27 31
 -19342181.77209 -15071813.59608  21044088.19709  21044088.85808
 -17099881.42008 -13324568.60108  22038331.13408  22038332.02808
   7152053.00408   5573029.17808  24501867.77508  24501870.61408
 -12712774.73908  -9906041.57208  21568088.66308  21568089.42908
  -3322978.12608  -2589330.28708  23907471.27308  23907472.51408
 -18958255.41309 -14772653.86709  20222492.65709  20222492.71809
  -6037788.73908  -4704751.53908  24084795.20008  24084795.94108
 94 01 30 01 02 00.0000000  0  7 02 07 18 19 26 27 31
 -19361346.66109 -15086747.25408  21040441.20809  21040441.92708
 -17187186.13808 -13392598.20508  22021717.63108  22021718.50908
   7264572.13708   5660706.44908  24523279.59108  24523282.30508
 -12662037.02408  -9866505.70308  21577743.74908  21577744.48808
  -3405081.79308  -2653307.08908  23891847.33108  23891848.51808
 -18951435.41209 -14767339.56709  20223790.64109  20223790.54909
  -5939368.01808  -4628060.06908  24103523.49508  24103524.73008
 94 01 30 01 02 30.0000000  0  7 02 07 18 19 26 27 31
 -19380280.23709 -15101500.66908  21036838.26309  21036839.03308
 -17274189.39608 -13460392.90108  22005161.46208  22005162.24408
   7377097.75308   5748388.76808  24544692.11108  24544695.03508
 -12611018.22508  -9826750.80708  21587452.36908  21587453.02108
  -3486885.02408  -2717049.79908  23876280.60208  23876281.82908
 -18944225.29009 -14761721.28309  20225162.64909  20225162.60009
  -5840720.85108  -4551192.16008  24122295.11908  24122296.84208
 94 01 30 01 03 00.0000000  0  7 02 07 18 19 26 27 31
 -19398957.43409 -15116054.30808  21033284.08609  21033284.89908
 -17360854.41708 -13527924.03808  21988669.50708  21988670.33808
   7489652.11907   5836093.47708  24566110.47007  24566113.54508
 -12559692.21508  -9786756.51208  21597219.31608  21597219.94608
  -3568377.03508  -2780550.00308  23860773.08008  23860774.48708
 -18936612.77909 -14755789.44309  20226611.24209  20226611.18909
  -5741827.33608  -4474132.32308  24141113.84308  24141115.38508
 94 01 30 01 03 30.0000000  0  7 02 07 18 19 26 27 31
 -19417379.20309 -15130408.91408  21029778.47309  21029779.17808
 -17447177.28108 -13595188.55908  21972242.87708  21972243.79208
   7602226.37307   5923813.67008  24587532.48007  24587535.74408
 -12508056.13008  -9746520.61108  21607045.20408  21607045.77508
  -3649563.03808  -2843811.75908  23845323.91408  23845325.41208
 -18928590.64809 -14749538.42509  20228137.82809  20228137.71509
  -5642694.06007  -4396885.64308  24159977.75907  24159979.75808
 94 01 30 01 04 00.0000000  0  7 02 07 18 19 26 27 31
 -19435570.87709 -15144584.23108  21026316.75009  21026317.40608
 -17533179.16708 -13662202.96908  21955877.14008  21955878.17708
   7714803.44807   6011536.05308  24608955.45207  24608958.59108
 -12456135.09608  -9706062.67408  21616925.58308  21616926.10408
  -3730456.40008  -2906845.47708  23829930.47508  23829931.70808
 -18920195.98609 -14742997.12909  20229735.18809  20229735.10709
  -5543346.54507  -4319472.01808  24178882.68307  24178884.72308
 94 01 30 01 04 30.0000000  0  7 02 07 18 19 26 27 31
 -19453519.76609 -15158570.36608  21022901.15609  21022901.81008
 -17618849.38008 -13728958.92508  21939574.60108  21939575.57508
   7827408.08007   6099279.89008  24630383.63607  24630386.43008
 -12403931.92908  -9665384.89108  21626859.44108  21626860.11008
  -3811053.98108  -2969648.71008  23814592.99808  23814594.39008
 -18911422.64109 -14736160.75509  20231404.77809  20231404.63909
  -5443760.63607  -4241872.61807  24197834.22707  24197834.81607
 94 01 30 01 05 00.0000000  0  7 02 07 18 19 26 27 31
 -19471239.48609 -15172377.92308  21019529.09109  21019529.71408
 -17704185.74308 -13795454.73908  21923335.63408  21923336.68808
   7940037.68607   6187043.19508  24651816.38607  24651819.17208
 -12351450.67708  -9624490.41008  21636846.49008  21636846.98408
  -3891354.45108  -3032220.42608  23799312.45108  23799313.57708
 -18902276.21609 -14729033.66808  20233145.17509  20233145.04608
  -5343929.26208  -4164081.92307  24216832.27808  24216832.47407
 94 01 30 01 05 30.0000000  0  7 02 07 18 19 26 27 31
 -19488734.30709 -15186010.23108  21016200.03509  21016200.68708
 -17789182.58508 -13861685.99308  21907161.04808  21907162.23108
   8052697.01808   6274829.66408  24673254.73008  24673257.53208
 -12298692.98008  -9583380.51908  21646885.98408  21646886.70108
  -3971326.72408  -3094536.40508  23784094.36108  23784095.31208
 -18892751.73209 -14721611.98709  20234957.58709  20234957.64109
  -5243846.73208  -4086095.52607  24235877.40208  24235877.88307
 94 01 30 01 06 00.0000000  0  7 02 07 18 19 26 27 31
 -19506002.59009 -15199466.01308  21012913.89809  21012914.60308
 -17873834.13808 -13927648.19008  21891052.44408  21891053.48008
   8165392.14808   6362644.01708  24694700.01208  24694702.79808
 -12245647.79308  -9542046.61008  21656980.26808  21656980.96808
  -4050951.37808  -3156581.52708  23768942.34208  23768943.12708
 -18882864.81009 -14713907.88509  20236838.85809  20236838.91809
  -5143514.15608  -4007914.24607  24254969.81408  24254970.24907
 94 01 30 01 06 30.0000000  0  7 02 07 18 19 26 27 31
 -19523066.05209 -15212762.19208  21009666.80509  21009667.49908
 -17958158.21708 -13993355.20908  21875006.06008  21875007.14208
   8278095.83208   6450465.03508  24716147.00108  24716149.72208
 -12192326.95208  -9500497.89908  21667126.90708  21667127.55108
  -4130239.57708  -3218364.47708  23753854.16008  23753855.22308
 -18872613.83508 -14705920.10208  20238789.53408  20238789.59608
  -5042956.74308  -3929557.80607  24274105.20508  24274105.39207
 94 01 30 01 07 00.0000000  0  7 02 07 18 19 26 27 31
 -19539942.36109 -15225912.53908  21006455.29409  21006456.06408
 -18042149.24208 -14058802.70308  21859022.95308  21859024.02208
   8390801.28308   6538287.43608  24737594.17908  24737597.07208
 -12138710.27708  -9458718.67608  21677329.92208  21677330.54808
  -4209169.42008  -3279868.18808  23738834.04708  23738835.32108
 -18861981.15608 -14697634.88708  20240812.83408  20240812.97808
  -4942194.65908  -3851041.87707  24293280.12608  24293279.70507
 94 01 30 01 07 30.0000000  0  7 02 07 18 19 26 27 31
 -19556621.15209 -15238908.97308  21003281.33009  21003282.13208
 -18125820.06008 -14124000.68908  21843101.01108  21843101.97508
   8503480.73608   6626089.57608  24759036.45308  24759039.24908
 -12084795.67408  -9416707.29608  21687589.51708  21687589.89108
  -4287742.17208  -3341093.66608  23723882.14208  23723883.42608
 -18850969.58308 -14689054.43908  20242908.32608  20242908.27608
  -4841258.75808  -3772390.53307  24312487.40808  24312487.57207
 94 01 30 01 08 00.0000000  0  7 02 07 18 19 26 27 31
 -19573083.44209 -15251736.70608  21000148.73409  21000149.35608
 -18209166.01208 -14188945.53908  21827240.68808  21827241.74508
   8616129.28608   6713867.65308  24780472.64008  24780475.54108
 -12030574.43508  -9374456.97708  21697907.33608  21697907.73108
  -4365963.41608  -3402045.24808  23708996.96208  23708998.34008
 -18839571.32008 -14680172.66908  20245077.38108  20245077.24908
  -4740143.13508  -3693599.14408  24331728.77308  24331729.71908
 94 01 30 01 08 30.0000000  0  7 02 07 18 19 26 27 31
 -19589334.57209 -15264399.89908  20997056.40809  20997056.80008
 -18292202.64008 -14253649.34708  21811439.24708  21811440.32908
   8728724.12208   6801603.88108  24801898.74908  24801901.55608
 -11976065.89408  -9331982.78308  21708279.97108  21708280.55908
  -4443853.53808  -3462738.80008  23694174.95608  23694176.39308
 -18827776.30308 -14670981.73608  20247321.86808  20247321.76208
  -4638848.29708  -3614668.10108  24351004.36008  24351005.51608
 94 01 30 01 09 00.0000000  0  7 02 07 18 19 26 27 31
 -19605339.88809 -15276871.55908  20994010.70909  20994011.09808
 -18374903.73908 -14318091.70608  21795701.86808  21795702.86408
   8841277.94408   6889308.14008  24823317.14708  24823319.95308
 -11921255.32308  -9289273.24308  21718710.08108  21718710.64908
  -4521399.36208  -3523164.06908  23679418.53108  23679419.92608
 -18815575.36508 -14661474.50808  20249643.70508  20249643.56608
  -4537348.63808  -3535577.45208  24370318.95208  24370320.15308
 94 01 30 01 09 30.0000000  0  7 02 07 18 19 26 27 31
 -19621091.93209 -15289145.86308  20991013.16409  20991013.66108
 -18457271.65508 -14382274.44608  21780027.66808  21780028.73508
   8953774.65008   6976967.87808  24844724.79008  24844727.56408
 -11866161.64908  -9246343.10308  21729193.93808  21729194.57608
  -4598633.79308  -3583346.69608  23664721.29708  23664722.47508
 -18802991.80709 -14651669.13508  20252038.28509  20252038.12208
  -4435647.77408  -3456330.00208  24389671.95008  24389673.22008
 94 01 30 01 10 00.0000000  0  7 02 07 18 19 26 27 31
 -19636597.39409 -15301228.02308  20988062.43209  20988063.00108
 -18539281.20708 -14446177.93808  21764421.59508  21764422.66008
   9066238.72508   7064602.18608  24866126.09508  24866128.93908
 -11810777.76908  -9203186.82408  21739733.23508  21739733.73308
  -4675557.95208  -3643287.54308  23650083.04508  23650084.12208
 -18790006.55609 -14641550.75308  20254509.21509  20254509.11108
  -4333730.39508  -3376913.83908  24409066.07408  24409067.80408
 94 01 30 01 10 30.0000000  0  7 02 07 18 19 26 27 31
 -19651860.47309 -15313121.31408  20985157.93209  20985158.45308
 -18620914.60108 -14509788.31908  21748887.28608  21748888.41408
   9178692.28108   7152228.30608  24887525.14408  24887527.96408
 -11755091.59808  -9159795.00108  21750330.07108  21750330.40708
  -4752159.90908  -3702977.31508  23635506.10508  23635507.07608
 -18776601.86008 -14631105.52708  20257060.07008  20257059.86608
  -4231604.55908  -3297335.27008  24428499.92808  24428501.96908
 94 01 30 01 11 00.0000000  0  7 02 07 18 19 26 27 31
 -19666872.44509 -15324818.94208  20982301.22009  20982301.75908
 -18702142.48508 -14573082.72908  21733430.17508  21733431.25808
   9291162.41208   7239867.32107  24908927.56808  24908930.40607
 -11699088.07508  -9116155.89408  21760986.99408  21760987.42308
  -4828417.43208  -3762398.69808  23620994.66508  23620995.54708
 -18762771.54909 -14620328.65708  20259691.95109  20259691.77708
  -4129278.85308  -3217600.97708  24447971.80508  24447973.73708
 94 01 30 01 11 30.0000000  0  7 02 07 18 19 26 27 31
 -19681660.13309 -15336341.79708  20979487.29609  20979487.86908
 -18782977.95608 -14636071.35708  21718047.57008  21718048.71708
   9403643.95608   7327515.22007  24930332.19208  24930334.99707
 -11642784.13008  -9072282.69508  21771701.43608  21771701.83308
  -4904333.59708  -3821554.08208  23606548.43908  23606549.48208
 -18748532.56709 -14609233.33908  20262401.55209  20262401.32908
  -4026766.24107  -3137721.04708  24467479.39407  24467481.12508
 94 01 30 01 12 00.0000000  0  7 02 07 18 19 26 27 31
 -19696220.42509 -15347687.46208  20976716.56709  20976717.15208
 -18863412.19308 -14698747.34008  21702741.59708  21702742.55308
   9516152.62808   7415184.24907  24951741.79208  24951744.59907
 -11586167.35308  -9028165.72308  21782475.23008  21782475.51908
  -4979873.24508  -3880416.09108  23592173.67608  23592174.82308
 -18733875.72509 -14597812.41808  20265190.70709  20265190.41908
  -3924041.17607  -3057675.56208  24487026.97007  24487028.80808
 94 01 30 01 12 30.0000000  0  7 02 07 18 19 26 27 31
 -19710547.31809 -15358851.26008  20973990.11909  20973990.71108
 -18943438.60608 -14761105.54008  21687512.88608  21687513.85108
   9628679.08008   7502867.12607  24973154.88808  24973157.69507
 -11529240.24908  -8983806.94908  21793307.98308  21793308.26908
  -5055016.33408  -3938969.10308  23577874.36808  23577875.31308
 -18718813.91709 -14586075.93708  20268056.91209  20268056.60908
  -3821096.98007  -2977459.29308  24506616.86707  24506618.38008
 94 01 30 01 13 00.0000000  0  7 02 07 18 19 26 27 31
 -19724685.33009 -15369867.87808  20971299.71709  20971300.35108
 -19023114.03208 -14823190.24508  21672351.08008  21672352.03108
   9741148.12408   7590505.26807  24994557.11008  24994559.93607
 -11472058.62708  -8939249.83408  21804189.45508  21804189.54808
  -5129811.39908  -3997250.92908  23563641.15608  23563642.32408
 -18703406.88709 -14574070.45908  20270988.71709  20270988.45708
  -3717972.93407  -2897102.88908  24526241.23707  24526241.92608
 94 01 30 01 13 30.0000000  0  7 02 07 18 19 26 27 31
 -19738621.33309 -15380727.08908  20968647.79609  20968648.34608
 -19102427.99208 -14884993.28808  21657258.17908  21657258.99608
   9853562.00408   7678100.42507  25015949.03008  25015951.95307
 -11414608.40008  -8894483.42108  21815121.65208  21815122.06208
  -5204246.90408  -4055252.57808  23549476.52408  23549477.63808
 -18687631.96109 -14561778.30108  20273990.55609  20273990.39108
  -3614637.21707  -2816581.57308  24545905.30007  24545906.19908
 94 01 30 01 14 00.0000000  0  7 02 07 18 19 26 27 31
 -19752345.16709 -15391420.97508  20966036.35609  20966036.89008
 -19181361.18508 -14946499.63408  21642237.69808  21642238.52608
   9965921.27007   7765653.00907  25037330.16107  25037333.32007
 -11356877.87508  -8849498.59608  21826107.50408  21826107.68608
  -5278325.39808  -4112976.03908  23535379.75208  23535380.77908
 -18671472.79909 -14549186.73908  20277065.59609  20277065.45008
  -3511094.66807  -2735899.07008  24565608.41907  24565610.07108
 94 01 30 01 14 30.0000000  0  7 02 07 18 19 26 27 31
 -19765864.11309 -15401955.20708  20963463.73509  20963464.35008
 -19259922.82508 -15007716.45208  21627287.67008  21627288.69108
  10078210.48907   7853151.03107  25058698.21307  25058701.21707
 -11298888.15608  -8804311.79008  21837142.62708  21837142.83608
  -5352060.50908  -4170431.93408  23521348.62208  23521349.37808
 -18654921.81209 -14536289.85208  20280215.14109  20280215.09508
  -3407371.93107  -2655076.18508  24585346.32307  24585348.07108
 94 01 30 01 15 00.0000000  0  7 02 07 18 19 26 27 31
 -19779185.51909 -15412335.50708  20960928.66409  20960929.31908
 -19338135.57608 -15068661.40408  21612404.38608  21612405.38108
  10190435.60707   7940599.09707  25080053.81707  25080056.88707
 -11240645.98508  -8758928.27908  21848225.65108  21848226.31008
  -5425457.65208  -4227624.47708  23507381.58008  23507382.32808
 -18637978.13309 -14523086.98708  20283439.29709  20283439.28108
  -3303490.96808  -2574129.96808  24605114.29308  24605116.04508
 94 01 30 01 15 30.0000000  0  7 02 07 18 19 26 27 31
 -19792296.39509 -15422551.75408  20958433.77909  20958434.29308
 -19415979.67308 -15129319.09608  21597590.98208  21597592.00108
  10302633.98707   8028026.32707  25101404.27707  25101407.49407
 -11182127.45508  -8713329.43508  21859361.44908  21859362.12308
  -5498488.43808  -4284531.54908  23493484.27508  23493484.95408
 -18620623.85908 -14509564.17008  20286741.65708  20286741.56308
  -3199438.62608  -2493050.22707  24624914.25608  24624916.60507
 94 01 30 01 16 00.0000000  0  7 02 07 18 19 26 27 31
 -19805189.78609 -15432598.52908  20955980.16609  20955980.67108
 -19493449.28408 -15189684.97308  21582848.96808  21582849.86908
  10414816.78207   8115441.39907  25122751.66907  25122754.91807
 -11123313.28508  -8667500.20608  21870553.26708  21870553.78508
  -5571125.35908  -4341131.71308  23479661.95008  23479662.80608
 -18602850.94609 -14495715.14308  20290123.73209  20290123.58608
  -3095208.39608  -2411831.87807  24644748.42108  24644750.74807
 94 01 30 01 16 30.0000000  0  7 02 07 18 19 26 27 31
 -19817888.74409 -15442493.80408  20953563.69609  20953564.18708
 -19570579.29808 -15249786.24008  21568171.99608  21568172.59808
  10526964.74807   8202829.34607  25144092.99007  25144096.24707
 -11064208.40808  -8621444.45408  21881800.59908  21881801.02708
  -5643362.93508  -4397420.68708  23465915.51308  23465916.42508
 -18584676.61709 -14481553.32208  20293582.37009  20293582.21708
  -2990819.78308  -2330490.11607  24664613.13708  24664615.08407
 94 01 30 01 17 00.0000000  0  6 02 07 19 26 27 31
 -19830392.78009 -15452237.19108  20951184.22509  20951184.72808
 -19647372.33208 -15309624.92408  21553558.47708  21553559.20308
 -11004794.37908  -8575147.79808  21893106.90408  21893107.25308
  -5715209.91808  -4453405.30108  23452243.59108  23452244.17008
 -18566115.62109 -14467090.20008  20297114.41509  20297114.29108
  -2886272.51508  -2249024.67107  24684507.74608  24684509.19807
 94 01 30 01 17 30.0000000  0  6 02 07 19 26 27 31
 -19842702.50009 -15461829.15608  20948841.67509  20948842.30508
 -19723818.93608 -15369193.65608  21539011.19208  21539011.94908
 -10945078.83508  -8528616.20308  21904470.36008  21904470.81108
  -5786683.61208  -4509099.03908  23438642.34008  23438643.10608
 -18547184.10409 -14452338.35808  20300716.88909  20300716.84108
  -2781556.13208  -2167427.45707  24704434.49708  24704435.17307
 94 01 30 01 18 00.0000000  0  6 02 07 19 26 27 31
 -19854798.99109 -15471254.97208  20946539.85809  20946540.51608
 -19799900.48308 -15428477.93408  21524533.31008  21524533.95708
 -10885057.02108  -8481845.95008  21915892.22908  21915892.60408
  -5857791.27508  -4564507.55408  23425110.96608  23425111.67208
 -18527876.52709 -14437293.48308  20304391.02909  20304390.90908
  -2676670.31908  -2085698.19006  24724393.68608  24724393.42306
 94 01 30 01 18 30.0000000  0  6 02 07 19 26 27 31
 -19866685.87309 -15480517.46308  20944277.85709  20944278.41408
 -19875620.40308 -15487480.42208  21510124.02408  21510124.82308
 -10824763.81508  -8434864.23308  21927365.64908  21927366.19808
  -5928560.08208  -4619652.02708  23411644.22908  23411644.92508
 -18508207.27609 -14421966.78608  20308133.98409  20308133.85608
  -2571650.25207  -2003864.32106  24744378.47107  24744377.87306
 94 01 30 01 19 00.0000000  0  6 02 07 19 26 27 31
 -19878310.74309 -15489575.79208  20942065.79609  20942066.18808
 -19950923.98708 -15546158.48808  21495794.44108  21495795.05708
 -10764178.06308  -8387654.55608  21938894.80608  21938895.09708
  -5998964.43908  -4674512.50908  23398246.75708  23398247.49908
 -18488142.70609 -14406332.05308  20311952.14109  20311952.04908
  -2466453.97707  -1921893.15706  24764396.93307  24764395.74706
 94 01 30 01 19 30.0000000  0  6 02 07 19 26 27 31
 -19889713.32409 -15498460.90508  20939895.84609  20939896.33108
 -20025829.32908 -15604526.25008  21481540.54908  21481541.06908
 -10703339.32808  -8340247.74708  21950471.92008  21950472.22908
  -6069011.12408  -4729094.28108  23384917.29608  23384918.05908
 -18467703.56109 -14390405.44008  20315841.51409  20315841.43208
  -2361122.94707  -1839817.00407  24784440.94007  24784440.40707
 94 01 30 01 20 00.0000000  0  6 02 07 19 26 27 31
 -19900905.09009 -15507181.74708  20937766.10409  20937766.64608
 -20100333.46208 -15662581.36808  21467362.79708  21467363.37908
 -10642234.58308  -8292633.65208  21962099.72908  21962100.09008
  -6138676.99708  -4783379.32008  23371660.27108  23371660.93008
 -18446857.28608 -14374161.58308  20319808.34308  20319808.27208
  -2255677.52007  -1757651.72507  24804506.51407  24804506.93507
 94 01 30 01 20 30.0000000  0  7 02 07 15 19 26 27 31
 -19911850.54209 -15515710.66008  20935683.30309  20935683.77708
 -20174397.33908 -15720293.43808  21453269.01508  21453269.40108
        -0.10816        -0.85717  24210135.20316  24210138.45517
 -10580806.81708  -8244767.84808  21973789.25908  21973789.53408
  -6207893.41808  -4837314.14208  23358488.55408  23358489.25008
 -18425536.53008 -14357547.99508  20323865.52708  20323865.52208
  -2150059.06407  -1675351.60808  24824604.98207  24824605.76808
 94 01 30 01 21 00.0000000  0  6 02 07 19 26 27 31
 -19922626.99809 -15524107.88308  20933632.54609  20933633.12208
 -20248086.13808 -15777713.23808  21439246.32308  21439246.85808
 -10519093.38008  -8196679.44708  21985532.88508  21985533.10508
  -6276718.59908  -4890944.11108  23345391.40908  23345392.28708
 -18403814.58408 -14340621.79508  20327999.03908  20327999.01108
  -2044323.70707  -1592960.41808  24844725.39307  24844725.95708
 94 01 30 01 21 30.0000000  0  6 02 07 19 26 27 31
 -19933247.67809 -15532383.72408  20931611.35709  20931612.04808
 -20321396.79008 -15834838.37608  21425295.77508  21425296.30008
 -10457080.85708  -8148357.99208  21997333.37708  21997333.64708
  -6345147.56608  -4944265.35508  23332369.78608  23332370.78908
 -18381672.22008 -14323367.99508  20332212.62808  20332212.63308
  -1938478.95907  -1510483.99608  24864866.93107  24864867.56508
 94 01 30 01 22 00.0000000  0  6 02 07 19 26 27 31
 -19943658.33509 -15540495.91208  20929630.23709  20929630.89008
 -20394287.68808 -15891636.43508  21411424.96808  21411425.52608
 -10394730.30008  -8099773.13308  22009198.14808  22009198.68808
  -6413157.49908  -4997260.07808  23319427.74708  23319428.90908
 -18359067.67008 -14305754.05108  20336514.03308  20336514.08508
  -1832477.75607  -1427885.68108  24885038.39307  24885038.98908
 94 01 30 01 22 30.0000000  0  6 02 07 19 26 27 31
 -19953902.82309 -15548478.60808  20927680.89309  20927681.46108
 -20466808.53108 -15948146.14408  21397624.35108  21397625.11308
 -10332109.26208  -8050977.52208  22021114.27908  22021114.97108
  -6480816.66008  -5049981.47808  23306552.56008  23306553.60608
 -18336082.23908 -14287843.32508  20340888.01108  20340888.08208
  -1726373.29807  -1345206.87208  24905229.68207  24905230.10408
 94 01 30 01 23 00.0000000  0  6 02 07 19 26 27 31
 -19963925.75009 -15556288.66108  20925773.53009  20925774.13708
 -20538895.57308 -16004317.82308  21383906.73108  21383907.37108
 -10269188.48208  -8001948.35308  22033087.91008  22033088.46208
  -6548088.34908  -5102400.94508  23293751.30508  23293752.29108
 -18312682.95208 -14269610.10608  20345340.80608  20345340.70308
  -1620134.70608  -1262423.57107  24925446.63808  24925446.39607
 94 01 30 01 23 30.0000000  0  6 02 07 19 26 27 31
 -19973696.99809 -15563902.59708  20923914.09109  20923914.68708
 -20610540.43008 -16060144.95008  21370273.29508  21370273.86908
 -10205976.43308  -7952692.21508  22045116.72108  22045117.24608
  -6614958.66308  -5154507.64408  23281026.41608  23281027.12608
 -18288838.62409 -14251030.10108  20349878.22209  20349878.18608
  -1513741.88208  -1179520.07207  24945692.37008  24945692.00307
 94 01 30 01 24 00.0000000  0  6 02 07 19 26 27 31
 -19983235.47909 -15571335.15708  20922099.03809  20922099.56208
 -20681764.72608 -16115644.36108  21356719.74908  21356720.39808
 -10142508.21208  -7903236.46108  22057194.44508  22057194.81308
  -6681448.20408  -5206317.62908  23268374.01108  23268374.69008
 -18264590.83508 -14232135.71408  20354492.40008  20354492.37108
  -1407211.86707  -1096509.66607  24965964.35907  24965964.10607
 94 01 30 01 24 30.0000000  0  6 02 07 19 26 27 31
 -19992557.84209 -15578599.31208  20920324.95609  20920325.54508
 -20752577.19808 -16170822.87408  21343244.54408  21343245.13508
 -10078777.29208  -7853575.99408  22069321.98008  22069322.24808
  -6747548.43908  -5257824.25808  23255795.63208  23255796.27508
 -18239951.97008 -14212936.59008  20359181.06708  20359180.91308
  -1300550.66507  -1013397.02607  24986261.16607  24986260.78107
 94 01 30 01 25 00.0000000  0  6 02 07 19 26 27 31
 -20001644.65709 -15585679.92008  20918595.89109  20918596.50508
 -20822968.75308 -16225673.40208  21329849.21208  21329849.92208
 -10014749.58508  -7803684.27508  22081505.59608  22081506.23408
  -6813219.88908  -5308996.76108  23243298.56608  23243299.08408
 -18214877.60808 -14193398.12308  20363952.46608  20363952.38508
  -1193731.05207   -930160.93807  25006587.99707  25006588.04707
 94 01 30 01 25 30.0000000  0  6 02 07 19 26 27 31
 -20010505.90509 -15592584.76708  20916909.59509  20916910.10408
 -20892943.54608 -16280199.17808  21316533.51708  21316534.16708
  -9950418.69108  -7753556.31608  22093747.37408  22093748.02408
  -6878453.94008  -5359828.44308  23230884.81808  23230885.29508
 -18189358.09308 -14173512.78008  20368808.66908  20368808.51608
  -1086748.06007   -846797.52807  25026946.03107  25026946.40307
 94 01 30 01 26 00.0000000  0  6 02 07 19 26 27 31
 -20019194.20209 -15599354.85008  20915256.16109  20915256.73308
 -20962521.72608 -16334415.90508  21303293.33008  21303293.76008
  -9885805.33608  -7703208.24608  22106043.18708  22106043.74008
  -6943274.56808  -5410337.97608  23218549.64408  23218550.43208
 -18163427.86608 -14153307.40808  20373743.07308  20373742.88108
   -979645.80807   -763341.20407  25047326.57907  25047327.66307
 94 01 30 01 26 30.0000000  0  6 02 07 19 26 27 31
 -20027707.85409 -15605988.85308  20913636.12609  20913636.65708
 -21031716.80108 -16388334.11308  21290125.93208  21290126.42008
  -9820907.04008  -7652638.13508  22118392.89808  22118393.46808
  -7007672.79908  -5460518.35708  23206295.15308  23206295.82408
 -18137074.92308 -14132772.63808  20378757.96908  20378757.69308
   -872433.36807   -679799.01507  25067728.52207  25067729.46707
 94 01 30 01 27 00.0000000  0  6 02 07 19 26 27 31
 -20036005.69609 -15612454.69208  20912057.12809  20912057.62408
 -21100482.31208 -16441917.58808  21277040.41008  21277040.94508
  -9755699.22208  -7601826.84508  22130801.49108  22130801.87608
  -7071612.08708  -5510341.12008  23194128.17508  23194128.43308
 -18110260.10008 -14111877.96408  20383860.59408  20383860.49708
   -765075.68707   -596143.69106  25088158.29707  25088158.81506
 94 01 30 01 27 30.0000000  0  6 02 07 19 26 27 31
 -20044099.78509 -15618761.75608  20910516.82509  20910517.37008
 -21168802.57208 -16495154.11808  21264039.38008  21264039.96308
  -9690195.59108  -7550785.05708  22143266.54308  22143266.91808
  -7135106.64108  -5559817.32808  23182045.58208  23182045.94008
 -18083017.57008 -14090650.02008  20389044.65408  20389044.57408
   -657588.08006   -512387.11407  25108612.71206  25108613.35207
 94 01 30 01 28 00.0000000  0  6 02 07 19 26 27 31
 -20052004.50909 -15624921.25908  20909012.63209  20909013.07608
 -21236706.01508 -16548065.85308  21251117.64508  21251118.40808
  -9624418.46308  -7499530.14908  22155783.51108  22155783.89408
  -7198178.64708  -5608964.29708  23170043.27708  23170043.78408
 -18055392.84408 -14069124.25508  20394301.51608  20394301.39108
   -550005.27806   -428556.31806  25129084.57006  25129085.83806
 94 01 30 01 28 30.0000000  0  5 02 07 19 26 27
 -20059700.17109 -15630917.86008  20907548.05609  20907548.57608
 -21304188.09208 -16600649.25108  21238276.22408  21238276.96208
  -9558366.89608  -7448061.39408  22168352.47508  22168353.04208
  -7260819.65408  -5657775.43308  23158123.23808  23158123.74908
 -18027402.40508 -14047313.51408  20399627.90008  20399627.81608
 94 01 30 01 29 00.0000000  0  5 02 07 19 26 27
 -20067167.09309 -15636736.22308  20906127.11909  20906127.65508
 -21371201.33808 -16652867.32308  21225523.93608  21225524.68908
  -9492017.27108  -7396360.38808  22180978.53808  22180979.10808
  -7323012.45108  -5706237.32208  23146287.86708  23146288.72108
 -17999030.81908 -14025205.77908  20405026.84108  20405026.74308
 94 01 30 01 29 30.0000000  0  6 02 07 13 19 26 27
 -20074441.17209 -15642404.32408  20904743.04909  20904743.44608
 -21437796.02608 -16704759.24608  21212851.28708  21212852.00108
        -0.29517        -0.48716  25355455.94717  25355460.03916
  -9425410.68108  -7344459.14208  22193653.59108  22193653.67708
  -7384799.16308  -5754382.78708  23134530.05608  23134531.06308
 -17970302.75608 -14002820.26408  20410493.56308  20410493.34708
 94 01 30 01 30 00.0000000  0  6 02 07 13 19 26 27
 -20081840.57909 -15648170.09308  20903334.93409  20903335.36008
 -21504308.61808 -16756587.20408  21200194.44208  21200195.12808
   -120477.55607    -93878.76606  25332529.67107  25332534.33906
  -9358859.54008  -7292601.09708  22206317.81508  22206317.98408
  -7446499.61708  -5802461.03008  23122788.91308  23122789.66708
 -17941509.40508 -13980383.87608  20415972.74608  20415972.61108
 94 01 30 01 30 30.0000000  0  6 02 07 13 19 26 27
 -20089319.82109 -15653998.05808  20901911.60209  20901912.08508
 -21570674.08908 -16808300.52008  21187565.46008  21187566.06808
   -241283.54007   -188013.13806  25309540.86607  25309545.45706
  -9292300.78208  -7240737.12608  22218983.56508  22218984.05808
  -7508052.38808  -5850424.20008  23111075.97508  23111076.49408
 -17912562.01008 -13957827.45508  20421481.19308  20421481.12708
 94 01 30 01 31 00.0000000  0  6 02 07 13 19 26 27
 -20095983.14409 -15659190.24108  20900643.62009  20900644.03408
 -21635991.85508 -16859197.44408  21175135.94208  21175136.40908
   -361503.93607   -281691.18306  25286663.51507  25286667.89006
  -9224822.27308  -7188156.47208  22231824.37208  22231824.95408
  -7568558.38608  -5897571.69208  23099561.92508  23099562.36108
 -17882524.89508 -13934421.90608  20427197.06508  20427196.93908
 94 01 30 01 31 30.0000000  0  6 02 07 13 19 26 27
 -20102352.82209 -15664153.61608  20899431.66009  20899432.06808
 -21700797.90108 -16909695.63108  21162803.83208  21162804.22608
   -481654.92107   -375315.13406  25263799.62007  25263803.62906
  -9156936.06108  -7135258.13208  22244742.58708  22244742.83808
  -7628524.66708  -5944298.61508  23088150.74208  23088150.93608
 -17851915.59908 -13910570.50308  20433021.92008  20433021.60508
 94 01 30 01 32 00.0000000  0  6 02 07 13 19 26 27
 -20108590.21009 -15669013.90208  20898244.58309  20898245.08908
 -21765231.34508 -16959903.47408  21150542.52508  21150542.90808
   -601884.39007   -469000.25506  25240920.53207  25240924.41106
  -9088790.50308  -7082157.69208  22257710.29908  22257710.40108
  -7688101.47908  -5990722.05508  23076813.85408  23076813.93708
 -17820901.27008 -13886403.49008  20438923.69908  20438923.45508
 94 01 30 01 32 30.0000000  0  6 02 07 13 19 26 27
 -20114723.93809 -15673793.41408  20897077.28209  20897077.89108
 -21829302.12608 -17009828.72308  21138350.22708  21138350.51008
   -722207.29907   -562758.23706  25218023.66107  25218027.58906
  -9020418.46908  -7028880.77108  22270720.92908  22270721.33408
  -7747305.00108  -6036854.61108  23065547.65108  23065547.84708
 -17789521.82908 -13861951.96708  20444895.00508  20444894.71908
 94 01 30 01 33 00.0000000  0  6 02 07 13 19 26 27
 -20120700.44309 -15678450.41708  20895940.12609  20895940.64908
 -21892958.30108 -17059430.90608  21126237.00008  21126237.32608
   -842583.84207   -656558.03206  25195116.79007  25195120.51106
  -8951789.52808  -6975403.67908  22283780.65808  22283781.07408
  -7806102.75108  -6082670.98608  23054358.70308  23054358.98908
 -17757756.76308 -13837199.96008  20450939.67108  20450939.40308
 94 01 30 01 33 30.0000000  0  6 02 07 13 19 26 27
 -20126501.05909 -15682970.36308  20894836.23709  20894836.84208
 -21956174.48508 -17108690.23608  21114207.20708  21114207.58308
   -963004.02907   -750391.84506  25172201.32107  25172205.40006
  -8882902.45908  -6921725.44908  22296889.53308  22296889.82808
  -7864480.02508  -6128159.73108  23043249.81408  23043250.38008
 -17725611.55308 -13812151.73808  20457056.69508  20457056.38508
 94 01 30 01 34 00.0000000  0  6 02 07 13 19 26 27
 -20132136.24809 -15687361.40808  20893763.89409  20893764.41108
 -22018947.48708 -17157604.22608  21102261.79008  21102262.16208
  -1083485.55607   -844273.43107  25149274.29707  25149278.51207
  -8813779.59308  -6867863.47208  22310042.95508  22310043.45508
  -7922455.62808  -6173335.48908  23032217.35008  23032218.02008
 -17693098.47108 -13786816.86908  20463243.75008  20463243.42908
 94 01 30 01 34 30.0000000  0  6 02 07 13 19 26 27
 -20137549.25109 -15691579.32408  20892733.85909  20892734.32908
 -22081238.33308 -17206142.51408  21090408.22408  21090408.62408
  -1203986.31007   -938169.96607  25126343.63907  25126347.65007
  -8744368.07208  -6813776.58008  22323251.56808  22323252.07708
  -7979972.85108  -6218154.07508  23021272.12708  23021272.65008
 -17660165.68508 -13761154.94808  20469510.64208  20469510.39408
 94 01 30 01 35 00.0000000  0  6 02 07 13 19 26 27
 -20142731.21909 -15695617.21408  20891747.67909  20891748.23408
 -22143055.08008 -17254311.37308  21078644.66408  21078645.16208
  -1324504.63407  -1032080.17707  25103409.76407  25103413.85807
  -8674664.32408  -6759461.97808  22336515.52208  22336516.06008
  -8037031.69308  -6262615.47408  23010414.34108  23010414.65008
 -17626805.90908 -13735160.31808  20475858.83508  20475858.58808
 94 01 30 01 35 30.0000000  0  6 02 07 13 19 26 27
 -20147721.64909 -15699505.84708  20890797.95909  20890798.50608
 -22204447.58308 -17302149.65208  21066962.15208  21066962.53608
  -1445063.95608  -1126022.36907  25080468.18108  25080471.79407
  -8604697.18408  -6704942.13308  22349829.81608  22349830.34208
  -8093646.38508  -6306730.78408  22999641.03808  22999641.31008
 -17593043.49408 -13708851.93808  20482283.56908  20482283.35808
 94 01 30 01 36 00.0000000  0  7 02 07 13 15 19 26 27
 -20152522.17909 -15703246.50008  20889884.59709  20889885.06908
 -22265427.12508 -17349666.14808  21055358.06708  21055358.40308
  -1565649.69508  -1219985.15107  25057521.36008  25057525.17407
         0.43817         0.37717  23971341.41617  23971343.10117
  -8534454.58408  -6650207.64708  22363196.50808  22363196.95108
  -8149806.72708  -6350492.04608  22988954.10808  22988954.23008
 -17558862.11508 -13682217.09308  20488788.08308  20488787.84308
 94 01 30 01 36 30.0000000  0  6 02 07 13 19 26 27
 -20157100.06409 -15706813.67108  20889013.44909  20889013.82608
 -22325971.54408 -17396843.58008  21043836.92708  21043837.26708
  -1686218.92008  -1313935.06507  25034577.53108  25034581.43107
  -8463901.49208  -6595231.21408  22376622.31008  22376622.57808
  -8205490.33208  -6393881.82908  22978357.65708  22978357.75508
 -17524232.61508 -13655233.06008  20495377.77408  20495377.62808
 94 01 30 01 37 00.0000000  0  6 02 07 13 19 26 27
 -20161477.39009 -15710224.56408  20888180.36809  20888180.78708
 -22386082.51008 -17443683.26308  21032398.24408  21032398.50808
  -1806782.49608  -1407880.55807  25011634.71008  25011638.92307
  -8393076.28508  -6540042.74108  22390099.92908  22390100.11008
  -8260717.66608  -6436916.08908  22967848.02308  22967848.46008
 -17489166.21908 -13627908.59608  20502050.66908  20502050.48708
 94 01 30 01 37 30.0000000  0  7 02 07 13 15 19 26 27
 -20165691.19809 -15713508.03908  20887378.41609  20887378.92408
 -22445764.57508 -17490188.73808  21021041.13208  21021041.37408
  -1927361.20008  -1501837.83907  24988689.18808  24988693.21807
        -0.44117         0.00917  23952315.34517  23952316.69917
  -8322012.83308  -6484668.62108  22403622.86608  22403622.85308
  -8315515.61808  -6479615.76808  22957420.13508  22957420.80108
 -17453691.97608 -13600266.32908  20508801.17208  20508801.09808
 94 01 30 01 38 00.0000000  0  7 02 07 13 15 19 26 27
 -20169713.84909 -15716642.56008  20886613.13509  20886613.54908
 -22504969.91608 -17536322.73708  21009774.65208  21009775.03008
  -2047923.64408  -1595782.47407  24965746.80708  24965750.74607
    -32416.16307    -25258.97907  23946147.25807  23946148.06207
  -8250677.93908  -6429082.99408  22417197.50908  22417197.68408
  -8369860.07108  -6521962.07708  22947078.72808  22947079.39208
 -17417786.99408 -13572288.42208  20515633.69208  20515633.57608
 94 01 30 01 38 30.0000000  0  7 02 07 13 15 19 26 27
 -20173536.35909 -15719621.13008  20885885.78609  20885886.10608
 -22563668.67508 -17582061.99508  20998604.53608  20998604.97608
  -2168462.94608  -1689709.09407  24942808.89208  24942812.54007
    -64357.51707    -50148.36008  23940068.82307  23940070.07008
  -8179073.27908  -6373287.16508  22430823.46808  22430823.62908
  -8423738.94608  -6563945.58608  22936825.87208  22936826.52208
 -17381449.12208 -13543973.20308  20522548.49008  20522548.44508
 94 01 30 01 39 00.0000000  0  7 02 07 13 15 19 26 27
 -20177181.01709 -15722461.11208  20885192.13909  20885192.41908
 -22621879.10808 -17627420.74408  20987527.35308  20987527.80108
  -2288997.15608  -1783631.75207  24919871.96908  24919875.82907
    -95844.01907    -74683.29707  23934076.82407  23934077.78507
  -8107217.21908  -6317295.43508  22444497.08608  22444497.42208
  -8477154.68108  -6605568.20508  22926661.45608  22926661.73108
 -17344692.33908 -13515331.55608  20529543.12608  20529543.01008
 94 01 30 01 39 30.0000000  0  7 02 07 13 15 19 26 27
 -20180665.37209 -15725176.17808  20884528.94009  20884529.43908
 -22679631.00208 -17672422.19008  20976537.45008  20976537.94408
  -2409537.28908  -1877559.07507  24896934.06508  24896938.13907
   -126887.37807    -98872.87807  23928170.38507  23928169.77107
  -8035098.62908  -6261099.13008  22458220.99508  22458221.10208
  -8530124.06208  -6646843.01208  22916581.94508  22916582.19308
 -17307541.95708 -13486383.20908  20536612.62908  20536612.47108
 94 01 30 01 40 00.0000000  0  7 02 07 13 15 19 26 27
 -20183958.34609 -15727742.10308  20883902.34009  20883902.86408
 -22736923.76608 -17717065.87108  20965634.92608  20965635.35008
  -2530061.90608  -1971474.28307  24873999.07508  24874002.68707
   -157467.11907   -122701.20407  23922350.97007  23922351.12807
  -7962677.68908  -6204667.22708  22472002.03008  22472002.18408
  -8582626.58508  -6687754.03208  22906590.91408  22906591.26908
 -17269972.16008 -13457108.04908  20543761.87608  20543761.81008
 94 01 30 01 40 30.0000000  0  7 02 07 13 15 19 26 27
 -20187045.72509 -15730147.83108  20883314.91809  20883315.26308
 -22793751.75508 -17761347.39308  20954821.02708  20954821.41408
  -2650560.77808  -2065369.43807  24851068.97308  24851072.11107
   -187573.68807   -146160.79807  23916620.90107  23916622.98207
  -7889944.44008  -6147991.97608  22485842.62108  22485842.68008
  -8634659.06208  -6728298.78308  22896689.37708  22896689.62008
 -17231961.81808 -13427489.60808  20550995.06308  20550994.93708
 94 01 30 01 41 00.0000000  0  7 02 07 13 15 19 26 27
 -20189977.02909 -15732431.94908  20882757.01009  20882757.47008
 -22850171.27808 -17805310.62508  20944084.68508  20944085.13208
  -2771079.99108  -2159280.43707  24828134.65908  24828137.76207
   -217254.46207   -169288.61507  23910972.74807  23910974.66107
  -7816940.64108  -6091105.89908  22499734.95308  22499734.98808
  -8686269.54708  -6768514.71508  22886868.10108  22886868.51208
 -17193557.24608 -13397563.97308  20558303.22708  20558303.10108
 94 01 30 01 41 30.0000000  0  7 02 07 13 15 19 26 27
 -20192757.45109 -15734598.49708  20882227.84309  20882228.24708
 -22906170.27508 -17848946.17908  20933428.55508  20933428.94608
  -2891614.49008  -2253203.32107  24805197.57908  24805200.91907
   -246505.24607   -192081.48007  23905406.69907  23905407.98907
  -7743666.79408  -6034009.40108  22513678.79408  22513678.72308
  -8737449.66908  -6808395.30208  22877128.91108  22877129.37208
 -17154753.06108 -13367326.94608  20565687.26408  20565687.28908
 94 01 30 01 42 00.0000000  0  7 02 07 13 15 19 26 27
 -20195322.08509 -15736596.90308  20881739.86409  20881740.27108
 -22961681.36208 -17892201.54108  20922865.14608  20922865.51008
  -3012099.90308  -2347087.91207  24782269.85308  24782273.39507
   -275262.68307   -214489.83907  23899934.53707  23899936.14507
  -7670071.77608  -5976662.63808  22527683.39508  22527683.63208
  -8788121.87808  -6847880.11208  22867486.03508  22867486.67108
 -17115470.25008 -13336716.97108  20573162.39808  20573162.54008
 94 01 30 01 42 30.0000000  0  7 02 07 13 15 19 26 27
 -20197688.34209 -15738440.73408  20881289.64709  20881289.95008
 -23016713.57208 -17935083.75008  20912392.87908  20912393.20308
  -3132550.46408  -2440945.32907  24759348.82408  24759352.40007
   -303541.39808   -236525.19507  23894553.54008  23894554.31507
  -7596195.36008  -5919096.60908  22541741.33508  22541741.84208
  -8838286.20808  -6886969.17308  22857940.18208  22857940.71408
 -17075724.81708 -13305746.50808  20580725.96708  20580725.83808
 94 01 30 01 43 00.0000000  0  7 02 07 13 15 19 26 27
 -20199876.25709 -15740145.59508  20880873.35509  20880873.63808
 -23071285.45808 -17977607.26908  20902008.19408  20902008.45208
  -3252977.43707  -2534784.36707  24736431.93207  24736435.56207
   -331354.00308   -258197.29607  23889260.76708  23889261.33807
  -7522061.47308  -5861329.95508  22555848.48508  22555849.07508
  -8887942.27708  -6925662.18808  22848490.90708  22848491.47808
 -17035540.92408 -13274434.38108  20588372.66108  20588372.56308
 94 01 30 01 43 30.0000000  0  7 02 07 13 15 19 26 27
 -20201893.55909 -15741717.50508  20880489.35209  20880489.73308
 -23125416.41908 -18019787.21008  20891707.29308  20891707.52508
  -3373392.02807  -2628613.72807  24713517.51607  24713521.15207
   -358712.95407   -279515.92707  23884053.82507  23884054.83607
  -7447691.61608  -5803379.41508  22570000.77908  22570001.11908
  -8937106.36808  -6963971.84408  22839135.33008  22839135.82608
 -16994932.64408 -13242791.56008  20596100.23508  20596100.03908
 94 01 30 01 44 00.0000000  0  7 02 07 13 15 19 26 27
 -20203716.38809 -15743137.87608  20880142.52209  20880142.79008
 -23179090.76008 -18061611.34608  20881493.28608  20881493.45508
  -3493778.79207  -2722421.41407  24690608.80107  24690612.05207
   -385603.63607   -300469.68808  23878936.88707  23878938.17508
  -7373083.18208  -5745242.97308  22584198.47608  22584198.61308
  -8985781.22908  -7001900.28808  22829872.73908  22829873.16608
 -16953899.24708 -13210817.48108  20603908.53708  20603908.45508
 94 01 30 01 44 30.0000000  0  7 02 07 13 15 19 26 27
 -20205349.73509 -15744410.59508  20879831.70309  20879832.00808
 -23232295.51908 -18103069.57308  20871368.67208  20871368.94808
  -3614131.85707  -2816202.86007  24667706.31607  24667709.65507
   -412021.22408   -321054.81508  23873910.24508  23873911.34708
  -7298237.83608  -5686921.92608  22598441.21308  22598441.52208
  -9033985.02408  -7039461.66508  22820699.96108  22820700.21708
 -16912458.31108 -13178525.84208  20611794.58208  20611794.44108
 94 01 30 01 45 00.0000000  0  7 02 07 13 15 19 26 27
 -20206802.81709 -15745542.85208  20879555.22509  20879555.54408
 -23285028.90708 -18144160.49708  20861333.86808  20861334.20708
  -3734441.66507  -2909950.57307  24644811.66307  24644815.44807
   -437957.72208   -341265.06808  23868974.50808  23868975.42308
  -7223141.78108  -5628405.53008  22612731.47208  22612732.08508
  -9081723.16408  -7076660.18708  22811615.49408  22811615.97908
 -16870614.40108 -13145920.19408  20619757.25508  20619757.00708
 94 01 30 01 45 30.0000000  0  7 02 07 13 15 19 26 27
 -20208044.99709 -15746510.77608  20879318.77209  20879319.13008
 -23337263.54508 -18184862.78208  20851393.99808  20851394.23708
  -3854681.75807  -3003643.98707  24621930.54307  24621934.28507
   -463387.15708   -361080.14608  23864135.47608  23864136.27408
  -7147765.71508  -5569670.94408  22627075.10008  22627075.34708
  -9128982.61408  -7113485.70108  22802622.48108  22802622.67608
 -16828337.13908 -13112976.88008  20627802.19508  20627802.00708
 94 01 30 01 46 00.0000000  0  7 02 07 13 15 19 26 27
 -20209132.42109 -15747358.11708  20879111.80709  20879112.23408
 -23389034.95608 -18225204.11408  20841542.18108  20841542.49608
  -3974891.56207  -3097313.76907  24599055.20507  24599058.91107
   -488350.45008   -380531.98708  23859384.46208  23859386.10408
  -7072130.11108  -5510734.11008  22641468.11908  22641468.31708
  -9175808.07008  -7149973.03808  22793711.85208  22793712.21308
 -16785675.76908 -13079734.25808  20635920.53208  20635920.23108
 94 01 30 01 46 30.0000000  0  7 02 07 13 15 19 26 27
 -20210058.11809 -15748079.43208  20878935.46509  20878936.02808
 -23440364.73608 -18265201.32008  20831774.43608  20831774.74108
  -4095065.39307  -3190955.53007  24576186.60507  24576190.49707
   -512842.92708   -399617.04308  23854723.89308  23854725.20408
  -6996215.36008  -5451579.76808  22655914.24908  22655914.21808
  -9222189.27808  -7186114.21508  22784885.68108  22784886.17208
 -16742619.35208 -13046183.79808  20644113.90208  20644113.59408
 94 01 30 01 47 00.0000000  0  7 02 07 13 15 19 26 27
 -20210776.02009 -15748638.82308  20878798.90709  20878799.35508
 -23491224.93508 -18304832.61808  20822095.96508  20822096.20708
  -4215167.69108  -3284541.54707  24553332.15708  24553335.87207
   -536830.25308   -418308.47808  23850159.65608  23850160.56108
  -6919986.45108  -5392180.63508  22670420.04108  22670419.83208
  -9268077.36508  -7221871.14608  22776153.45308  22776153.85808
 -16699130.03608 -13012296.02008  20652389.70708  20652389.44408
 94 01 30 01 47 30.0000000  0  7 02 07 13 15 19 26 27
 -20211285.15709 -15749035.54608  20878702.07009  20878702.41508
 -23541617.55908 -18344099.57108  20812506.64608  20812506.87008
  -4335212.70708  -3378082.94507  24530488.31608  24530491.71207
   -560328.28908   -436618.59408  23845687.47208  23845689.01508
  -6843457.70608  -5332547.84408  22684982.96208  22684982.71708
  -9313485.78708  -7257254.31808  22767512.57408  22767512.87708
 -16655217.67208 -12978078.59308  20660745.80908  20660745.73408
 94 01 30 01 48 00.0000000  0  7 02 07 13 15 19 26 27
 -20211608.47209 -15749287.46108  20878640.50709  20878640.79808
 -23591546.20408 -18383004.98108  20803005.51108  20803005.78808
  -4455208.74408  -3471586.16407  24507653.50808  24507656.99307
   -583346.37008   -454554.73908  23841307.36208  23841308.34508
  -6766651.31708  -5272698.71208  22699598.48408  22699598.70708
  -9358409.79208  -7292260.01408  22758963.65408  22758963.98808
 -16610898.51608 -12943544.18608  20669179.60108  20669179.44508
 94 01 30 01 48 30.0000000  0  7 02 07 13 15 19 26 27
 -20211732.37309 -15749384.00008  20878617.05909  20878617.25208
 -23641001.24309 -18421541.35108  20793594.50809  20793594.81108
  -4575150.83008  -3565047.36207  24484829.47008  24484832.71807
   -605880.55308   -472113.82708  23837019.42508  23837020.01108
  -6689596.35308  -5212655.88608  22714261.45108  22714261.73008
  -9402825.90208  -7326869.94908  22750511.73708  22750512.06708
 -16566156.57208 -12908680.33608  20677693.71808  20677693.51808
 94 01 30 01 49 00.0000000  0  7 02 07 13 15 19 26 27
 -20211674.65009 -15749339.01408  20878628.04609  20878628.33208
 -23689958.23409 -18459689.62908  20784278.34109  20784278.63908
  -4695038.31208  -3658466.00407  24462015.56508  24462018.88007
   -627931.51108   -489296.41208  23832823.75208  23832824.02208
  -6612303.11608  -5152427.38708  22728969.95108  22728970.21408
  -9446727.22708  -7361078.75308  22742157.29408  22742157.80408
 -16520986.72408 -12873483.04608  20686289.25308  20686289.04808
 94 01 30 01 49 30.0000000  0  7 02 07 13 15 19 26 27
 -20211444.54609 -15749159.70708  20878671.70009  20878672.00608
 -23738419.68509 -18497451.77708  20775056.46309  20775056.63008
  -4814865.38008  -3751837.57407  24439213.17908  24439216.27607
   -649494.95008   -506099.06008  23828719.98808  23828721.02108
  -6534768.94808  -5092011.16008  22743724.22908  22743724.50508
  -9490112.51408  -7394885.45208  22733901.37508  22733901.84508
 -16475377.90108 -12837943.69908  20694968.27208  20694968.07208
 94 01 30 01 50 00.0000000  0  7 02 07 13 15 19 26 27
 -20211051.29509 -15748853.26808  20878746.56709  20878746.87208
 -23786406.37609 -18534843.97708  20765924.85409  20765925.02308
  -4934634.92908  -3845164.32607  24416421.54608  24416424.33907
   -670574.86208   -522524.90708  23824707.93708  23824709.37908
  -6457000.86808  -5031412.65208  22758523.08808  22758523.25108
  -9532986.57908  -7428293.79608  22725742.69808  22725743.13108
 -16429337.53408 -12802068.08908  20703729.48208  20703729.22908
 94 01 30 01 50 30.0000000  0  7 02 07 13 15 19 26 27
 -20210467.86209 -15748398.63708  20878857.60109  20878857.88908
 -23833904.23908 -18571855.27409  20756886.25008  20756886.47509
  -5054324.64708  -3938428.88707  24393645.22108  24393647.88307
   -691150.23008   -538557.64107  23820793.41908  23820793.51307
  -6378967.87408  -4970607.71408  22773372.16808  22773372.33708
  -9575342.86908  -7461298.67908  22717682.62108  22717683.02108
 -16382844.33008 -12765839.61708  20712577.00308  20712576.66308
 94 01 30 01 51 00.0000000  0  7 02 07 13 15 19 26 27
 -20209710.74409 -15747808.66708  20879001.63309  20879001.92808
 -23880924.37408 -18608494.31309  20747938.50308  20747938.86509
  -5173935.04408  -4031631.62307  24370883.85908  24370886.79107
   -711223.52108   -554199.12508  23816973.84808  23816974.28408
  -6300666.22108  -4909593.45308  22788272.40008  22788272.70708
  -9617206.24608  -7493919.47608  22709716.43908  22709716.63408
 -16335917.47808 -12729273.23308  20721506.85508  20721506.55608
 94 01 30 01 51 30.0000000  0  7 02 07 13 15 19 26 27
 -20208815.21309 -15747110.83808  20879171.94709  20879172.37508
 -23927515.12308 -18644798.76409  20739072.54708  20739072.95109
  -5293506.92208  -4124804.35807  24348129.89008  24348132.86507
   -730836.23108   -569481.78508  23813240.91708  23813242.34708
  -6222139.33108  -4848403.68308  22803215.91708  22803216.12208
  -9658626.09708  -7526194.66708  22701834.42908  22701834.85808
 -16288613.36208 -12692412.87908  20730508.47508  20730508.31608
 94 01 30 01 52 00.0000000  0  7 02 07 13 15 19 26 27
 -20207768.55809 -15746295.25008  20879371.23009  20879371.68708
 -23973639.39008 -18680739.72308  20730295.39908  20730295.73108
  -5413017.56508  -4217929.38007  24325387.72008  24325390.38307
   -749967.71008   -584389.42108  23809600.85708  23809601.82408
  -6143363.42508  -4787019.85908  22818206.29008  22818206.64208
  -9699579.15108  -7558106.11408  22694041.31208  22694041.54208
 -16240915.41108 -12655245.64208  20739584.88308  20739584.86108
 94 01 30 01 52 30.0000000  0  7 02 07 13 15 19 26 27
 -20206519.10009 -15745321.63708  20879608.93209  20879609.45408
 -24019215.62509 -18716253.64608  20721622.48509  20721622.72408
  -5532396.15008  -4310951.48607  24302670.71008  24302673.10707
   -768548.11308   -598867.62208  23806065.16708  23806065.79108
  -6064271.31908  -4725389.66408  22833257.04308  22833257.73808
  -9740005.08008  -7589606.82008  22686348.60408  22686348.60708
 -16192755.09708 -12617718.12508  20748749.60308  20748749.55008
 94 01 30 01 53 00.0000000  0  7 02 07 13 15 19 26 27
 -20205107.11809 -15744221.38108  20879877.63709  20879878.12608
 -24064287.62609 -18751374.65908  20713045.52909  20713045.70508
  -5651678.49508  -4403898.60407  24279971.93308  24279974.06907
   -786615.04208   -612945.71308  23802627.41908  23802627.82808
  -5984896.56008  -4663539.20508  22848361.73308  22848362.17508
  -9779937.15508  -7620722.70608  22678749.79708  22678749.79708
 -16144167.17008 -12579857.40708  20757995.71308  20757995.56008
 94 01 30 01 53 30.0000000  0  7 02 07 13 15 19 26 27
 -20203523.42509 -15742987.32808  20880179.00209  20880179.32608
 -24108851.86709 -18786100.02208  20704565.35309  20704565.44108
  -5770861.05408  -4496767.96007  24257292.29208  24257294.95607
   -804166.55808   -626622.16208  23799287.20108  23799287.70708
  -5905229.17508  -4601460.72908  22863521.87908  22863522.58608
  -9819362.73908  -7651443.92108  22671247.22608  22671247.49108
 -16095146.95508 -12541659.83708  20767324.00008  20767323.83508
 94 01 30 01 54 00.0000000  0  7 02 07 13 15 19 26 27
 -20201777.28809 -15741626.69308  20880511.22809  20880511.60708
 -24152929.17009 -18820445.95008  20696177.72909  20696177.84908
  -5889948.09608  -4589562.86807  24234630.32708  24234633.39107
   -821207.79508   -639901.01008  23796043.62408  23796044.56408
  -5825284.18908  -4539165.93908  22878735.16808  22878735.65208
  -9858282.24108  -7681770.78208  22663840.99008  22663841.23408
 -16045697.58208 -12503127.86208  20776733.89308  20776733.58008
 94 01 30 01 54 30.0000000  0  7 02 07 13 15 19 26 27
 -20199851.08509 -15740125.74208  20880877.77109  20880878.15508
 -24196544.17009 -18854431.64108  20687878.03309  20687878.14608
  -6008942.19508  -4682285.36307  24211986.46008  24211989.10207
   -837743.23008   -652785.77708  23792897.32508  23792898.15208
  -5745079.89208  -4476669.07708  22893997.15108  22893997.90608
  -9896704.93808  -7711710.52508  22656529.20408  22656529.47508
 -15995830.58908 -12464270.47208  20786223.17108  20786222.94208
 94 01 30 01 55 00.0000000  0  7 02 07 13 15 19 26 27
 -20197721.35309 -15738466.19208  20881282.98109  20881283.42708
 -24239691.65009 -18888053.03408  20679667.28309  20679667.44408
  -6127825.55208  -4774921.56807  24189363.49208  24189366.16807
   -853756.61408   -665263.70408  23789850.60908  23789851.24808
  -5664608.81008  -4413964.34808  22909310.33708  22909311.05808
  -9934601.30708  -7741240.15408  22649317.85708  22649318.27608
 -15945528.47108 -12425074.01908  20795795.41208  20795795.15708
 94 01 30 01 55 30.0000000  0  7 02 07 13 15 19 26 27
 -20195418.43009 -15736671.69808  20881721.23609  20881721.60908
 -24282392.07809 -18921326.07408  20671541.62209  20671541.81008
  -6246622.75208  -4867490.65307  24166756.93708  24166759.74207
   -869274.08108   -677355.21408  23786897.61108  23786898.54908
  -5583920.29308  -4351090.19208  22924664.94508  22924665.57108
  -9971988.92208  -7770373.35108  22642203.30008  22642203.84308
 -15894823.01708 -12385563.27508  20805444.20608  20805444.01808
 94 01 30 01 56 00.0000000  0  7 02 07 13 15 19 26 27
 -20192940.24209 -15734740.63308  20882192.73409  20882193.21708
 -24324632.10509 -18954240.36408  20663503.47609  20663503.62908
  -6365324.85308  -4959985.66507  24144168.88208  24144171.52407
   -884288.41808   -689054.65308  23784039.78608  23784040.91608
  -5503011.52008  -4288044.41208  22940061.30708  22940061.99208
 -10008863.02008  -7799106.40808  22635186.40208  22635186.80108
 -15843696.00108 -12345724.04908  20815173.46808  20815173.29508
 94 01 30 01 56 30.0000000  0  7 02 07 13 15 19 26 27
 -20190277.31309 -15732665.61108  20882699.51109  20882699.96108
 -24366364.57908 -18986759.15408  20655562.10308  20655562.24308
  -6483904.48608  -5052385.24608  24121603.85208  24121606.15708
   -898773.59607   -700341.79708  23781282.86507  23781284.03608
  -5421852.55808  -4224803.69308  22955505.40808  22955506.17608
 -10045206.93808  -7827426.33908  22628270.38108  22628270.68508
 -15792121.42108 -12305536.06508  20824987.56208  20824987.54808
 94 01 30 01 57 00.0000000  0  7 02 07 13 15 19 26 27
 -20187465.02609 -15730474.21308  20883234.71509  20883235.06408
 -24407594.18208 -19018886.09609  20647716.48608  20647716.57309
  -6602373.88808  -5144698.95608  24099059.74508  24099062.12908
   -912743.55307   -711227.47108  23778624.09707  23778625.45908
  -5340446.81408  -4161370.65908  22970996.34008  22970997.07608
 -10081021.01708  -7855333.40208  22621455.21108  22621455.47008
 -15740113.24908 -12265010.22108  20834884.36508  20834884.30208
 94 01 30 01 57 30.0000000  0  7 02 07 13 15 19 26 27
 -20184500.53809 -15728164.21508  20883798.80909  20883799.22308
 -24448319.37608 -19050619.99209  20639966.58808  20639966.69509
  -6720735.68808  -5236928.81008  24076535.91008  24076538.59008
   -926202.64408   -721715.04608  23776063.85008  23776064.30808
  -5258785.91008  -4097738.80108  22986535.86508  22986536.46208
 -10116319.65808  -7882838.82208  22614738.09908  22614738.28808
 -15687688.97908 -12224160.14508  20844860.45008  20844860.35508
 94 01 30 01 58 00.0000000  0  7 02 07 13 15 19 26 27
 -20181410.56309 -15725756.42808  20884386.81209  20884387.13208
 -24488561.28508 -19081977.29909  20632308.72608  20632308.95709
  -6839008.76808  -5329089.53908  24054029.11108  24054031.79708
   -939171.40208   -731820.54908  23773595.49508  23773596.86308
  -5176885.42908  -4033920.23808  23002121.14708  23002121.55008
 -10151143.31008  -7909974.12408  22608111.52408  22608111.60908
 -15634869.50108 -12183002.11608  20854911.83608  20854911.64508
 94 01 30 01 58 30.0000000  0  7 02 07 13 15 19 26 27
 -20178160.20809 -15723223.66808  20885005.43909  20885005.58108
 -24528296.56608 -19112939.83609  20624747.44908  20624747.64709
  -6957157.67908  -5421153.52408  24031546.18108  24031548.89908
   -951616.65608   -741518.09408  23771227.58108  23771228.61808
  -5094724.51708  -3969898.74908  23017755.87708  23017756.07608
 -10185458.35008  -7936713.10208  22601581.42908  22601581.69808
 -15581634.71708 -12141520.46908  20865042.03808  20865041.86108
 94 01 30 01 59 00.0000000  0  7 02 07 13 15 19 26 27
 -20174731.92009 -15720552.26108  20885657.87409  20885658.07408
 -24567535.28608 -19143515.43809  20617280.49008  20617280.75509
  -7075181.20508  -5513119.81108  24009086.94108  24009089.79508
   -963538.66008   -750807.95708  23768959.25108  23768959.64008
  -5012306.26408  -3905676.74808  23033439.54808  23033439.80408
 -10219258.19608  -7963050.63208  22595149.53508  22595149.66408
 -15527986.23208 -12099716.45408  20875251.04108  20875250.81908
 94 01 30 01 59 30.0000000  0  7 02 07 13 15 19 26 27
 -20171134.29009 -15717748.90008  20886342.34409  20886342.54608
 -24606297.07808 -19173719.41009  20609904.35908  20609904.65509
  -7193093.99508  -5604999.80608  23986648.89908  23986651.67108
   -974953.59008   -759702.68908  23766787.06108  23766787.55708
  -4929659.32108  -3841276.53608  23049166.79208  23049167.07608
 -10252581.72808  -7989017.01408  22588808.08508  22588808.30708
 -15473937.48908 -12057600.55508  20885536.08408  20885535.96308
 94 01 30 02 00 00.0000000  0  7 02 07 13 15 19 26 27
 -20167356.80509 -15714805.39208  20887061.24709  20887061.38608
 -24644552.41208 -19203528.74009  20602624.56608  20602624.79309
  -7310867.54908  -5696771.30708  23964237.46208  23964239.72808
   -985834.70808   -768181.49607  23764716.19408  23764716.60007
  -4846778.57508  -3776694.13408  23064938.66808  23064939.04008
 -10285388.54508  -8014580.76208  22582565.24608  22582565.57108
 -15419456.39908 -12015147.76508  20895903.28208  20895903.28508
 94 01 30 02 00 30.0000000  0  7 02 07 13 15 19 26 27
 -20163382.29909 -15711708.36408  20887817.56109  20887817.68408
 -24682297.26309 -19232940.29109  20595441.82109  20595442.03909
  -7428497.41808  -5788430.83208  23941853.17208  23941855.37108
   -996179.63308   -776242.45507  23762747.49708  23762747.98807
  -4763642.97808  -3711913.15408  23080758.74808  23080759.33808
 -10317660.13008  -8039727.44908  22576424.28208  22576424.48908
 -15364556.30208 -11972368.47308  20906350.64708  20906350.51608
 94 01 30 02 01 00.0000000  0  7 02 07 13 15 19 26 27
 -20159213.84809 -15708460.20608  20888610.79409  20888611.00008
 -24719540.64209 -19261961.08309  20588354.66709  20588354.85709
  -7545986.88208  -5879980.94808  23919495.27808  23919497.65408
  -1005993.38008   -783889.45107  23760880.18308  23760880.75807
  -4680256.31208  -3646936.53608  23096626.17908  23096627.23608
 -10349405.37508  -8064463.99208  22570383.28808  22570383.41908
 -15309251.04108 -11929273.46608  20916874.72708  20916874.59208
 94 01 30 02 01 30.0000000  0  7 02 07 13 15 19 26 27
 -20154862.74109 -15705069.71808  20889438.76309  20889438.94308
 -24756292.92309 -19290599.20409  20581361.07409  20581361.18109
  -7663342.68108  -5971426.88907  23897162.86308  23897165.55307
  -1015284.71508   -791129.41307  23759112.39808  23759112.61307
  -4596633.03908  -3581775.55408  23112538.92208  23112540.23608
 -10380634.82108  -8088798.61108  22564440.50108  22564440.59308
 -15253555.18208 -11885874.09708  20927473.33608  20927473.20808
 94 01 30 02 02 00.0000000  0  7 02 07 13 15 19 26 27
 -20150319.54909 -15701529.54708  20890303.25609  20890303.48008
 -24792554.03909 -19318854.59609  20574460.78509  20574460.85509
  -7780554.83908  -6062760.90107  23874857.67608  23874860.49207
  -1024045.72308   -797956.17007  23757445.34308  23757445.65707
  -4512761.75508  -3516421.31708  23128499.67708  23128500.43108
 -10411328.44508  -8112715.70408  22558599.67408  22558599.98308
 -15197461.01508 -11842164.35808  20938147.77908  20938147.67108
 94 01 30 02 02 30.0000000  0  7 02 07 13 15 19 26 27
 -20145575.44209 -15697832.82708  20891206.07209  20891206.20808
 -24828329.01909 -19346731.18409  20567653.05609  20567653.06309
  -7897617.96808  -6153978.78307  23852581.30408  23852584.14107
  -1032272.40808   -804366.53908  23755880.17108  23755880.49208
  -4428633.87608  -3450867.14208  23144509.18308  23144509.38408
 -10441495.24308  -8136222.27908  22552859.23008  22552859.40608
 -15140956.13708 -11798134.58708  20948900.20608  20948900.22308
 94 01 30 02 03 00.0000000  0  7 02 07 13 15 19 26 27
 -20140658.28609 -15694001.26008  20892141.65109  20892141.87808
 -24863630.31709 -19374238.66809  20560935.45209  20560935.44909
  -8014537.21508  -6245084.56907  23830332.38308  23830334.92907
  -1039972.20508   -810366.37808  23754414.86908  23754414.94308
  -4344284.03708  -3385140.01408  23160560.36508  23160560.74008
 -10471147.18008  -8159327.67008  22547216.65508  22547216.81608
 -15084019.40008 -11753768.30208  20959734.99208  20959734.85308
 94 01 30 02 03 30.0000000  0  7 02 07 13 15 19 26 27
 -20135572.87809 -15690038.59608  20893109.41509  20893109.60108
 -24898452.03109 -19401372.45009  20554308.94809  20554308.98009
  -8131309.37508  -6336075.74807  23808111.19008  23808113.70907
  -1047143.68408   -815954.52408  23753050.39208  23753050.67608
  -4259702.03408  -3319231.96308  23176655.49608  23176655.91808
 -10500280.05308  -8182028.59108  22541672.71708  22541673.07208
 -15026638.53108 -11709055.93608  20970654.30208  20970654.14008
 94 01 30 02 04 00.0000000  0  7 02 07 13 15 19 26 27
 -20130341.71509 -15685962.34908  20894104.86509  20894105.11608
 -24932786.78109 -19428126.78109  20547775.32509  20547775.42009
  -8247938.03608  -6426955.09807  23785917.41908  23785920.00407
  -1053792.05407   -821135.06208  23751784.47007  23751785.51208
  -4174890.93208  -3253145.38708  23192794.61408  23192794.83808
 -10528903.66608  -8204332.69408  22536225.87608  22536226.00908
 -14968813.56908 -11663997.52808  20981657.88108  20981657.71908
 94 01 30 02 04 30.0000000  0  7 02 07 13 15 19 26 27
 -20124966.32509 -15681773.71808  20895127.72709  20895127.88908
 -24966612.22209 -19454484.24609  20541338.61909  20541338.67109
  -8364411.34708  -6517713.41007  23763753.26808  23763755.66807
  -1059908.01307   -825900.73008  23750620.07307  23750621.94008
  -4089847.29208  -3186877.60508  23208977.94008  23208977.98608
 -10557013.81608  -8226236.69908  22530876.65708  22530876.84108
 -14910547.60208 -11618595.47408  20992745.51108  20992745.20608
 94 01 30 02 05 00.0000000  0  7 02 07 13 15 19 26 27
 -20119429.51009 -15677459.30508  20896181.38009  20896181.64308
 -24999925.57909 -19480442.68509  20534999.38209  20534999.37009
  -8480718.71208  -6608342.41307  23741620.68008  23741622.88107
  -1065482.92208   -830244.82608  23749559.71208  23749560.51508
  -4004560.34108  -3120420.25308  23225207.44408  23225207.46508
 -10584601.81708  -8247733.82808  22525626.90208  22525627.08908
 -14851851.01708 -11572857.87108  21003914.96008  21003914.75308
 94 01 30 02 05 30.0000000  0  7 02 07 13 15 19 26 27
 -20113728.61209 -15673017.03508  20897266.15909  20897266.42408
 -25032723.02309 -19505999.11509  20528758.16909  20528758.16309
  -8596853.55508  -6698836.99907  23719520.96108  23719523.26707
  -1070512.25608   -834163.78008  23748602.89508  23748603.55208
  -3919021.08708  -3053766.29508  23241485.01908  23241484.80108
 -10611662.79608  -8268820.29408  22520477.33308  22520477.47908
 -14792740.73908 -11526797.91608  21015163.42208  21015163.08508
 94 01 30 02 06 00.0000000  0  7 02 07 13 15 19 26 27
 -20107875.52009 -15668456.16808  20898379.94909  20898380.22708
 -25065018.91909 -19531164.72709  20522612.37909  20522612.43009
  -8712826.35908  -6789205.31308  23697451.95808  23697454.40108
  -1075008.52708   -837667.30907  23747746.93508  23747747.49907
  -3833264.50808  -2986942.98508  23257803.74008  23257803.73108
 -10638207.18008  -8289504.21208  22515425.92408  22515426.04508
 -14733241.24408 -11480434.67808  21026485.81308  21026485.53808
 94 01 30 02 06 30.0000000  0  7 02 07 13 15 19 26 27
 -20101838.17709 -15663751.73408  20899528.87009  20899529.11708
 -25096826.14309 -19555949.55609  20516559.55609  20516559.65109
  -8828621.81008  -6879435.42608  23675416.90808  23675418.98608
  -1078958.30308   -840745.04007  23746995.19408  23746995.62407
  -3747285.27108  -2919946.17908  23274164.97408  23274165.32508
 -10664204.15308  -8309761.58108  22510478.93208  22510479.00208
 -14673345.45008 -11433762.63908  21037883.51808  21037883.41908
 94 01 30 02 07 00.0000000  0  7 02 07 13 15 19 26 27
 -20095600.34709 -15658891.07208  20900715.83409  20900716.21908
 -25128126.13009 -19580339.13709  20510603.27509  20510603.42009
  -8944219.96408  -6969511.80708  23653419.30008  23653421.35908
  -1082343.81608   -843383.08407  23746351.47008  23746351.70907
  -3661052.79308  -2852752.04108  23290574.48208  23290575.07608
 -10689627.87508  -8329572.25908  22505640.67208  22505641.01208
 -14613029.08308 -11386762.88608  21049361.43808  21049361.26208
 94 01 30 02 07 30.0000000  0  7 02 07 13 15 19 26 27
 -20089200.95909 -15653904.52608  20901933.65509  20901933.99708
 -25158924.52009 -19604337.86409  20504742.57309  20504742.72409
  -9059640.80408  -7059450.03608  23631455.38308  23631457.49608
  -1085187.11108   -845598.60807  23745810.47608  23745810.66407
  -3574599.70408  -2785386.02008  23307026.01008  23307026.56408
 -10714498.26108  -8348951.76408  22500908.08808  22500908.33708
 -14552313.92308 -11339452.37808  21060915.23608  21060914.98808
 94 01 30 02 08 00.0000000  0  7 02 07 13 15 19 26 27
 -20082641.02309 -15648792.87408  20903181.88209  20903182.28508
 -25189232.58109 -19627954.51809  20498975.31109  20498975.37709
  -9174898.43508  -7149261.08708  23609522.42608  23609524.74108
  -1087504.75308   -847404.50007  23745369.37608  23745369.53707
  -3487939.79108  -2717858.82708  23323516.75908  23323517.46908
 -10738834.56108  -8367915.09608  22496277.09908  22496277.40408
 -14491212.04008 -11291840.52808  21072542.53608  21072542.17708
 94 01 30 02 08 30.0000000  0  7 02 07 13 15 19 26 27
 -20075914.43809 -15643551.36308  20904461.89809  20904462.21208
 -25219029.64709 -19651172.99209  20493305.01709  20493305.13109
  -9289973.54508  -7238929.90208  23587624.39708  23587626.40208
  -1089279.69707   -848787.52707  23745031.21507  23745031.38407
  -3401032.83408  -2650139.13808  23340054.50908  23340055.72508
 -10762634.96408  -8386460.84508  22491748.01808  22491748.30308
 -14429701.26108 -11243910.05508  21084247.68908  21084247.24508
 94 01 30 02 09 00.0000000  0  7 02 07 13 15 19 26 27
 -20069024.34509 -15638182.44408  20905772.88109  20905773.25908
 -25248300.34109 -19673981.30709  20487734.89409  20487735.00809
  -9404859.92008  -7328451.65408  23565761.90408  23565763.94208
  -1090507.93707   -849744.53507  23744796.97207  23744798.19307
  -3313874.12808  -2582223.27508  23356640.46408  23356641.48808
 -10785917.69108  -8404603.21408  22487317.47808  22487317.59408
 -14367771.21308 -11195652.88508  21096032.51008  21096032.32308
 94 01 30 02 09 30.0000000  0  7 02 07 13 15 19 26 27
 -20062014.38709 -15632720.13008  20907106.95809  20907107.19808
 -25277112.63509 -19696432.42709  20482252.06209  20482252.24309
  -9519610.70508  -7417867.75208  23543925.78008  23543927.58708
  -1091244.45607   -850318.46607  23744657.32307  23744657.78307
  -3226537.38008  -2514168.68308  23373260.33808  23373261.03708
 -10808741.94908  -8422388.33508  22482974.21208  22482974.33108
 -14305468.62408 -11147105.42508  21107888.35108  21107888.24308
 94 01 30 02 10 00.0000000  0  7 02 07 13 15 19 26 27
 -20054865.67909 -15627149.69908  20908467.29809  20908467.52808
 -25305462.43009 -19718523.15509  20476857.29509  20476857.47609
  -9634209.18508  -7507165.18208  23522118.26208  23522120.22908
  -1091474.84107   -850498.02107  23744613.06907  23744613.37907
  -3138991.67508  -2445951.26508  23389920.13908  23389920.33808
 -10831095.54508  -8439806.70508  22478720.59308  22478720.45508
 -14242767.32308 -11098247.27708  21119820.11008  21119819.89808
 94 01 30 02 10 30.0000000  0  7 02 07 13 15 19 26 27
 -20047508.98309 -15621417.20208  20909867.29909  20909867.42108
 -25333271.08409 -19740192.21609  20471565.49809  20471565.65509
  -9748568.68908  -7596276.38508  23500356.04908  23500358.11308
  -1091114.75807   -850217.39307  23744681.86607  23744682.22307
  -3051151.53008  -2377504.39208  23406635.41008  23406635.77908
 -10852890.40408  -8456789.69208  22474573.19408  22474573.14008
 -14179591.38408 -11049019.27608  21131841.97008  21131841.78608
 94 01 30 02 11 00.0000000  0  7 02 07 13 15 19 26 27
 -20039974.33209 -15615546.04508  20911301.08609  20911301.22708
 -25360571.35909 -19761465.13909  20466370.48009  20466370.51909
  -9862723.65008  -7685228.21608  23478633.29008  23478635.06708
  -1090201.03007   -849505.35407  23744855.52807  23744855.21007
  -2963069.24008  -2308868.86308  23423396.89508  23423397.39008
 -10874146.17208  -8473352.61608  22470528.40708  22470528.28308
 -14115980.83408 -10999452.62608  21143946.71108  21143946.52708
 94 01 30 02 11 30.0000000  0  7 02 07 13 15 19 26 27
 -20032278.10509 -15609548.97908  20912765.68809  20912765.75708
 -25387360.54909 -19782339.81309  20461272.66409  20461272.62509
  -9976679.38008  -7774024.81508  23456948.09408  23456949.82508
  -1088741.56507   -848368.07507  23745133.60607  23745132.60307
  -2874751.84108  -2240050.13108  23440203.08408  23440203.42108
 -10894860.97308  -8489494.00708  22466586.49408  22466586.42408
 -14051953.84508 -10949561.47208  21156130.74608  21156130.35308
 94 01 30 02 12 00.0000000  0  7 02 07 13 15 19 26 27
 -20024418.34609 -15603424.48008  20914261.26709  20914261.36508
 -25413623.28509 -19802804.26409  20456275.04409  20456275.06209
 -10090427.08008  -7862659.31208  23435302.77008  23435304.07808
  -1086729.47107   -846800.14207  23745516.50707  23745515.83307
  -2786186.48208  -2171038.15908  23457056.41608  23457056.51408
 -10915028.65108  -8505209.06908  22462748.49808  22462748.53108
 -13987525.82308 -10899357.82208  21168391.00908  21168390.56008
 94 01 30 02 12 30.0000000  0  7 02 07 13 15 19 26 27
 -20016406.55809 -15597181.52508  20915785.92309  20915786.04008
 -25439380.91309 -19822875.12409  20451373.39109  20451373.44909
 -10203983.30608  -7951144.60508  23413693.38408  23413695.23608
  -1084183.90507   -844816.62507  23746000.53007  23745999.89407
  -2697410.79408  -2101862.28208  23473949.60608  23473949.93908
 -10934660.42108  -8520506.54208  22459012.45808  22459012.64508
 -13922725.54508 -10848864.10808  21180722.02108  21180721.58608
 94 01 30 02 13 00.0000000  0  7 02 07 13 15 19 26 27
 -20008210.15609 -15590794.71008  20917345.65009  20917345.73808
 -25464614.11909 -19842537.34609  20446571.68909  20446571.63309
 -10317331.37608  -8039467.69708  23392124.03108  23392125.93608
  -1081090.49107   -842406.15507  23746588.73807  23746588.84607
  -2608417.04208  -2032516.51508  23490884.54808  23490885.25708
 -10953737.76808  -8535372.00208  22455382.05008  22455382.32108
 -13857530.67008 -10798062.91508  21193128.17008  21193127.85908
 94 01 30 02 13 30.0000000  0  7 02 07 13 15 19 26 27
 -19999809.03809 -15584248.37708  20918944.18109  20918944.32108
 -25489330.52909 -19861796.86909  20441868.38409  20441868.23309
 -10430456.27508  -8127616.89908  23370597.25608  23370598.77408
  -1077436.59707   -839558.92806  23747283.79607  23747283.00306
  -2519200.39608  -1962997.09008  23507861.64908  23507862.75208
 -10972254.29108  -8549800.45208  22451858.62108  22451858.90008
 -13791931.77508 -10746946.90208  21205611.24708  21205610.88608
 94 01 30 02 14 00.0000000  0  7 02 07 13 15 19 26 27
 -19991208.32409 -15577546.51308  20920580.78309  20920581.02108
 -25513557.09309 -19880674.69209  20437258.10309  20437258.00209
 -10543363.56708  -8215596.54008  23349111.49708  23349113.31108
  -1073230.18308   -836281.13406  23748084.82108  23748084.10306
  -2429774.22608  -1893314.38608  23524878.97308  23524879.99808
 -10990226.90408  -8563805.07708  22448438.62308  22448438.79008
 -13725942.44108 -10695526.64708  21218168.62908  21218168.26008
 94 01 30 02 14 30.0000000  0  7 02 07 13 15 19 26 27
 -19982415.07509 -15570694.62508  20922254.08109  20922254.34908
 -25537296.27609 -19899172.73809  20432740.64109  20432740.56309
 -10656050.08708  -8303404.14908  23327667.94908  23327669.79508
  -1068470.45508   -832572.16806  23748990.44908  23748991.41206
  -2340140.87608  -1823470.21208  23541935.88608  23541936.78108
 -11007661.92508  -8577390.79808  22445121.08808  22445121.15608
 -13659548.47708 -10643791.09908  21230802.94208  21230802.85008
 94 01 30 02 15 00.0000000  0  7 02 07 13 15 19 26 27
 -19973441.50409 -15563702.21908  20923961.77509  20923961.96608
 -25560553.37209 -19917295.13409  20428314.93609  20428314.83409
 -10768510.74608  -8391035.76808  23306267.33908  23306269.29308
  -1063154.81407   -828430.10906  23750001.85907  23750002.38506
  -2250296.57708  -1753461.68408  23559032.74108  23559033.68108
 -11024571.14208  -8590566.79108  22441903.30908  22441903.31208
 -13592750.49808 -10591740.73708  21243514.04108  21243514.16608
 94 01 30 02 15 30.0000000  0  7 02 07 13 15 19 26 27
 -19964319.65309 -15556594.27408  20925697.57309  20925697.74308
 -25583342.53409 -19935052.90409  20423978.23309  20423978.18709
 -10880746.47708  -8478492.11608  23284909.46908  23284911.33308
  -1057286.96007   -823857.75506  23751118.24907  23751119.00306
  -2160250.45608  -1683295.89808  23576167.81708  23576168.76808
 -11040961.61208  -8603338.56908  22438784.29108  22438784.31608
 -13525560.21308 -10539384.68308  21256299.92808  21256300.01408
 94 01 30 02 16 00.0000000  0  7 02 07 13 15 19 26 27
 -19955048.84809 -15549370.25808  20927461.71509  20927461.82608
 -25605621.91509 -19952413.44009  20419738.70109  20419738.77409
 -10992735.37508  -8565756.13208  23263598.55408  23263600.35508
  -1050847.46408   -818839.95207  23752344.19208  23752345.03407
  -2069972.78708  -1612949.69008  23593346.81508  23593348.22908
 -11056808.84308  -8615687.04408  22435768.50008  22435768.66208
 -13457946.53208 -10486698.71108  21269166.50808  21269166.49408
 94 01 30 02 16 30.0000000  0  7 02 07 13 15 19 26 27
 -19945641.98309 -15542040.21908  20929251.83009  20929251.86408
 -25627394.98309 -19969379.44609  20415595.35209  20415595.40409
 -11104488.92308  -8652836.75508  23242332.64108  23242334.32908
  -1043850.26107   -813387.53307  23753675.52407  23753676.99707
  -1979480.86708  -1542436.54608  23610566.83908  23610568.40008
 -11072109.23708  -8627609.41408  22432856.95108  22432857.07508
 -13389908.25108 -10433681.87708  21282113.65308  21282113.63608
 94 01 30 02 17 00.0000000  0  7 02 07 13 15 19 26 27
 -19936111.23409 -15534613.65608  20931065.49509  20931065.56108
 -25648674.96108 -19985961.22809  20411545.81008  20411545.81609
 -11216024.07608  -8739747.20508  23221108.02908  23221109.73508
  -1036314.61107   -807515.57907  23755109.70507  23755110.84007
  -1888806.93808  -1471781.55608  23627821.75708  23627823.02708
 -11086871.72508  -8639112.63508  22430047.70008  22430048.03608
 -13321466.72408 -10380350.82308  21295137.69908  21295137.50108
 94 01 30 02 17 30.0000000  0  7 02 07 13 15 19 26 27
 -19926427.28509 -15527067.71108  20932908.22909  20932908.32608
 -25669428.87608 -20002133.09109  20407596.40808  20407596.44309
 -11327331.41908  -8826480.13408  23199926.88308  23199928.64508
  -1028233.48707   -801218.60206  23756647.46507  23756647.79706
  -1797941.89108  -1400977.62708  23645112.87308  23645113.57408
 -11101085.00708  -8650187.90408  22427343.07008  22427343.26208
 -13252611.94608 -10326697.75508  21308240.37708  21308240.15608
 94 01 30 02 18 00.0000000  0  6 02 07 13 19 26 27
 -19916567.06209 -15519384.40608  20934784.49809  20934784.53008
 -25689650.87008 -20017890.47009  20403748.41808  20403748.35909
 -11438409.05308  -8913034.06908  23178789.66508  23178791.29608
  -1706874.68208  -1330016.15008  23662442.09108  23662442.78408
 -11114760.62308  -8660844.21708  22424740.68108  22424740.74408
 -13183338.54408 -10272718.48808  21321422.90708  21321422.54408
 94 01 30 02 18 30.0000000  0  6 02 07 13 19 26 27
 -19906547.53709 -15511576.97608  20936691.16509  20936691.27108
 -25709381.15508 -20033264.69709  20399993.90308  20399993.88309
 -11549274.51608  -8999422.68808  23157692.57208  23157694.00908
  -1615624.00708  -1258911.70408  23679806.68808  23679807.34908
 -11127925.16108  -8671102.28408  22422235.50408  22422235.47108
 -13113685.81508 -10218443.64308  21334677.38608  21334676.90908
 94 01 30 02 19 00.0000000  0  7 02 07 13 15 19 26 27
 -19896302.13509 -15503593.53108  20938640.73009  20938640.90408
 -25728556.03108 -20048206.14009  20396344.94108  20396344.86709
 -11659857.85708  -9085591.47308  23136649.08308  23136650.65808
        -0.08117        -0.12316  23761884.48617  23761883.65016
  -1524108.75208  -1187601.12008  23697221.69708  23697222.02808
 -11140529.02808  -8680923.46908  22419836.91608  22419837.08108
 -13043603.91208 -10163834.37508  21348013.46508  21348013.06208
 94 01 30 02 19 30.0000000  0  6 02 07 13 19 26 27
 -19885894.19809 -15495483.43408  20940621.31409  20940621.52308
 -25747237.93208 -20062763.44809  20392789.87208  20392789.90809
 -11770201.00508  -9171573.09708  23115651.69008  23115653.42108
  -1432359.98008  -1116108.61708  23714680.61508  23714680.99308
 -11152617.09808  -8690342.72908  22417536.69408  22417536.88508
 -12973142.74108 -10108929.57708  21361421.65108  21361421.44408
 94 01 30 02 20 00.0000000  0  6 02 07 13 19 26 27
 -19875351.69809 -15487268.48608  20942627.50809  20942627.63508
 -25765455.09908 -20076958.62409  20389323.25508  20389323.28709
 -11880300.07808  -9257364.53308  23094700.67808  23094702.13508
  -1340373.94408  -1044431.23208  23732184.70608  23732185.26208
 -11164185.86208  -8699357.32608  22415335.39308  22415335.51408
 -12902302.18408 -10053729.15708  21374902.36708  21374901.97808
 94 01 30 02 20 30.0000000  0  7 02 07 13 15 19 26 27
 -19864636.77009 -15478919.17708  20944666.51109  20944666.64808
 -25783162.40908 -20090756.50809  20385953.71508  20385953.69509
 -11990108.20908  -9342929.27108  23073804.76608  23073806.03508
        -0.41517        -0.30716  23768078.39317  23768077.57116
  -1248123.58308   -972547.85208  23749739.75008  23749740.18808
 -11175182.95308  -8707926.45808  22413242.56408  22413242.86708
 -12831053.53308  -9998210.73508  21388460.58908  21388460.29108
 94 01 30 02 21 00.0000000  0  7 02 07 13 15 19 26 27
 -19853782.08609 -15470460.96908  20946732.07309  20946732.21108
 -25800394.12608 -20104183.80109  20382674.56408  20382674.57809
 -12099665.37708  -9428298.45108  23052956.53408  23052957.90208
     11977.25907      9332.94707  23770357.28507  23770357.43707
  -1155666.83108   -900503.63708  23767334.03408  23767334.28208
 -11185643.81008  -8716077.75908  22411252.12208  22411252.04308
 -12759434.41208  -9942403.63808  21402089.19608  21402088.87608
 94 01 30 02 21 30.0000000  0  7 02 07 13 15 19 26 27
 -19842802.64509 -15461905.54508  20948821.27209  20948821.47008
 -25817164.12608 -20117251.31609  20379483.29108  20379483.32309
 -12208982.68708  -9513480.74208  23032154.03908  23032155.54108
     24491.19207     19084.05807  23772738.03907  23772738.55007
  -1063029.80708   -828318.95108  23784962.08508  23784962.66908
 -11195563.97308  -8723807.75108  22409364.24208  22409364.31808
 -12687449.31808  -9886311.36508  21415787.47408  21415787.16608
 94 01 30 02 22 00.0000000  0  7 02 07 13 15 19 26 27
 -19831668.81409 -15453229.82108  20950940.12809  20950940.26808
 -25833451.34808 -20129942.64109  20376383.97208  20376383.97309
 -12318046.63308  -9598465.60608  23011399.71208  23011401.29108
     37551.72007     29261.13807  23775223.68107  23775224.11507
   -970208.78908   -755990.89808  23802625.28208  23802625.68508
 -11204937.00708  -8731111.40508  22407580.72008  22407580.59708
 -12615088.31708  -9829926.18108  21429557.22008  21429557.08508
 94 01 30 02 22 30.0000000  0  7 02 07 13 15 19 26 27
 -19820372.64409 -15444427.60208  20953089.77709  20953089.91608
 -25849255.23408 -20142257.34009  20373376.54308  20373376.62709
 -12426864.43208  -9683258.65808  22990692.36408  22990694.00308
     51148.91008     39856.37707  23777811.53508  23777811.38407
   -877229.45708   -683539.49408  23820319.00108  23820319.19508
 -11213774.45208  -8737997.71308  22405898.68808  22405898.70608
 -12542360.00508  -9773254.77708  21443397.00108  21443396.82108
 94 01 30 02 23 00.0000000  0  7 02 04 07 13 19 26 27
 -19808904.26409 -15435491.19008  20955272.12209  20955272.28908
        -0.37516        -0.33616  24983715.53516  24983717.76616
 -25864568.81808 -20154189.98409  20370462.40408  20370462.50609
 -12535420.89408  -9767848.06708  22970034.75108  22970036.34108
   -784068.60608   -610946.61908  23838046.83408  23838046.82508
 -11222070.49508  -8744462.14408  22404320.17708  22404320.19608
 -12469228.99108  -9716269.57308  21457313.31708  21457313.16608
 94 01 30 02 23 30.0000000  0  7 02 04 07 13 19 26 27
 -19797297.93309 -15426447.28608  20957480.66309  20957480.88008
    -97351.98206    -75858.58306  24965189.88706  24965191.39906
 -25879430.10308 -20165770.18809  20367634.37008  20367634.45509
 -12643744.62808  -9852256.14208  22949421.46608  22949423.05108
   -690755.77908   -538235.30508  23855803.43308  23855803.55008
 -11229877.12308  -8750545.21408  22402834.63908  22402834.76008
 -12395723.06208  -9658992.23308  21471301.01408  21471300.91508
 94 01 30 02 24 00.0000000  0  7 02 04 07 13 19 26 27
 -19785519.41409 -15417269.20608  20959722.09309  20959722.28608
   -194853.97906   -151834.01706  24946636.11006  24946637.57706
 -25893809.68208 -20176975.03709  20364898.11808  20364898.15709
 -12751802.79008  -9936457.27508  22928858.74308  22928860.28808
   -597268.17308   -465387.84408  23873593.59908  23873593.61208
 -11237186.79708  -8756241.05608  22401443.79908  22401443.76208
 -12321820.45508  -9601405.79508  21485364.24008  21485364.07108
 94 01 30 02 24 30.0000000  0  7 02 04 07 13 19 26 27
 -19773570.80509 -15407958.58908  20961995.78109  20961995.85708
   -292500.28406   -227921.88407  24928054.51506  24928056.29507
 -25907699.44408 -20187798.21209  20362254.91108  20362254.88109
 -12859588.77108 -10020446.31308  22908347.57308  22908349.18708
   -503592.79908   -392394.07708  23891419.64508  23891419.60508
 -11243987.02708  -8761539.93208  22400149.67108  22400149.71308
 -12247527.91808  -9543515.52408  21499501.79608  21499501.51808
 94 01 30 02 25 00.0000000  0  7 02 04 07 13 19 26 27
 -19761444.38909 -15398509.42108  20964303.31409  20964303.34608
   -390299.29107   -304128.71307  24909443.74207  24909445.26807
 -25921082.99708 -20198226.93809  20359708.19508  20359708.13309
 -12967088.60308 -10104212.37408  22887891.09608  22887892.61808
   -409704.73808   -319234.56608  23909285.83808  23909286.23408
 -11250257.50408  -8766426.01008  22398956.32008  22398956.41208
 -12172852.83908  -9485327.16408  21513711.73408  21513711.65308
 94 01 30 02 25 30.0000000  0  7 02 04 07 13 19 26 27
 -19749158.31109 -15388935.84708  20966641.30709  20966641.40408
   -488240.64207   -380446.47407  24890806.35307  24890807.20407
 -25933960.63008 -20208261.44109  20357257.49508  20357257.54609
 -13074309.73508 -10187761.27208  22867487.64308  22867489.00008
   -315630.04208   -245929.64608  23927187.70708  23927188.08508
 -11255998.58408  -8770899.56808  22397863.77108  22397863.80608
 -12097831.29508  -9426868.83508  21527987.89408  21527987.88308
 94 01 30 02 26 00.0000000  0  7 02 04 07 13 19 26 27
 -19736697.80209 -15379226.34808  20969012.56209  20969012.56208
   -586292.19107   -456850.09507  24872147.43907  24872148.53407
 -25946293.86108 -20217871.73509  20354910.40908  20354910.48509
 -13181227.83008 -10271074.03708  22847141.87708  22847143.18608
   -221345.82808   -172461.45708  23945129.33908  23945129.89108
 -11261169.93908  -8774929.17708  22396879.59408  22396879.67008
 -12022450.02108  -9368130.19208  21542332.38908  21542332.54308
 94 01 30 02 26 30.0000000  0  7 02 04 07 13 19 26 27
 -19724089.77909 -15369401.91208  20971411.66509  20971411.79508
   -684468.80707   -533351.20507  24853465.36707  24853466.02707
 -25958100.72908 -20227071.87809  20352663.62508  20352663.68109
 -13287855.06408 -10354160.14308  22826851.14708  22826852.63408
   -126866.61808    -98841.28408  23963108.58508  23963108.87608
 -11265780.81308  -8778522.05308  22396002.33708  22396002.24908
 -11946714.20008  -9309115.28208  21556744.43308  21556744.48108
 94 01 30 02 27 00.0000000  0  7 02 04 07 13 19 26 27
 -19711342.96609 -15359469.31808  20973837.31109  20973837.40208
   -782748.73507   -609932.77507  24834763.05907  24834764.23007
 -25969390.60408 -20235869.16909  20350515.22808  20350515.31009
 -13394189.24408 -10437017.89708  22806616.47408  22806617.90708
    -32215.49408    -25087.14108  23981120.30608  23981120.64408
 -11269843.68508  -8781687.90908  22395228.97508  22395228.91808
 -11870607.79808  -9249811.59808  21571227.10208  21571227.11108
 94 01 30 02 27 30.0000000  0  7 02 04 07 13 19 26 27
 -19698450.46509 -15349423.20008  20976290.53509  20976290.69908
   -881100.13707   -686570.06307  24816047.26107  24816048.20707
 -25980157.16808 -20244258.68309  20348466.54608  20348466.60009
 -13500214.09808 -10519634.62408  22786440.53208  22786441.92508
     62619.95908     48810.61608  23999166.96408  23999167.38008
 -11273354.01008  -8784423.21508  22394561.09008  22394560.97608
 -11794106.07908  -9190199.87708  21585784.95308  21585785.10508
 94 01 30 02 28 00.0000000  0  7 02 04 07 13 19 26 27
 -19685398.19409 -15339252.58208  20978774.31509  20978774.51108
   -979548.08007   -763282.58307  24797312.91307  24797314.28607
 -25990412.41208 -20252249.76509  20346515.03808  20346515.07009
 -13605927.50408 -10602008.67208  22766323.86808  22766325.35108
    157654.82008    122863.73208  24017251.57708  24017252.05608
 -11276317.80708  -8786732.65108  22393997.07108  22393997.12808
 -11717189.67408  -9130265.02908  21600421.65508  21600421.76308
 94 01 30 02 28 30.0000000  0  7 02 04 07 13 19 26 27
 -19672173.49609 -15328947.61508  20981290.74809  20981291.10008
  -1078090.63308   -840068.85107  24778560.71608  24778562.18807
 -26000171.32408 -20259854.09609  20344658.03608  20344658.00309
 -13711328.89908 -10684139.57708  22746266.40608  22746268.09308
    252892.50008    197074.89208  24035374.81308  24035375.43608
 -11278741.74608  -8788621.41208  22393535.80908  22393535.87508
 -11639864.14408  -9070011.37908  21615136.17208  21615136.14608
 94 01 30 02 29 00.0000000  0  7 02 04 07 13 19 26 27
 -19658746.62209 -15318485.10508  20983845.88809  20983846.04208
  -1176715.25708   -916919.08607  24759793.11408  24759794.34907
 -26009414.01108 -20267056.17309  20342899.13908  20342899.06209
 -13816404.73308 -10766016.80308  22726271.12508  22726272.79708
    348352.63608    271459.39708  24053539.95208  24053540.88508
 -11280606.03108  -8790074.08208  22393180.81308  22393180.99108
 -11562135.28508  -9009443.44608  21629927.50108  21629927.57308
 94 01 30 02 29 30.0000000  0  7 02 04 07 13 19 26 27
 -19645134.30309 -15307878.08908  20986436.37909  20986436.42108
  -1275472.18708   -993872.42408  24740999.92108  24741001.58008
 -26018179.94608 -20273886.75409  20341231.01408  20341230.96509
 -13921188.44208 -10847666.40608  22706331.45808  22706333.03708
    444012.32008    345999.38808  24071743.34908  24071744.20808
 -11281949.46608  -8791120.90008  22392925.10308  22392925.27008
 -11484043.06908  -8948592.38408  21644788.16608  21644788.15008
 94 01 30 02 30 00.0000000  0  7 02 04 07 13 19 26 27
 -19631326.07509 -15297118.42008  20989063.95109  20989063.95408
  -1374359.36508  -1070927.25808  24722182.33008  24722183.80108
 -26026462.89008 -20280340.97509  20339654.75508  20339654.73509
 -14025675.51908 -10929084.86308  22686448.18008  22686449.66208
    539855.98208    420682.72808  24089981.63208  24089982.45008
 -11282767.96708  -8791758.68608  22392769.63608  22392769.56508
 -11405585.26408  -8887456.44808  21659718.16608  21659718.06908
 94 01 30 02 30 30.0000000  0  7 02 04 07 13 19 26 27
 -19617324.76109 -15286208.29508  20991728.28909  20991728.32508
  -1473348.44408  -1148061.48008  24703345.33308  24703346.51008
 -26034253.64408 -20286411.67209  20338172.14308  20338172.07609
 -14129858.34908 -11010266.24908  22666622.88708  22666624.32008
    635877.79508    495504.90608  24108253.62408  24108254.27208
 -11283053.38808  -8791981.08408  22392715.20808  22392715.33908
 -11326778.91508  -8826048.90808  21674714.57008  21674714.29908
 94 01 30 02 31 00.0000000  0  7 02 04 07 13 19 26 27
 -19603147.50109 -15275161.06808  20994426.25009  20994426.17908
  -1572438.74608  -1225274.57208  24684488.88408  24684490.20308
 -26041556.12308 -20292101.89709  20336782.66308  20336782.59209
 -14233735.16708 -11091209.18308  22646855.85208  22646857.16308
    732066.07007    570456.80307  24126557.42407  24126557.93407
 -11282807.85608  -8791789.73908  22392761.83008  22392762.08808
 -11247616.19608  -8764363.67908  21689778.69308  21689778.39208
 94 01 30 02 31 30.0000000  0  7 02 04 07 13 19 26 27
 -19588823.77909 -15263999.71208  20997151.87709  20997151.79708
  -1671637.67708  -1302572.32508  24665612.00808  24665612.95008
 -26048387.01708 -20297424.65309  20335482.75808  20335482.71709
 -14337314.99908 -11171920.70008  22627145.27808  22627146.63108
    828398.24807    645520.82207  24144888.41107  24144889.42507
 -11282046.02108  -8791196.07908  22392906.89408  22392907.00408
 -11168099.40008  -8702402.54408  21704910.34808  21704909.95708
 94 01 30 02 32 00.0000000  0  7 02 04 07 13 19 26 27
 -19574365.67509 -15252733.64108  20999903.09809  20999903.17908
  -1770929.29408  -1379942.28708  24646717.44808  24646718.20608
 -26054727.53208 -20302365.29709  20334276.22408  20334276.30809
 -14440582.44808 -11252388.80308  22607494.18808  22607495.48308
    924879.88907    720701.29807  24163248.25107  24163249.60307
 -11280750.13808  -8790186.29608  22393153.70908  22393153.56608
 -11088222.73208  -8640160.98708  21720110.25408  21720110.03508
 94 01 30 02 32 30.0000000  0  7 02 04 07 13 19 26 27
 -19559785.82609 -15241372.71108  21002677.58109  21002677.61108
  -1870317.77908  -1457387.73608  24627804.53508  24627805.19308
 -26060597.27008 -20306939.10209  20333159.19708  20333159.27809
 -14543540.64908 -11332615.93608  22587901.65608  22587903.22408
   1021512.03408    795999.06107  24181637.20808  24181637.85707
 -11278934.45208  -8788771.47708  22393499.18008  22393499.05308
 -11007994.64608  -8577645.60208  21735377.19008  21735377.18308
 94 01 30 02 33 00.0000000  0  7 02 04 07 13 19 26 27
 -19545069.54809 -15229905.46708  21005477.97909  21005478.04808
  -1969789.33908  -1534897.92508  24608875.63908  24608876.18008
 -26065986.18708 -20311138.24109  20332133.77908  20332133.75909
 -14646167.83608 -11412585.13008  22568372.44008  22568373.84008
   1118311.29408    871427.05307  24200057.33308  24200058.10907
 -11276584.71208  -8786940.49608  22393946.13008  22393946.23108
 -10927384.77208  -8514832.71908  21750716.78408  21750716.78008
 94 01 30 02 33 30.0000000  0  7 02 04 07 13 19 26 27
 -19530215.48909 -15218330.87008  21008304.62009  21008304.57408
  -2069344.17908  -1612473.00508  24589930.75208  24589931.51308
 -26070889.74708 -20314959.17609  20331200.63508  20331200.64609
 -14748457.73508 -11492291.50608  22548907.32008  22548908.54608
   1215277.35708    946985.01908  24218509.15008  24218510.50708
 -11273708.78708  -8784699.49008  22394493.53308  22394493.58408
 -10846384.82108  -8451715.88508  21766130.53008  21766130.69308
 94 01 30 02 34 00.0000000  0  7 02 04 07 13 19 26 27
 -19515186.91309 -15206620.27208  21011164.41709  21011164.41408
  -2168958.56508  -1690094.48708  24570974.77508  24570975.44008
 -26075301.25108 -20318396.69309  20330361.16808  20330361.12709
 -14850388.62108 -11571718.12808  22529510.53808  22529511.72108
   1312433.31108   1022690.96108  24236997.66308  24236998.91708
 -11270290.28208  -8782035.70008  22395144.13708  22395143.90208
 -10764977.66608  -8388281.75208  21781621.81908  21781621.95608
 94 01 30 02 34 30.0000000  0  7 02 04 07 13 19 26 27
 -19499971.39409 -15194764.01408  21014059.95109  21014059.99508
  -2268630.32308  -1767760.66608  24552007.82508  24552008.31908
 -26079226.74708 -20321455.50609  20329614.05408  20329614.04609
 -14951965.95608 -11650869.26108  22510181.02508  22510182.16208
   1409781.37508   1098546.59308  24255522.75208  24255523.96608
 -11266334.84308  -8778953.54108  22395896.74508  22395896.39808
 -10683169.63108  -8324535.25208  21797189.46308  21797189.44408
 94 01 30 02 35 00.0000000  0  7 02 04 07 13 19 26 27
 -19484567.75209 -15182761.16208  21016991.16109  21016991.20208
  -2368371.72708  -1845481.14308  24533027.54508  24533028.03808
 -26082654.13108 -20324126.17709  20328961.77608  20328961.72209
 -15053193.99308 -11729748.21808  22490917.93808  22490919.13008
   1507312.29108   1174544.70208  24274082.00308  24274083.33508
 -11261839.55608  -8775450.72808  22396752.15508  22396751.82808
 -10600966.93008  -8260481.20808  21812832.30608  21812831.85308
 94 01 30 02 35 30.0000000  0  7 02 04 07 13 19 26 27
 -19468970.73809 -15170607.63108  21019958.98809  21019959.02508
  -2468195.53408  -1923265.83108  24514031.70808  24514032.18308
 -26085584.72108 -20326409.73809  20328404.12908  20328404.13209
 -15154075.65408 -11808357.26408  22471720.53708  22471721.85008
   1605023.35308   1250683.19208  24292675.64208  24292677.22508
 -11256804.70208  -8771527.46008  22397710.19808  22397710.27108
 -10518387.58608  -8196133.66608  21828546.67708  21828546.13808
 94 01 30 02 36 00.0000000  0  7 02 04 07 13 19 26 27
 -19453176.70409 -15158300.58408  21022964.55109  21022964.54008
  -2568112.50108  -2001123.09908  24495017.77708  24495018.53608
 -26088025.83608 -20328311.88709  20327939.56708  20327939.51409
 -15254627.08108 -11886708.98408  22452586.23808  22452587.63108
   1702905.03608   1326954.63008  24311302.02408  24311303.61508
 -11251235.39108  -8767187.72108  22398770.10208  22398770.24708
 -10435468.25008  -8131521.20008  21844325.67508  21844325.20708
 94 01 30 02 36 30.0000000  0  7 02 04 07 13 19 26 27
 -19437184.23009 -15145838.90508  21026007.68309  21026007.84808
  -2668104.87808  -2079039.15008  24475989.80108  24475990.36208
 -26089958.87708 -20329818.13209  20327571.71308  20327571.68809
 -15354836.28408 -11964794.03708  22433516.83308  22433518.37208
   1800959.37508   1403360.62008  24329961.19508  24329962.56908
 -11245126.74708  -8762427.72708  22399932.62708  22399932.64808
 -10352209.76608  -8066644.46308  21860169.08408  21860168.86108
 94 01 30 02 37 00.0000000  0  7 02 04 07 13 19 26 27
 -19421019.08709 -15133242.67908  21029083.72009  21029083.90008
  -2768188.94607  -2157026.63708  24456944.10207  24456945.04208
 -26091405.67808 -20330945.48909  20327296.38008  20327296.35309
 -15454709.56508 -12042617.33708  22414511.47608  22414513.00008
   1899161.19808   1479881.51008  24348648.63608  24348649.38008
 -11238494.92208  -8757260.05808  22401194.54308  22401194.42808
 -10268630.46908  -8001517.74708  21876073.64408  21876073.51408
 94 01 30 02 37 30.0000000  0  7 02 04 07 13 19 26 27
 -19404682.04209 -15120512.50708  21032192.48109  21032192.59008
  -2868344.99307  -2235070.21508  24437885.03807  24437885.91108
 -26092375.13508 -20331700.89109  20327111.88608  20327111.87009
 -15554241.96708 -12120175.02608  22395571.18008  22395572.76408
   1997507.49208   1556514.97208  24367363.13608  24367363.96408
 -11231346.59708  -8751689.92508  22402554.89008  22402554.74208
 -10184730.36908  -7936141.05108  21892039.29208  21892039.26808
 94 01 30 02 38 00.0000000  0  7 02 04 07 13 19 26 27
 -19388183.60009 -15107656.56508  21035331.97409  21035332.11708
  -2968551.80507  -2313153.36408  24418816.26407  24418816.92408
 -26092863.47608 -20332081.39609  20327019.00508  20327018.98409
 -15653429.01508 -12197463.59908  22376696.57508  22376698.10408
   2095995.91408   1633259.20008  24386104.71708  24386106.02108
 -11223690.29608  -8745723.96908  22404011.81008  22404011.75808
 -10100503.61308  -7870509.82708  21908066.98108  21908067.02808
 94 01 30 02 38 30.0000000  0  7 02 04 07 13 19 26 27
 -19371549.99208 -15094695.30708  21038497.28108  21038497.38408
  -3068808.09107  -2391275.07408  24399738.20007  24399738.80208
 -26092879.06608 -20332093.52509  20327016.05908  20327016.00409
 -15752262.45908 -12274476.64408  22357889.27008  22357890.51108
   2194627.14808   1710114.71308  24404873.98608  24404874.97808
 -11215526.37408  -8739362.45908  22405565.26608  22405565.27608
 -10015946.55408  -7804621.21408  21924157.67708  21924157.63108
 94 01 30 02 39 00.0000000  0  7 02 04 07 13 19 26 27
 -19354789.13509 -15081634.88408  21041686.77109  21041686.99008
  -3169125.27708  -2469444.21908  24380648.54508  24380649.12208
 -26092411.07408 -20331728.84009  20327105.04108  20327105.02609
 -15850738.23408 -12351210.98708  22339149.82608  22339151.23108
   2293410.03107   1787088.36608  24423671.85707  24423672.40708
 -11206835.03608  -8732589.97708  22407219.14808  22407219.07508
  -9931044.74408  -7738463.97208  21940313.84008  21940314.12108
 94 01 30 02 39 30.0000000  0  7 02 04 07 13 19 26 27
 -19337887.35309 -15068464.65508  21044903.12509  21044903.16808
  -3269495.10908  -2547654.39708  24361548.74908  24361549.25108
 -26091448.75908 -20330978.97009  20327288.17908  20327288.09209
 -15948850.00908 -12427661.69208  22320479.91708  22320481.32208
   2392366.47607   1864197.25608  24442501.97307  24442503.42408
 -11197602.91708  -8725396.11708  22408976.15008  22408975.77508
  -9845787.30908  -7672029.62408  21956537.96808  21956538.06708
 94 01 30 02 40 00.0000000  0  7 02 04 07 13 19 26 27
 -19320855.00009 -15055192.67908  21048144.32309  21048144.33008
  -3369923.26908  -2625910.04808  24342437.75708  24342438.40308
 -26089993.06508 -20329844.64909  20327565.12208  20327564.97709
 -16046598.91908 -12503829.65108  22301878.82008  22301880.16208
   2491505.78507   1941448.63708  24461367.75207  24461369.28108
 -11187835.31608  -8717785.00508  22410834.83208  22410834.39808
  -9760181.03208  -7605323.44108  21972828.58908  21972828.37808
 94 01 30 02 40 30.0000000  0  7 02 04 07 13 19 26 27
 -19303672.42509 -15041803.64408  21051414.04509  21051414.11808
  -3470404.36608  -2704206.93808  24323316.81208  24323317.49808
 -26088039.87608 -20328322.66709  20327936.82908  20327936.75809
 -16143971.96908 -12579704.71908  22283349.35808  22283350.61908
   2590831.52707   2018845.29008  24480268.72507  24480270.05008
 -11177513.64008  -8709742.13608  22412798.83008  22412798.63808
  -9674203.86808  -7538328.25208  21989189.39408  21989189.45808
 94 01 30 02 41 00.0000000  0  7 02 04 07 13 19 26 27
 -19286308.48109 -15028273.28708  21054718.33409  21054718.36608
  -3570918.22708  -2782529.36308  24304189.68208  24304190.36108
 -26085590.13808 -20326413.76309  20328402.93008  20328402.93509
 -16240963.41808 -12655282.44708  22264892.61108  22264893.73008
   2690331.09008   2096377.38408  24499203.43708  24499203.97208
 -11166645.69308  -8701273.59508  22414866.88108  22414866.83008
  -9587841.14208  -7471032.64208  22005623.79008  22005623.77808
 94 01 30 02 41 30.0000000  0  7 02 04 07 13 19 26 27
 -19268771.09209 -15014607.77608  21058055.68609  21058055.62608
  -3671466.72008  -2860878.77808  24285055.64008  24285056.53508
 -26082688.25008 -20324152.53609  20328955.02408  20328955.05209
 -16337592.78208 -12730578.02708  22246504.50108  22246505.53208
   2789973.52408   2174020.84308  24518164.98308  24518165.34208
 -11155287.83808  -8692423.30808  22417028.21708  22417028.09608
  -9501136.73708  -7403470.76908  22022123.02308  22022123.01108
 94 01 30 02 42 00.0000000  0  7 02 04 07 13 19 26 27
 -19251069.33509 -15000814.19008  21061424.31409  21061424.17708
  -3772048.57308  -2939254.20508  24265915.39808  24265916.43608
 -26079351.95208 -20321552.80709  20329589.94008  20329589.85709
 -16433865.66808 -12805595.83508  22228184.38308  22228185.60108
   2889730.95208   2251753.88808  24537148.43708  24537149.07008
 -11143449.39608  -8683198.55508  22419281.08908  22419280.70708
  -9414094.60608  -7335645.72708  22038686.33308  22038686.40508
 94 01 30 02 42 30.0000000  0  7 02 04 07 13 19 26 27
 -19233177.96409 -14986872.85708  21064828.85509  21064828.70308
  -3872644.95708  -3017640.93508  24246772.66808  24246773.43008
 -26075571.55208 -20318607.02409  20330309.29908  20330309.28209
 -16529759.41608 -12880318.20608  22209936.26408  22209937.55108
   2989608.04908   2329580.21407  24556154.41308  24556154.79507
 -11131099.06908  -8673574.92808  22421631.29808  22421630.93508
  -9326694.34308  -7267541.62708  22055317.95808  22055318.06308
 94 01 30 02 43 00.0000000  0  7 02 04 07 13 19 26 27
 -19215107.50009 -14972791.96208  21068267.58809  21068267.33508
  -3973245.34508  -3096030.78008  24227628.93708  24227629.89808
 -26071345.14008 -20315313.70109  20331113.65208  20331113.67309
 -16625269.19808 -12954741.38908  22191761.42108  22191762.61208
   3089615.99008   2407508.49707  24575185.19308  24575185.20707
 -11118241.34908  -8663555.91208  22424077.99908  22424077.73008
  -9238955.13108  -7199173.41108  22072014.00308  22072014.28908
 94 01 30 02 43 30.0000000  0  7 02 04 07 13 19 26 27
 -19196882.81409 -14958590.89608  21071735.54409  21071735.42808
  -4073861.30608  -3174432.77408  24208482.37808  24208483.16208
 -26066676.14608 -20311675.50609  20332002.03508  20332002.09109
 -16720400.00808 -13028869.25708  22173658.65508  22173659.78208
   3189772.44808   2485552.50607  24594244.49708  24594244.21007
 -11104866.67808  -8653134.06808  22426623.23208  22426622.95408
  -9150895.09608  -7130555.21308  22088771.33808  22088771.51108
 94 01 30 02 44 00.0000000  0  7 02 04 07 13 19 26 27
 -19178503.46709 -14944269.32108  21075232.83409  21075232.81108
  -4174486.09608  -3252841.64808  24189334.06608  24189334.73708
 -26061543.77608 -20307676.23809  20332978.72108  20332978.76409
 -16815140.75408 -13102693.19208  22155630.15608  22155630.96308
   3290085.46808   2563718.51807  24613333.83008  24613333.45507
 -11090949.38508  -8642289.41708  22429271.67808  22429271.27108
  -9062497.43408  -7061673.92208  22105593.08408  22105593.24208
 94 01 30 02 44 30.0000000  0  7 02 04 07 13 19 26 27
 -19159982.92109 -14929837.71308  21078757.33309  21078757.06308
  -4275138.94708  -3331272.38508  24170180.42808  24170181.19008
 -26055952.29508 -20303319.22109  20334042.59408  20334042.69109
 -16909507.73008 -13176225.87008  22137672.65108  22137673.67708
   3390540.17808   2641994.94507  24632449.82608  24632449.41507
 -11076524.73008  -8631049.42808  22432016.48008  22432016.01008
  -8973803.15508  -6992561.50008  22122471.26208  22122471.09908
 94 01 30 02 45 00.0000000  0  7 02 04 07 13 19 26 27
 -19141317.79709 -14915293.45308  21082309.20909  21082309.03608
  -4375823.26408  -3409727.64508  24151020.71308  24151021.47408
 -26049886.98908 -20298592.99209  20335196.86208  20335196.91109
 -17003499.46908 -13249466.13808  22119786.46008  22119787.46108
   3491147.75908   2720390.48807  24651594.43108  24651593.84507
 -11061596.25408  -8619416.84708  22434857.07408  22434856.78208
  -8884819.23408  -6923223.37908  22139404.28208  22139404.38608
 94 01 30 02 45 30.0000000  0  7 02 04 07 13 19 26 27
 -19122500.57109 -14900630.67108  21085889.87309  21085889.80608
  -4476559.04508  -3488223.00908  24131851.13808  24131851.79508
 -26043343.78808 -20293494.37809  20336442.04008  20336441.99509
 -17097125.29508 -13322421.29008  22101970.01008  22101971.03108
   3591888.38108   2798889.68107  24670764.67208  24670764.75607
 -11046174.75408  -8607400.08408  22437791.74008  22437791.57408
  -8795549.47608  -6853662.53408  22156391.79508  22156391.75508
 94 01 30 02 46 00.0000000  0  7 02 04 07 13 19 26 27
 -19103517.03209 -14885838.28508  21089502.25909  21089502.31308
  -4577355.73308  -3566765.83108  24112670.24508  24112670.60508
 -26036311.30708 -20288014.50409  20337780.23408  20337780.23909
 -17190378.53808 -13395086.10608  22084224.36508  22084225.61508
   3692732.88208   2877469.81408  24689954.81508  24689955.34908
 -11030271.88608  -8595008.22508  22440817.93508  22440817.86008
  -8705988.65808  -6783874.88708  22173434.61108  22173434.44108
 94 01 30 02 46 30.0000000  0  7 02 04 07 13 19 26 27
 -19084351.73509 -14870904.28508  21093149.32109  21093149.44408
  -4678206.34308  -3645350.67407  24093478.94708  24093479.16707
 -26028776.58808 -20282143.27709  20339214.03108  20339214.04609
 -17283244.00608 -13467448.75808  22066552.71008  22066553.71208
   3793687.33608   2956135.62508  24709165.77308  24709166.52908
 -11013874.31708  -8582230.89208  22443938.22208  22443938.22308
  -8616110.95508  -6713840.32308  22190537.83308  22190537.51108
 94 01 30 02 47 00.0000000  0  7 02 04 07 13 19 26 27
 -19065007.30909 -14855830.69208  21096830.59409  21096830.57108
  -4779098.56708  -3723967.95307  24074280.07208  24074280.13207
 -26020751.52308 -20275889.96409  20340741.13408  20340741.19909
 -17375711.10508 -13539501.00808  22048956.89408  22048957.87208
   3894750.62508   3034886.24308  24728397.33708  24728397.98908
 -10996965.90108  -8569055.49608  22447155.75908  22447155.63208
  -8525886.03608  -6643535.19808  22207706.66408  22207706.71508
 94 01 30 02 47 30.0000000  0  7 02 04 07 13 19 26 27
 -19045482.60709 -14840616.63108  21100545.98309  21100546.04908
  -4880014.33208  -3802603.60307  24055076.63008  24055076.45207
 -26012254.95208 -20269269.23909  20342357.90208  20342357.97009
 -17467773.32608 -13611237.75908  22031438.03708  22031439.05508
   3995907.26408   3113709.60008  24747646.32608  24747647.48308
 -10979554.02508  -8555487.80408  22450469.14408  22450469.02208
  -8435296.71208  -6572946.12208  22224945.23408  22224945.30508
 94 01 30 02 48 00.0000000  0  7 02 04 07 13 19 26 27
 -19025779.73609 -14825263.73008  21104295.30209  21104295.39108
  -4980921.44608  -3881232.50907  24035874.52808  24035874.37807
 -26003289.03708 -20262282.79409  20344064.11408  20344064.12509
 -17559409.86708 -13682642.81908  22014000.20208  22014001.10608
   4097182.64208   3192625.46808  24766918.16508  24766919.39008
 -10961617.99508  -8541511.67908  22453882.37308  22453882.23808
  -8344317.31408  -6502053.08408  22242258.16108  22242258.11108
 94 01 30 02 48 30.0000000  0  7 02 04 07 13 19 26 27
 -19005891.09909 -14809766.08408  21108079.95709  21108080.21608
  -5081785.98008  -3959828.22408  24016680.82208  24016680.49508
 -25993862.62108 -20254937.51609  20345857.91808  20345857.88109
 -17650613.01108 -13753710.16808  21996644.84008  21996645.82708
   4198613.55708   3271662.52508  24786220.03708  24786220.93108
 -10943140.00308  -8527113.24008  22457398.36908  22457398.50808
  -8252943.61608  -6430852.81208  22259645.81208  22259645.93208
 94 01 30 02 49 00.0000000  0  7 02 04 07 13 19 26 27
 -18985815.40009 -14794122.66708  21111900.21509  21111900.52308
  -5182599.22408  -4038383.98608  23997496.48308  23997496.29508
 -25983983.40208 -20247239.40509  20347737.84308  20347737.73109
 -17741377.31308 -13824435.55508  21979372.81508  21979373.87208
   4300210.07008   3350828.63308  24805553.08808  24805554.05108
 -10924115.39208  -8512288.84408  22461018.30208  22461018.66108
  -8161197.29608  -6359362.19408  22277104.58108  22277104.74708
 94 01 30 02 49 30.0000000  0  7 02 04 07 13 19 26 27
 -18965559.16309 -14778338.57508  21115754.62409  21115754.94508
  -5283378.88708  -4116913.56608  23978318.52808  23978318.71108
 -25973652.36908 -20239189.23309  20349703.75208  20349703.59109
 -17831715.40908 -13894828.83808  21962181.93508  21962183.09708
   4401973.14008   3430124.52708  24824917.93508  24824918.95508
 -10904569.69508  -8497058.42108  22464738.20408  22464738.07908
  -8069121.89608  -6287615.13608  22294625.98308  22294626.06008
 94 01 30 02 50 00.0000000  0  7 02 04 07 13 19 26 27
 -18945139.28609 -14762426.97108  21119640.40209  21119640.71508
  -5384146.45708  -4195433.71408  23959142.82608  23959143.24608
 -25962868.74208 -20230786.39309  20351755.90008  20351755.73209
 -17921642.72408 -13964902.02808  21945069.32908  21945070.51308
   4503893.35608   3509542.88708  24844312.74508  24844313.74408
 -10884521.25808  -8481436.28208  22468553.31008  22468553.19808
  -7976759.39308  -6215644.36708  22312201.93308  22312202.09708
 94 01 30 02 50 30.0000000  0  6 02 04 07 13 19 27
 -18924537.27009 -14746373.44208  21123560.94909  21123561.06708
  -5484898.91208  -4273942.08908  23939970.45808  23939970.65708
 -25951634.15508 -20222032.15309  20353893.65808  20353893.52709
 -18011154.42908 -14034651.37008  21928035.79608  21928036.84208
   4605959.36208   3589074.84207  24863735.26508  24863736.04807
  -7884119.58308  -6143457.50108  22329831.00708  22329830.93308
 94 01 30 02 51 00.0000000  0  6 02 04 07 13 19 27
 -18903756.75009 -14730180.81008  21127515.29109  21127515.35308
  -5585647.33108  -4352447.30908  23920798.62908  23920798.96708
 -25939934.94408 -20212915.87009  20356119.98008  20356119.78509
 -18100247.97208 -14104074.87308  21911081.74208  21911082.89808
   4708155.99707   3668708.57907  24883182.06407  24883182.90207
  -7791201.48508  -6071053.78808  22347512.79908  22347512.68308
 94 01 30 02 51 30.0000000  0  6 02 04 07 13 19 27
 -18882755.42508 -14713816.13308  21131511.57908  21131511.91108
  -5686338.26308  -4430907.73708  23901637.73208  23901638.08908
 -25927718.26308 -20203396.36309  20358444.73508  20358444.55409
 -18188879.41908 -14173138.29808  21894215.74308  21894216.72008
   4810516.48107   3748469.99907  24902660.48507  24902661.83607
  -7697946.43508  -5998387.51608  22365258.45108  22365258.53408
 94 01 30 02 52 00.0000000  0  6 02 04 07 13 19 27
 -18861595.45209 -14697327.83408  21135538.35309  21135538.47308
  -5787031.70308  -4509370.11308  23882476.28108  23882477.03508
 -25915048.39608 -20193523.72509  20360855.68708  20360855.55809
 -18277104.90908 -14241885.39708  21877427.04408  21877428.01208
   4912961.98907   3828297.67207  24922155.87007  24922156.97607
  -7604390.16908  -5925486.52808  22383061.66508  22383061.75208
 94 01 30 02 52 30.0000000  0  6 02 04 07 13 19 27
 -18840296.20409 -14680730.99908  21139591.63609  21139591.47208
  -5887756.27008  -4587856.75008  23863308.97008  23863309.74108
 -25901966.80208 -20183330.26009  20363344.92108  20363344.80009
 -18364946.83808 -14310333.61508  21860711.20908  21860712.26308
   5015463.87707   3908169.28307  24941661.21707  24941662.12707
  -7510550.47408  -5852364.69208  22400918.80208  22400918.91308
 94 01 30 02 53 00.0000000  0  6 02 04 07 13 19 27
 -18818858.31009 -14664026.13708  21143671.09109  21143670.98108
  -5988508.55108  -4666364.98308  23844136.53808  23844137.04508
 -25888460.72508 -20172806.02809  20365915.12208  20365914.95109
 -18452396.76908 -14378476.38108  21844069.98908  21844070.99208
   5118028.75607   3988089.97707  24961178.22507  24961179.08307
  -7416430.57108  -5779024.52108  22418829.26808  22418829.18908
 94 01 30 02 53 30.0000000  0  6 02 04 07 13 19 27
 -18797243.69809 -14647183.57508  21147784.25709  21147784.06408
  -6089246.15008  -4744861.78508  23824966.72608  23824967.32408
 -25874515.63708 -20161939.71409  20368568.78808  20368568.62409
 -18539413.58508 -14446281.66008  21827511.28408  21827512.22608
   5220691.26107   4068086.72307  24980713.95507  24980715.20507
  -7322000.82108  -5705442.90008  22436798.49708  22436798.39108
 94 01 30 02 54 00.0000000  0  6 02 04 07 13 19 27
 -18775436.33209 -14630190.80708  21151934.05009  21151933.68708
  -6189961.30308  -4823341.09908  23805801.46308  23805801.77608
 -25860130.86408 -20150730.78909  20371306.15708  20371305.94209
 -18625982.47108 -14513737.89908  21811037.63308  21811038.75908
   5323479.91507   4148181.80207  25000274.09007  25000275.31207
  -7227261.75708  -5631620.25508  22454826.80908  22454826.86508
 94 01 30 02 54 30.0000000  0  6 02 04 07 13 19 27
 -18753431.87309 -14613044.46808  21156121.38509  21156121.21708
  -6290629.82508  -4901784.07108  23786644.88108  23786644.99708
 -25845303.72908 -20139177.16409  20374127.68008  20374127.41709
 -18712095.31408 -14580838.77908  21794651.02708  21794652.09308
   5426414.00307   4228390.19807  25019862.22007  25019863.13707
  -7132215.74508  -5557558.42508  22472913.45608  22472913.49508
 94 01 30 02 55 00.0000000  0  6 02 04 07 13 19 27
 -18731268.99309 -14595774.68508  21160338.84309  21160338.64208
  -6391259.61908  -4980196.87008  23767495.65508  23767495.91308
 -25830050.82908 -20127291.77209  20377030.07308  20377029.82809
 -18797775.34608 -14647602.41208  21778346.51708  21778347.51608
   5529469.69807   4308693.32807  25039472.95507  25039473.99407
  -7036880.49808  -5483271.21808  22491055.17708  22491054.74608
 94 01 30 02 55 30.0000000  0  6 02 04 07 13 19 27
 -18708938.65109 -14578374.40508  21164587.99909  21164587.74908
  -6491836.90408  -5058568.74608  23748356.12708  23748356.54708
 -25814360.17308 -20115065.27109  20380015.91708  20380015.74509
 -18883013.37508 -14714021.62408  21762126.23608  21762127.24108
   5632657.14607   4389099.13707  25059108.80607  25059109.87307
  -6941236.22808  -5408743.21208  22509255.68008  22509255.11508
 94 01 30 02 56 00.0000000  0  6 02 04 07 13 19 27
 -18686464.15909 -14560861.80708  21168864.75509  21168864.64308
  -6592387.03808  -5136919.46408  23729221.83208  23729222.41308
 -25798249.61608 -20102511.57409  20383081.75308  20383081.59309
 -18967837.80808 -14780118.54808  21745984.66608  21745985.61008
   5735936.99106   4469576.95907  25078761.81506  25078762.90507
  -6845303.28108  -5333990.26208  22527510.98308  22527510.69308
 94 01 30 02 56 30.0000000  0  6 02 04 07 13 19 27
 -18663855.42809 -14543244.60308  21173167.03909  21173166.82208
  -6692901.99808  -5215242.76508  23710094.31908  23710095.23408
 -25781725.07408 -20089635.29109  20386226.26408  20386226.04609
 -19052252.91408 -14845896.52608  21729920.91108  21729921.86608
   5839279.82406   4550103.84706  25098427.58106  25098428.25806
  -6749088.94908  -5259018.06008  22545820.04108  22545819.81508
 94 01 30 02 57 00.0000000  0  5 02 04 07 13 27
 -18641101.39209 -14525514.17308  21177496.82309  21177496.71008
  -6793376.35808  -5293534.43808  23690974.86908  23690975.68208
 -25764774.30908 -20076426.88609  20389451.90308  20389451.72209
 -19136245.79008 -14911345.48808  21713937.64908  21713938.62308
  -6652583.33808  -5183818.88008  22564184.60608  22564184.00808
 94 01 30 02 57 30.0000000  0  6 02 04 07 13 26 27
 -18618177.27408 -14507651.22108  21181859.09208  21181858.93908
  -6893799.82308  -5371786.46308  23671864.89308  23671865.51408
 -25747380.86608 -20062873.53709  20392761.73708  20392761.55509
 -19219795.26808 -14976448.94508  21698038.61908  21698039.58108
        -0.18818        -0.41318  22536889.89818  22536889.90818
  -6555778.34308  -5108386.40508  22582605.79208  22582605.47008
 94 01 30 02 58 00.0000000  0  6 02 04 07 13 26 27
 -18595159.23608 -14489715.07308  21186239.27808  21186239.01308
  -6994227.47908  -5450041.74608  23652754.48608  23652754.65608
 -25729609.90708 -20049026.02209  20396143.42208  20396143.20709
 -19302960.04908 -15041252.64108  21682212.93808  21682213.91908
     27626.11708     21526.57308  22542147.04708  22542146.81508
  -6458740.81308  -5032772.75408  22601071.46508  22601071.05208
 94 01 30 02 58 30.0000000  0  7 02 04 07 09 13 26 27
 -18572008.47208 -14471675.50608  21190644.68908  21190644.62008
  -7094604.06608  -5528257.24708  23633653.26508  23633653.68608
 -25711395.36008 -20034832.85409  20399609.42908  20399609.26209
        -0.46718        -0.17217  24029137.59818  24029137.79117
 -19385683.20108 -15105712.20908  21666471.36608  21666472.16008
     55707.08608     43407.83508  22547490.42108  22547490.09308
  -6361428.73308  -4956945.16408  22619589.46608  22619588.84308
 94 01 30 02 59 00.0000000  0  7 02 04 07 09 13 26 27
 -18548625.41908 -14453454.93808  21195094.39108  21195094.28608
  -7194844.51708  -5606366.65708  23614578.05908  23614578.48308
 -25692640.43408 -20020218.61209  20403178.35908  20403178.21609
    -98013.66608    -76374.06507  24010486.31708  24010486.49607
 -19467865.43608 -15169750.28108  21650832.48608  21650833.25908
     84361.48908     65735.93308  22552943.50308  22552943.05908
  -6263748.29308  -4880830.53208  22638177.51808  22638177.08108
 94 01 30 02 59 30.0000000  0  7 02 04 07 09 13 26 27
 -18524981.95208 -14435031.44408  21199593.47008  21199593.50208
  -7294924.58208  -5684351.09208  23595533.53108  23595533.86108
 -25673333.02908 -20005173.86709  20406852.25208  20406852.12309
   -195823.63708   -152589.60408  23991873.94208  23991873.93208
 -19549484.34108 -15233349.39708  21635300.90108  21635301.70208
    113635.51008     88546.86508  22558514.19408  22558513.95908
  -6165690.08508  -4804421.54508  22656837.41308  22656837.18108
 94 01 30 03 00 00.0000000  0  7 02 04 07 09 13 26 27
 -18501246.27908 -14416536.10508  21204110.32208  21204110.34808
  -7395015.94608  -5762344.33108  23576486.76708  23576486.90708
 -25653648.07208 -19989834.92709  20410598.28408  20410598.16009
   -293599.76508   -228778.76408  23973267.57708  23973267.58408
 -19630709.50308 -15296641.69908  21619844.31908  21619845.00708
    143357.12308    111706.57908  22564169.88608  22564169.71808
  -6067436.34308  -4727860.18808  22675534.46808  22675534.34808
 94 01 30 03 00 30.0000000  0  7 02 04 07 09 13 26 27
 -18477348.57508 -14397914.50908  21208657.98808  21208657.96708
  -7495070.83908  -5840309.14908  23557447.16608  23557447.28508
 -25633555.60708 -19974178.44609  20414421.83308  20414421.65509
   -391281.68408   -304894.51708  23954679.32808  23954679.16208
 -19711492.39908 -15359589.37508  21604471.78408  21604472.52408
    173557.57008    135239.39808  22569916.78208  22569916.33708
  -5968953.06208  -4651119.96208  22694275.16808  22694275.13308
 94 01 30 03 01 00.0000000  0  7 02 04 07 09 13 26 27
 -18453251.07008 -14379137.21708  21213243.66708  21213243.66108
  -7595072.38308  -5918232.39208  23538417.29808  23538417.42508
 -25613064.37708 -19958211.24009  20418321.09708  20418320.97909
   -488846.14808   -380918.74708  23936113.26208  23936113.26008
 -19791814.25008 -15422177.79808  21589186.92408  21589187.67708
    204232.98608    159142.30508  22575754.20108  22575753.94108
  -5870223.93108  -4574188.17108  22713062.61908  22713062.77308
 94 01 30 03 01 30.0000000  0  7 02 04 07 09 13 26 27
 -18428948.63009 -14360200.24708  21217868.24909  21217868.29308
  -7695006.11108  -5996102.78708  23519400.49008  23519400.69308
 -25592166.54008 -19941927.19709  20422297.65008  20422297.63909
   -586303.19908   -456859.27208  23917567.49708  23917567.50508
 -19871668.29908 -15484401.69908  21573991.08408  21573992.05408
    235370.00308    183404.91708  22581679.12308  22581679.15608
  -5771251.15108  -4497066.53708  22731896.43908  22731896.57908
 94 01 30 03 02 00.0000000  0  7 02 04 07 09 13 26 27
 -18404421.89708 -14341088.50208  21222535.51208  21222535.55408
  -7794847.56908  -6073901.27708  23500401.13908  23500401.43108
 -25570831.55808 -19925302.52409  20426357.55908  20426357.48809
   -683641.16608   -532707.00708  23899044.59008  23899044.54908
 -19951036.48208 -15546247.00008  21558887.85508  21558888.67508
    266958.10608    208019.03808  22587690.13808  22587690.16208
  -5672013.94608  -4419738.86108  22750780.76508  22750780.73408
 94 01 30 03 02 30.0000000  0  7 02 04 07 09 13 26 27
 -18379670.37108 -14321801.59308  21227245.60608  21227245.46608
  -7894581.07408  -6151615.65208  23481422.53508  23481422.84008
 -25549066.47208 -19908342.70409  20430499.40308  20430499.32309
   -780865.31908   -608466.05208  23880543.63508  23880543.56208
 -20029919.26308 -15607714.07908  21543876.94608  21543877.61808
    299004.14508    232989.97508  22593788.47408  22593788.26108
  -5572496.06108  -4342192.47108  22769718.31908  22769718.31108
 94 01 30 03 03 00.0000000  0  7 02 04 07 09 13 26 27
 -18354707.78808 -14302350.21608  21231995.77308  21231995.73608
  -7994211.09108  -6229249.40108  23462463.57108  23462463.82308
 -25526867.92908 -19891045.12209  20434723.57608  20434723.53009
   -878011.81008   -684164.57808  23862057.10508  23862057.20208
 -20108323.57108 -15668808.30808  21528957.04208  21528957.85008
    331513.88308    258322.23608  22599974.84208  22599974.77108
  -5472695.17808  -4264425.56608  22788709.73308  22788709.76008
 94 01 30 03 03 30.0000000  0  7 02 04 07 09 13 26 27
 -18329570.52108 -14282762.73008  21236779.36408  21236779.18008
  -8093748.21608  -6306810.76208  23443522.52208  23443522.32108
 -25504248.27108 -19873419.39909  20439027.86308  20439027.80709
   -975111.36008   -759826.52608  23843579.85908  23843579.89308
 -20186273.08108 -15729548.15608  21514123.71708  21514124.46108
    364463.92008    283997.60308  22606244.86508  22606245.03908
  -5372628.43708  -4186451.47508  22807751.92808  22807751.66308
 94 01 30 03 04 00.0000000  0  7 02 04 07 09 13 26 27
 -18304245.00208 -14263028.54608  21241598.46608  21241598.38008
  -8193181.24208  -6384291.00408  23424601.09108  23424600.91208
 -25481200.05108 -19855459.73509  20443413.92008  20443413.85009
  -1072130.13208   -835425.53408  23825117.85508  23825118.01908
 -20263748.33808 -15789918.46208  21499380.64608  21499381.46808
    397883.48208    310038.82908  22612604.57208  22612604.45508
  -5272253.93008  -4108237.56808  22826852.57508  22826852.42108
 94 01 30 03 04 30.0000000  0  7 02 04 07 09 13 26 27
 -18278735.00708 -14243150.62808  21246452.85908  21246452.72008
  -8292508.30608  -6461688.67008  23405699.64008  23405699.68508
 -25457741.29408 -19837180.17109  20447878.05708  20447877.89109
  -1169060.19708   -910955.42308  23806672.74208  23806672.85208
 -20340738.08008 -15849910.44008  21484730.07808  21484730.82508
    431787.07508    336457.20808  22619056.44608  22619056.08008
  -5171561.47808  -4029775.93108  22846013.88408  22846013.34608
 94 01 30 03 05 00.0000000  0  7 02 04 07 09 13 26 27
 -18253088.95208 -14223166.67908  21251333.29008  21251332.91408
  -8391771.70808  -6539036.71908  23386810.10508  23386810.43208
 -25433897.87208 -19818600.86609  20452415.35408  20452415.17209
  -1265921.73008   -986431.91508  23788240.32008  23788240.62408
 -20417276.03708 -15909550.37808  21470165.37008  21470166.07908
    466114.77908    363206.06608  22625588.45908  22625588.40508
  -5070600.22808  -3951104.83508  22865226.40708  22865225.39508
 94 01 30 03 05 30.0000000  0  7 02 04 07 09 13 26 27
 -18227297.12908 -14203069.14208  21256241.15008  21256240.87408
  -8490954.69108  -6616322.11208  23367936.06708  23367936.23908
 -25409656.46908 -19799711.44509  20457028.29608  20457028.07609
  -1362664.42608  -1061815.80508  23769830.81208  23769831.19808
 -20493341.66608 -15968822.27208  21455690.58608  21455691.35408
    500876.42908    390293.06308  22632203.49408  22632203.49608
  -4969350.62008  -3872209.04008  22884493.29008  22884492.90208
 94 01 30 03 06 00.0000000  0  7 02 04 07 09 13 26 27
 -18201319.12508 -14182826.53808  21261184.57808  21261184.43008
  -8590024.48908  -6693519.31808  23349083.99808  23349083.82108
 -25384990.92308 -19780491.52709  20461721.87108  20461721.63209
  -1459245.83008  -1137074.02308  23751451.77408  23751452.10108
 -20568897.67608 -16027697.05908  21441312.67108  21441313.54008
    536105.09808    417743.97708  22638907.35408  22638907.45908
  -4867790.77208  -3793071.51608  22903819.72308  22903819.39808
 94 01 30 03 06 30.0000000  0  7 02 04 07 09 13 26 27
 -18175176.75808 -14162455.86308  21266159.45308  21266159.15808
  -8688993.72708  -6770638.18008  23330250.80108  23330250.44608
 -25359925.58808 -19760960.08509  20466491.67208  20466491.52709
  -1555692.38708  -1212227.15908  23733098.51608  23733098.84908
 -20643970.72308 -16086195.50908  21427026.75708  21427027.58608
    571760.09208    445527.10408  22645692.29708  22645692.12908
  -4765985.60208  -3713742.82808  22923192.68708  22923192.44508
 94 01 30 03 07 00.0000000  0  7 02 04 07 09 13 26 27
 -18148860.69408 -14141949.81908  21271167.22308  21271166.91608
  -8787857.27308  -6847674.67908  23311437.37308  23311437.37608
 -25334440.16708 -19741101.30309  20471341.46608  20471341.30109
  -1652001.74108  -1287273.38808  23714771.49808  23714771.71608
 -20718556.73508 -16144314.45608  21412833.41308  21412834.33008
    607843.47108    473644.01208  22652558.77008  22652558.33208
  -4663936.04408  -3634223.70108  22942611.96008  22942611.81308
 94 01 30 03 07 30.0000000  0  7 02 04 07 09 13 26 27
 -18122349.88509 -14121292.04208  21276212.26009  21276211.80008
  -8886617.02608  -6924630.28208  23292643.93808  23292644.30008
 -25308544.64708 -19720922.96409  20476269.20108  20476269.08609
  -1748186.75108  -1362222.72408  23696468.23308  23696468.35808
 -20792650.91908 -16202050.15708  21398733.82008  21398734.57808
    644375.01208    502110.14208  22659510.11608  22659509.96508
  -4561644.02908  -3554515.63708  22962077.26708  22962077.45108
 94 01 30 03 08 00.0000000  0  7 02 04 07 09 13 26 27
 -18095686.38808 -14100515.27308  21281286.00008  21281285.66208
  -8985320.76908  -7001542.24008  23273861.31708  23273861.64808
 -25282286.66908 -19700462.19009  20481265.86708  20481265.66909
  -1844308.53408  -1437122.78808  23678176.79308  23678176.94108
 -20866302.12808 -16259440.69208  21384718.48208  21384719.12608
    681296.35408    530880.03308  22666536.25008  22666536.17108
  -4459171.34708  -3474666.79808  22981577.03508  22981577.03808
 94 01 30 03 08 30.0000000  0  7 02 04 07 09 13 26 27
 -18068847.32508 -14079601.71908  21286393.10008  21286392.98008
  -9083933.71008  -7078383.45608  23255095.90808  23255095.92108
 -25255637.22708 -19679696.37809  20486337.08008  20486336.91309
  -1940332.43708  -1511946.57908  23659903.93308  23659904.18208
 -20939472.76308 -16316456.74708  21370794.48408  21370795.26108
    718641.05308    559979.80108  22673642.83608  22673642.53108
  -4356468.78508  -3394638.83408  23001120.69608  23001120.50408
 94 01 30 03 09 00.0000000  0  7 02 04 07 09 13 26 27
 -18041802.39808 -14058527.74208  21291539.61508  21291539.29308
  -9182419.97108  -7155125.96508  23236354.58208  23236354.52508
 -25228578.37008 -19658611.54109  20491486.08808  20491485.93109
  -2036230.80908  -1586672.55508  23641654.99708  23641655.28208
 -21012132.44908 -16373074.65908  21356967.71708  21356968.55808
    756440.17108    589433.65808  22680835.63608  22680835.29908
  -4253483.65508  -3314390.69108  23020718.33408  23020718.06208
 94 01 30 03 09 30.0000000  0  7 02 04 07 09 13 26 27
 -18014545.44108 -14037288.53408  21296726.38008  21296726.04608
  -9280751.58408  -7231747.97308  23217642.61308  23217642.61308
 -25201110.36608 -19637207.88609  20496713.15608  20496713.05609
  -2131979.76308  -1661282.09408  23623434.46408  23623434.75808
 -21084274.67808 -16429289.35908  21343239.43408  21343240.25508
    794701.06008    619247.34408  22688116.40408  22688116.26308
  -4150216.65608  -3233922.92308  23040369.10208  23040369.14108
 94 01 30 03 10 00.0000000  0  7 02 04 07 09 13 26 27
 -17987119.93308 -14015918.00108  21301945.20108  21301944.97408
  -9378935.87408  -7308255.18508  23198958.75408  23198958.68308
 -25173246.12108 -19615495.47809  20502015.48908  20502015.42709
  -2227576.60908  -1735773.11608  23605243.04608  23605243.21208
 -21155920.88608 -16485117.54608  21329605.51108  21329606.40908
    833399.39408    649401.88808  22695480.48108  22695480.38008
  -4046691.48508  -3153253.97908  23060069.31308  23060069.14208
 94 01 30 03 10 30.0000000  0  7 02 04 07 09 13 26 27
 -17959542.73308 -13994429.26608  21307192.99908  21307192.81508
  -9476984.27308  -7384656.51508  23180300.81508  23180300.78808
 -25145007.40308 -19593491.26609  20507389.03408  20507388.96309
  -2323034.81208  -1810156.10008  23587078.06508  23587078.27008
 -21227084.84908 -16540569.95808  21316063.44708  21316064.44608
    872536.77508    679898.54308  22702928.11608  22702927.95108
  -3942926.92708  -3072398.47908  23079815.19708  23079814.86708
 94 01 30 03 11 00.0000000  0  7 02 04 07 09 13 26 27
 -17931789.78708 -13972803.57808  21312474.07008  21312474.00408
  -9574895.15708  -7460950.68308  23161668.98108  23161668.87808
 -25116364.69108 -19571172.25709  20512839.65908  20512839.63709
  -2418347.26208  -1884425.50908  23568940.74808  23568940.86208
 -21297758.62008 -16595640.39808  21302614.77408  21302615.56308
    912122.85508    710744.83508  22710461.19608  22710461.04008
  -3838934.57608  -2991365.47608  23099604.36408  23099604.15808
 94 01 30 03 11 30.0000000  0  7 02 04 07 09 13 26 27
 -17903903.30908 -13951073.85408  21317780.80908  21317780.78808
  -9672719.84108  -7537177.67408  23143053.56608  23143053.56308
 -25087342.51408 -19548557.55709  20518362.39708  20518362.41609
  -2513541.45008  -1958602.76808  23550826.00908  23550826.03108
 -21367969.55508 -16650350.19908  21289254.12708  21289254.87908
    952123.48408    741914.17008  22718072.96208  22718072.76908
  -3734756.60908  -2910187.84408  23119428.55708  23119428.62508
 94 01 30 03 12 00.0000000  0  7 02 04 07 09 13 26 27
 -17875866.08608 -13929226.65108  21323116.14508  21323116.04908
  -9770467.70708  -7613344.79908  23124452.61808  23124452.92108
 -25057936.21908 -19525643.54809  20523958.25108  20523958.13809
  -2608623.01908  -2032692.26808  23532732.42308  23532732.43708
 -21437702.48208 -16704687.51208  21275984.35208  21275985.16208
    992539.97808    773407.54008  22725764.06408  22725763.66308
  -3630385.09208  -2828859.40408  23139289.64008  23139289.86608
 94 01 30 03 12 30.0000000  0  7 02 04 07 09 13 26 27
 -17847624.44408 -13907220.16308  21328490.38508  21328490.11808
  -9868104.04908  -7689425.03308  23105873.17408  23105873.12808
 -25028127.76408 -19502416.16609  20529630.62108  20529630.45809
  -2703575.08208  -2106680.85908  23514663.68108  23514663.64408
 -21506924.35308 -16758626.61208  21262811.84308  21262812.54708
   1033380.13308    805231.03008  22733535.53108  22733535.27508
  -3525779.93408  -2747348.90508  23159195.40308  23159195.53008
 94 01 30 03 13 00.0000000  0  7 02 04 07 09 13 26 27
 -17819158.44608 -13885038.85008  21333907.22508  21333907.24108
  -9965599.95108  -7765395.84008  23087320.20508  23087319.94608
 -24997904.56408 -19478865.60809  20535381.88308  20535381.72209
  -2798370.90908  -2180547.70708  23496624.70708  23496624.52808
 -21575614.96908 -16812151.73708  21249740.30008  21249741.28208
   1074642.18708    837383.29108  22741387.41808  22741387.43308
  -3420926.62408  -2665645.03508  23179148.31908  23179148.63308
 94 01 30 03 13 30.0000000  0  7 02 04 07 09 13 26 27
 -17790484.18508 -13862695.26908  21339363.70508  21339363.59808
 -10062951.03108  -7841253.78908  23068794.90508  23068794.66908
 -24967296.00208 -19455014.76609  20541206.44508  20541206.23909
  -2893018.87208  -2254299.33108  23478613.71308  23478613.54908
 -21643789.44608 -16865274.67808  21236767.17208  21236768.00508
   1116308.01308    869850.16908  22749316.37408  22749316.21308
  -3315839.99008  -2583759.36708  23199145.57608  23199146.04208
 94 01 30 03 14 00.0000000  0  7 02 04 07 09 13 26 27
 -17761583.01708 -13840174.86208  21344863.55308  21344863.20808
 -10160123.04208  -7916972.19908  23050303.72108  23050303.42208
 -24936295.25208 -19430858.32709  20547105.57108  20547105.49509
  -2987506.71008  -2327926.18308  23460633.28208  23460633.11708
 -21711439.60408 -16917989.06308  21223893.73508  21223894.57108
   1158384.05408    902636.69208  22757322.94008  22757322.82008
  -3210509.11108  -2501683.38008  23219189.79008  23219189.71408
 94 01 30 03 14 30.0000000  0  8 02 04 07 09 12 13 26 27
 -17732456.85808 -13817479.14408  21350406.20908  21350405.93808
 -10257091.03808  -7992531.63608  23031851.40208  23031851.17108
 -24904884.58308 -19406382.46909  20553082.88608  20553082.77209
  -3081807.69508  -2401407.43208  23442688.14208  23442688.13008
        -0.37017        -0.36416  24501168.38317  24501169.98516
 -21778553.22608 -16970285.36408  21211122.49308  21211123.37808
   1200885.07308    935754.36308  22765410.78108  22765410.17108
  -3104914.97908  -2419402.25108  23239283.76108  23239283.54808
 94 01 30 03 15 00.0000000  0  6 02 04 07 09 13 27
 -17703139.57908 -13794634.50708  21355985.06008  21355984.80108
 -10353861.58108  -8067937.21108  23013436.47008  23013436.36008
 -24873057.33708 -19381582.00209  20559139.42808  20559139.29809
  -3175924.14508  -2474744.88608  23424778.26208  23424778.46908
 -21845138.95508 -17022170.32308  21198451.64708  21198452.41208
  -2999083.34908  -2336936.05708  23259422.56908  23259422.71508
 94 01 30 03 15 30.0000000  0  6 02 04 07 09 13 27
 -17673678.34708 -13771677.69708  21361591.41008  21361591.06208
 -10450471.85908  -8143217.90908  22995051.94908  22995051.82308
 -24840847.95708 -19356483.76909  20565268.61108  20565268.50609
  -3269907.32508  -2547978.49508  23406893.86508  23406894.14508
 -21911235.45208 -17073674.06608  21185873.87808  21185874.64808
  -2893045.32108  -2254309.04908  23279600.92008  23279601.25408
 94 01 30 03 16 00.0000000  0  7 02 04 07 09 12 13 27
 -17644116.80908 -13748642.72708  21367216.70308  21367216.49608
 -10546947.57008  -8218393.75208  22976693.24508  22976693.07108
 -24808300.15608 -19331121.84009  20571462.29108  20571462.27109
  -3363793.73008  -2621136.69308  23389027.64808  23389028.14008
        -0.08117         0.45516  24449103.63417  24449104.39216
 -21976869.25508 -17124817.26008  21173384.14408  21173384.91308
  -2786834.72908  -2171547.56708  23299812.22908  23299812.41308
 94 01 30 03 16 30.0000000  0  7 02 04 07 09 12 13 27
 -17614367.20308 -13725461.21408  21372877.93408  21372877.56908
 -10643196.03208  -8293392.50908  22958377.84608  22958377.76808
 -24775319.48708 -19305422.61009  20577738.19808  20577738.07209
  -3457497.41808  -2694152.51508  23371196.29908  23371196.79208
    -91246.50506    -71100.61206  24431739.28006  24431740.89506
 -22041945.02408 -17175525.62708  21161000.68308  21161001.32708
  -2680368.90108  -2088587.19608  23320072.05808  23320072.11708
 94 01 30 03 17 00.0000000  0  7 02 04 07 09 12 13 27
 -17584417.15708 -13702123.50208  21378577.21308  21378576.85408
 -10739209.54808  -8368208.18708  22940107.02208  22940106.95808
 -24741920.69408 -19279397.56409  20584093.89408  20584093.69609
  -3551025.90508  -2767031.82208  23353398.49508  23353398.92708
   -182472.09706   -142185.46406  24414379.54706  24414380.95306
 -22106462.16608 -17225798.70208  21148723.49508  21148724.14108
  -2573655.55908  -2005433.96808  23340378.93508  23340378.81808
 94 01 30 03 17 30.0000000  0  7 02 04 07 09 12 13 27
 -17554329.98208 -13678678.95208  21384302.57808  21384302.41608
 -10835080.66508  -8442912.91108  22921863.21908  22921863.07508
 -24708212.20908 -19253131.19909  20590508.37108  20590508.19209
  -3644459.72508  -2839837.36308  23335618.82508  23335619.18408
   -273756.72906   -213316.26906  24397008.68306  24397010.14806
 -22170500.50009 -17275698.67408  21136537.45609  21136537.95308
  -2466771.69708  -1922147.86408  23360718.77208  23360718.13808
 94 01 30 03 18 00.0000000  0  7 02 04 07 09 12 13 27
 -17524045.55308 -13655080.69208  21390065.46908  21390065.02008
 -10930777.01908  -8517481.46708  22903652.69608  22903652.58408
 -24674154.00108 -19226592.32309  20596989.27108  20596989.26909
  -3737737.94208  -2912521.65608  23317868.60008  23317868.83408
   -365053.19806   -284456.30706  24379635.89906  24379636.86706
 -22234012.97608 -17325188.89708  21124451.37108  21124451.85808
  -2359681.86808  -1838701.25108  23381097.39608  23381096.78608
 94 01 30 03 18 30.0000000  0  7 02 04 07 09 12 13 27
 -17493535.14008 -13631306.33408  21395871.40408  21395871.06008
 -11026303.48708  -8591917.65008  22885474.54708  22885474.56708
 -24639725.09408 -19199764.59309  20603540.90108  20603540.87109
  -3830842.20408  -2985070.40208  23300151.33808  23300151.58508
   -456354.83806   -355600.41206  24362261.01206  24362262.72106
 -22296993.15708 -17374264.33508  21112466.61508  21112467.15108
  -2252365.85508  -1755078.38008  23401518.59608  23401518.24208
 94 01 30 03 19 00.0000000  0  7 02 04 07 09 12 13 27
 -17462790.16808 -13607349.21508  21401721.82008  21401721.69408
 -11121670.94708  -8666229.91208  22867326.45408  22867326.82608
 -24604935.85408 -19172656.07609  20610161.18208  20610160.96009
  -3923767.65308  -3057479.81208  23282468.11108  23282468.38408
   -547662.68807   -426749.34906  24344886.03607  24344887.35906
 -22359442.36009 -17422926.02608  21100582.84809  21100583.40108
  -2144824.59508  -1671280.00208  23421982.61608  23421982.57808
 94 01 30 03 19 30.0000000  0  6 02 04 07 09 13 27
 -17431833.53908 -13583227.16208  21407612.78808  21407612.34108
 -11216912.29808  -8740443.89708  22849202.78108  22849202.98808
 -24569793.17008 -19145272.15209  20616848.39508  20616848.27909
  -4016534.71808  -3129765.80508  23264815.25008  23264815.46808
 -22421385.76109 -17471193.58908  21088795.39909  21088795.95408
  -2037083.30908  -1587325.77208  23442485.20208  23442485.21208
 94 01 30 03 20 00.0000000  0  6 02 04 07 09 13 27
 -17400642.65108 -13558922.56408  21413548.29408  21413547.77508
 -11311990.67608  -8814530.91408  22831110.43208  22831109.94208
 -24534258.58908 -19117582.85109  20623610.45708  20623610.34809
  -4109124.55208  -3201913.70008  23247195.93708  23247196.17508
 -22482804.27008 -17519052.13808  21077107.78008  21077108.40008
  -1929126.28908  -1503203.43308  23463029.12708  23463028.69808
 94 01 30 03 20 30.0000000  0  6 02 04 07 09 13 27
 -17369246.76408 -13534458.23008  21419522.77808  21419522.40408
 -11406910.68608  -8888494.54908  22813047.83408  22813047.00408
 -24498356.48408 -19089607.17209  20630442.48908  20630442.34709
  -4201553.34508  -3273936.10708  23229607.41208  23229607.39208
 -22543715.60208 -17566515.48708  21065516.63008  21065517.28008
  -1820971.43008  -1418926.93108  23483610.42208  23483609.84508
 94 01 30 03 21 00.0000000  0  6 02 04 07 09 13 27
 -17337633.44908 -13509824.48208  21425538.58208  21425538.23708
 -11501631.80108  -8962303.18408  22795022.72408  22795022.23708
 -24462071.36808 -19061333.04309  20637347.40008  20637347.17709
  -4293789.69208  -3345808.55908  23212055.62608  23212055.47508
 -22604089.27108 -17613559.88108  21054027.95508  21054028.58308
  -1712609.57708  -1334489.14008  23504230.68708  23504230.23408
 94 01 30 03 21 30.0000000  0  7 02 04 07 09 12 13 27
 -17305809.24608 -13485026.39608  21431594.46408  21431594.13908
 -11596139.76608  -9035945.71608  22777038.37708  22777038.02108
 -24425394.93408 -19032753.99609  20644326.61508  20644326.28409
  -4385815.37908  -3417516.85908  23194543.86508  23194543.59908
        -0.92717        -0.63617  24257956.62317  24257957.54917
 -22663915.45008 -17660177.65308  21042643.35008  21042643.97308
  -1604030.85008  -1249882.36308  23524892.57108  23524892.05808
 94 01 30 03 22 00.0000000  0  7 02 04 07 09 12 13 27
 -17273826.95608 -13460105.13308  21437680.44008  21437680.30108
 -11690462.88208  -9109444.22308  22759089.40608  22759089.15308
 -24388375.85808 -19003907.95309  20651371.17108  20651370.91209
  -4477651.17408  -3489077.19008  23177067.96308  23177067.76108
    -91387.66807    -71211.05007  24240565.86407  24240567.30307
 -22723225.72608 -17706393.43108  21031356.92308  21031357.55408
  -1495273.76208  -1165136.58508  23545588.22608  23545587.42908
 94 01 30 03 22 30.0000000  0  7 02 04 07 09 12 13 27
 -17241703.34208 -13435073.73408  21443793.32408  21443793.18708
 -11784590.31408  -9182790.25608  22741177.54608  22741177.23308
 -24351018.41008 -18974798.24309  20658480.11208  20658479.87309
  -4569271.78108  -3560469.84108  23159633.09108  23159632.80108
   -182782.39407   -142427.68507  24223174.16907  24223175.52407
 -22782008.92508 -17752198.49608  21020170.94808  21020171.53208
  -1386329.92208  -1080245.25108  23566319.49708  23566319.15708
 94 01 30 03 23 00.0000000  0  7 02 04 07 09 12 13 27
 -17209429.61008 -13409925.36108  21449934.86308  21449934.68908
 -11878502.12408  -9255968.26808  22723306.45208  22723306.09908
 -24313299.01408 -18945406.49509  20665657.63008  20665657.52709
  -4660672.40408  -3631691.08108  23142239.99908  23142239.66308
   -274164.84207   -213634.74907  24205784.89907  24205786.21107
 -22840245.18508 -17797577.37808  21009088.93608  21009089.42308
  -1277182.08908   -995194.97808  23587089.96108  23587089.56008
 94 01 30 03 23 30.0000000  0  7 02 04 07 09 12 13 27
 -17177009.42608 -13384662.87808  21456104.22908  21456104.21508
 -11972209.88608  -9328987.27408  22705474.57408  22705474.10808
 -24275222.12708 -18915736.18609  20672903.50708  20672903.36309
  -4751862.25408  -3702748.07808  23124887.28408  23124886.88608
   -365542.35208   -284837.97507  24188396.29608  24188397.81207
 -22897942.87508 -17842536.59208  20998109.32608  20998109.97208
  -1167832.70508   -909987.68408  23607898.19008  23607898.01108
 94 01 30 03 24 00.0000000  0  7 02 04 07 09 12 13 27
 -17144428.46908 -13359275.11308  21462304.11108  21462304.08108
 -12065689.49308  -9401828.49208  22687685.91608  22687685.63908
 -24236791.36808 -18885790.12809  20680216.66008  20680216.46709
  -4842843.03908  -3773642.17008  23107574.18708  23107573.78708
   -456908.23808   -356032.15207  24171010.00608  24171011.51907
 -22955095.29508 -17887070.92608  20987233.51708  20987234.22908
  -1058288.18708   -824628.35308  23628743.46908  23628743.63508
 94 01 30 03 24 30.0000000  0  7 02 04 07 09 12 13 27
 -17111666.14308 -13333746.01608  21468538.35808  21468538.63408
 -12158939.38108  -9474490.71008  22669940.71108  22669940.86008
 -24198015.68408 -18855575.30009  20687595.49608  20687595.28209
  -4933636.72208  -3844390.46408  23090296.70408  23090296.36508
   -548264.99308   -427219.21707  24153625.48808  24153626.66507
 -23011705.61408 -17931182.83708  20976460.90808  20976461.53008
   -948558.11708   -739124.44308  23649624.64008  23649624.70308
 94 01 30 03 25 00.0000000  0  7 02 04 07 09 12 13 27
 -17078694.66108 -13308053.95208  21474812.63308  21474812.71108
 -12251972.54308  -9546984.06408  22652237.05608  22652237.16208
 -24158901.37008 -18825096.60909  20695038.70108  20695038.50809
  -5024263.78708  -3915008.92208  23073050.86408  23073050.77008
   -639616.02208   -498401.81307  24136241.89308  24136243.21207
 -23067778.02008 -17974875.58908  20965790.60408  20965791.29508
   -838645.96708   -653478.61708  23670540.08808  23670540.02808
 94 01 30 03 25 30.0000000  0  7 02 04 07 09 12 13 27
 -17045486.18708 -13282177.21208  21481132.08608  21481132.15608
 -12344776.39008  -9619298.72908  22634577.39508  22634577.24508
 -24119449.69008 -18794355.03309  20702546.05608  20702545.79909
  -5114691.51808  -3985472.05208  23055842.89408  23055842.80108
   -730952.55508   -569573.10907  24118861.06208  24118862.62807
 -23123304.18508 -18018142.70808  20955224.34308  20955224.98608
   -728544.43208   -567685.19508  23691492.00908  23691491.58008
 94 01 30 03 26 00.0000000  0  7 02 04 07 09 12 13 27
 -17012051.61508 -13256124.28208  21487494.52408  21487494.37708
 -12437359.80108  -9691441.60808  22616959.40008  22616959.23208
 -24079685.57308 -18763369.99909  20710112.82108  20710112.54409
  -5204939.15908  -4055794.85608  23038669.16308  23038669.18808
   -822292.43708   -640747.01608  24101479.33408  24101481.10008
 -23178302.79109 -18060998.73708  20944758.49709  20944759.03408
   -618273.70008   -481759.95308  23712475.69108  23712475.61408
 94 01 30 03 26 30.0000000  0  7 02 04 07 09 12 13 27
 -16978382.12208 -13229888.30508  21493901.34908  21493901.36708
 -12529747.25508  -9763431.79608  22599378.65708  22599378.37408
 -24039606.77408 -18732139.75609  20717739.55708  20717739.32709
  -5294999.94008  -4125972.05408  23021531.09708  23021531.06708
   -913633.79108   -711922.06308  24084097.61208  24084099.01408
 -23232772.58009 -18103442.70408  20934393.22909  20934393.70808
   -507819.78108   -395691.96908  23733494.19508  23733494.68608
 94 01 30 03 27 00.0000000  0  7 02 04 07 09 12 13 27
 -16944496.44308 -13203483.87708  21500349.56608  21500349.52208
 -12621938.24808  -9835268.90308  22581835.23808  22581834.80708
 -23999216.56808 -18700666.85409  20725425.63108  20725425.26909
  -5384867.36708  -4195998.58208  23004429.75708  23004429.68608
  -1004983.28308   -783103.43208  24066714.46208  24066715.75008
 -23286720.83909 -18145480.28308  20924127.28309  20924127.76908
   -397191.14608   -309487.82608  23754546.19508  23754546.70008
 94 01 30 03 27 30.0000000  0  7 02 04 07 09 12 13 27
 -16910402.84408 -13176917.42508  21506837.48408  21506837.34808
 -12713902.66508  -9906929.45908  22564334.90608  22564334.53108
 -23958497.37208 -18668937.60309  20733174.42408  20733174.01809
  -5474518.86308  -4265856.85808  22987369.57208  22987369.52408
  -1096326.97208   -854280.28308  24049332.55608  24049333.54508
 -23340134.43609 -18187101.24508  20913963.04509  20913963.48808
   -286393.10308   -223151.69808  23775630.35108  23775630.85308
 94 01 30 03 28 00.0000000  0  7 02 04 07 09 12 13 27
 -16876107.17108 -13150193.53108  21513363.61108  21513363.37908
 -12805629.77608  -9978405.10008  22546879.76808  22546879.59908
 -23917443.51208 -18636947.57509  20740986.71708  20740986.22009
  -5563960.21008  -4335551.38408  22970349.41608  22970349.37608
  -1187655.86808   -925445.62608  24031953.40008  24031954.31408
 -23393005.32009 -18228299.31908  20903902.02909  20903902.54008
   -175437.12908   -136692.53408  23796744.34908  23796744.63008
 94 01 30 03 28 30.0000000  0  7 02 04 07 09 12 13 27
 -16841623.02508 -13123322.76008  21519925.90008  21519925.45108
 -12897111.48108 -10049689.51108  22529471.37208  22529471.16808
 -23876044.76308 -18604688.79809  20748864.55908  20748864.13809
  -5653189.67908  -4405080.81108  22953369.41408  22953369.43208
  -1278964.43108   -996595.11208  24014577.93408  24014578.85808
 -23445328.71609 -18269070.77008  20893945.18509  20893945.64108
    -64331.19408    -50116.52008  23817886.87808  23817887.39508
 94 01 30 03 29 00.0000000  0  7 02 04 07 09 12 13 27
 -16806987.65908 -13096334.16808  21526516.85408  21526516.18408
 -12988338.10208 -10120775.15908  22512111.53508  22512111.23908
 -23834317.00008 -18572173.65209  20756804.96708  20756804.56309
  -5742222.07908  -4474456.67208  22936427.17708  22936427.09008
  -1370266.53008  -1067739.55108  23997203.34108  23997204.59108
 -23497119.34609 -18309427.08308  20884089.69209  20884090.27308
     46889.66908     36549.08008  23839051.54508  23839052.11008
 94 01 30 03 29 30.0000000  0  7 02 04 07 09 12 13 27
 -16772171.11908 -13069204.38408  21533142.24708  21533141.60008
 -13079285.70608 -10191643.39408  22494804.59508  22494804.47208
 -23792236.62908 -18539383.74809  20764812.61908  20764812.26809
  -5831021.23708  -4543650.79308  22919529.19208  22919529.06908
  -1461531.57408  -1138855.12408  23979835.97908  23979837.39608
 -23548347.53109 -18349345.12608  20874341.22909  20874341.86008
    158258.35208    123329.87408  23860244.95108  23860245.14508
 94 01 30 03 30 00.0000000  0  7 02 04 07 09 12 13 27
 -16737157.57608 -13041921.10908  21539805.14708  21539804.40208
 -13169966.67508 -10262303.85308  22477548.44308  22477548.53408
 -23749804.30108 -18506319.59109  20772887.24208  20772886.91709
  -5919587.49208  -4612663.43108  22902675.73008  22902675.63108
  -1552755.67808  -1209938.80008  23962476.74908  23962478.20108
 -23599010.39009 -18388822.65708  20864700.39709  20864701.01708
    269794.72008    210241.32808  23881469.68608  23881469.96408
 94 01 30 03 30 30.0000000  0  7 02 04 07 09 12 13 27
 -16701950.96308 -13014487.37908  21546504.70308  21546503.89808
 -13260390.92108 -10332764.26508  22460341.21808  22460341.19808
 -23707020.71808 -18472981.72209  20781028.65908  20781028.37609
  -6007922.31808  -4681495.72708  22885866.11708  22885866.15908
  -1643946.39508  -1280996.47108  23945123.82908  23945125.32308
 -23649116.31809 -18427866.21208  20855165.52709  20855166.12308
    381511.85708    297293.63408  23902728.59108  23902729.22208
 94 01 30 03 31 00.0000000  0  7 02 04 07 09 12 13 27
 -16666533.75008 -12986889.55008  21553244.47308  21553243.74608
 -13350554.89708 -10403021.87608  22443183.59808  22443183.48308
 -23663885.35208 -18439369.74209  20789237.04908  20789236.71109
  -6096014.83208  -4750139.20508  22869102.53408  22869102.65808
  -1735098.93808  -1352024.39308  23927778.03508  23927779.35508
 -23698661.55309 -18466472.86608  20845737.33409  20845737.91908
    493421.52908    384495.95708  23924024.04808  23924024.89508
 94 01 30 03 31 30.0000000  0  7 02 04 07 09 12 13 27
 -16630899.11708 -12959122.31008  21560025.54008  21560024.92408
 -13440477.74408 -10473091.60108  22426071.81008  22426071.58508
 -23620406.12508 -18405489.81909  20797510.87008  20797510.48809
  -6183872.97208  -4818600.05408  22852383.83908  22852383.75208
  -1826221.24308  -1423028.75308  23910438.09308  23910439.20408
 -23747655.18009 -18504649.69908  20836414.07809  20836414.73308
    605522.33808    471847.20108  23945356.50508  23945357.04308
 94 01 30 03 32 00.0000000  0  6 02 04 07 12 13 27
 -16595056.23508 -12931192.79008  21566846.13408  21566845.72608
 -13530160.32108 -10542974.09908  22409005.91908  22409005.78208
 -23576586.93308 -18371344.99108  20805849.51308  20805849.03808
  -1917316.03108  -1494011.66208  23893103.25608  23893104.52608
 -23796100.96409 -18542399.63908  20827195.18209  20827195.73908
    717799.90208    559336.18108  23966722.32608  23966722.67908
 94 01 30 03 32 30.0000000  0  6 02 04 07 12 13 27
 -16559039.32008 -12903127.66408  21573699.88108  21573699.51408
 -13619616.46108 -10612680.14608  22391983.11308  22391982.77508
 -23532475.02808 -18336972.06408  20814243.69408  20814243.25508
  -2008409.29108  -1564993.39508  23875768.80808  23875770.11008
 -23844025.99309 -18579743.79708  20818075.37809  20818075.90808
    830212.14508    646930.13208  23988113.65508  23988113.64308
 94 01 30 03 33 00.0000000  0  6 02 04 07 12 13 27
 -16522825.43908 -12874909.05108  21580591.07308  21580590.84308
 -13708819.42908 -10682188.91808  22375008.37008  22375007.86208
 -23488064.14708 -18302366.17408  20822694.69108  20822694.21108
  -2099476.55408  -1635954.88008  23858439.10308  23858440.72408
 -23891406.95409 -18616664.00308  20809059.14709  20809059.63008
    942762.95808    734632.06208  24009531.78808  24009531.38208
 94 01 30 03 33 30.0000000  0  6 02 04 07 12 13 27
 -16486391.22608 -12846518.74608  21587524.09808  21587524.04808
 -13797747.11708 -10751483.19108  22358086.04708  22358085.40408
 -23443346.80408 -18267521.48008  20831204.14808  20831203.63508
  -2190493.49808  -1706877.15608  23841119.17808  23841120.55308
 -23938220.75509 -18653142.26808  20800150.79109  20800151.32308
   1055468.76608    822454.76208  24030978.82108  24030978.40108
 94 01 30 03 34 00.0000000  0  6 02 04 07 12 13 27
 -16449738.08708 -12817957.85508  21594499.01208  21594499.01508
 -13886396.16408 -10820560.34508  22341216.46008  22341215.80608
 -23398337.94008 -18232449.62708  20839769.03408  20839768.56608
  -2281461.04508  -1777760.93108  23823808.81608  23823809.90408
 -23984469.52909 -18689180.25208  20791349.85309  20791350.47008
   1168324.79108    910394.52608  24052454.51408  24052454.54608
 94 01 30 03 34 30.0000000  0  6 02 04 07 12 13 27
 -16412874.69508 -12789233.12708  21601514.03108  21601513.82308
 -13974771.14008 -10889423.93408  22324399.19808  22324398.68108
 -23353058.37108 -18197166.83808  20848385.59808  20848385.05408
  -2372390.14408  -1848614.74308  23806505.42308  23806506.60708
 -24030165.35709 -18724787.37208  20782654.19909  20782654.79208
   1281318.86408    998441.85108  24073956.42708  24073956.88208
 94 01 30 03 35 00.0000000  0  6 02 04 07 12 13 27
 -16375802.27708 -12760345.51308  21608568.68508  21608568.51608
 -14062870.63708 -10958072.85908  22307634.57208  22307633.99608
 -23307500.20608 -18161666.95708  20857054.82708  20857054.43008
  -2463284.19208  -1919441.25008  23789208.74108  23789210.06608
 -24075313.17809 -18759967.47508  20774062.84709  20774063.35208
   1394447.19908   1086593.77508  24095483.89108  24095484.41908
 94 01 30 03 35 30.0000000  0  6 02 04 07 12 13 27
 -16338513.93308 -12731289.65808  21615664.35908  21615664.23908
 -14150694.63608 -11026507.11208  22290922.33808  22290921.72408
 -23261652.57208 -18125941.52008  20865779.41208  20865779.04508
  -2554137.28308  -1990235.85208  23771919.96308  23771921.45508
 -24119908.18109 -18794716.80608  20765576.67409  20765577.14708
   1507721.61208   1174859.53108  24117039.14408  24117039.71808
 94 01 30 03 36 00.0000000  0  6 02 04 07 12 13 27
 -16301018.49808 -12702072.43208  21622799.53408  21622799.24508
 -14238239.62708 -11094723.95908  22274262.85108  22274262.43308
 -23215502.75208 -18089980.61308  20874561.38008  20874560.89708
  -2644954.47708  -2061002.47808  23754638.09108  23754639.51208
 -24163956.97509 -18829040.51808  20757194.41609  20757194.93108
   1621131.72008   1263231.03408  24138620.37508  24138621.10108
 94 01 30 03 36 30.0000000  0  6 02 04 07 12 13 27
 -16263309.40308 -12672688.71608  21629975.30408  21629975.07208
 -14325495.47908 -11162715.50408  22257658.57308  22257658.06408
 -23169025.91308 -18053764.88908  20883405.67908  20883405.23108
  -2735725.50208  -2131733.12408  23737364.93208  23737366.21308
 -24207450.66709 -18862931.68708  20748917.80509  20748918.31208
   1734682.92508   1351712.49308  24160228.77208  24160229.23908
 94 01 30 03 37 00.0000000  0  6 02 04 07 12 13 27
 -16225402.38008 -12643150.77908  21637188.90108  21637188.38208
 -14412478.54708 -11230494.49008  22241106.40708  22241105.66108
 -23122225.56008 -18017297.07308  20892311.44608  20892311.03108
  -2826461.26208  -2202436.28608  23720098.36608  23720099.67608
 -24250401.17609 -18896399.59608  20740744.52909  20740745.10508
   1848361.12408   1440292.91208  24181861.17808  24181861.42808
 94 01 30 03 37 30.0000000  0  6 02 04 07 12 13 27
 -16187313.17908 -12613470.87208  21644437.11208  21644436.53108
 -14499200.40308 -11298069.93708  22224603.71508  22224603.04708
 -23075114.01008 -17980586.77208  20901276.40508  20901276.00508
  -2917168.80008  -2273117.45708  23702837.33908  23702838.61108
 -24292817.46509 -18929451.23008  20732672.98509  20732673.61708
   1962148.76808   1528958.60208  24203514.44408  24203514.24408
 94 01 30 03 38 00.0000000  0  6 02 04 07 12 13 27
 -16149024.33508 -12583635.40508  21651723.30808  21651722.73508
 -14585625.81708 -11365414.38108  22208157.36508  22208156.77108
 -23027673.21308 -17943619.90908  20910304.10808  20910303.61908
  -3007822.00508  -2343756.28708  23685586.52408  23685587.83708
 -24334674.89309 -18962067.38908  20724707.74209  20724708.38308
   2076059.48908   1617720.17608  24225191.32908  24225190.49408
 94 01 30 03 38 30.0000000  0  6 02 04 07 12 13 27
 -16110541.37908 -12553648.68208  21659046.25008  21659045.87608
 -14671763.23808 -11432534.42808  22191766.11108  22191765.33708
 -22979924.33608 -17906412.99108  20919390.54008  20919389.95508
  -3098416.10708  -2414349.06408  23668347.12408  23668348.34808
 -24375970.03809 -18994245.40708  20716849.55209  20716850.10008
   2190094.01708   1706578.22008  24246891.66108  24246890.59208
 94 01 30 03 39 00.0000000  0  6 02 04 07 12 13 27
 -16071867.76908 -12523513.39908  21666405.66108  21666405.25008
 -14757599.97008 -11499420.16608  22175431.70908  22175431.11308
 -22931880.36208 -17868976.12208  20928532.84208  20928532.30308
  -3188948.93208  -2484894.09608  23651119.29108  23651120.47108
 -24416702.32609 -19025984.83608  20709098.45309  20709099.00108
   2304249.32308   1795530.39108  24268614.81308  24268613.59208
 94 01 30 03 39 30.0000000  0  6 02 04 07 12 13 27
 -16032981.88908 -12493212.70008  21673805.36308  21673804.89808
 -14843117.33608 -11566057.04208  22159158.03208  22159157.73108
 -22883534.78408 -17831304.23608  20937732.61108  20937732.05608
  -3279410.45808  -2555383.56808  23633904.93508  23633906.08408
 -24456863.42309 -19057279.17808  20701456.08309  20701456.48808
   2418528.11008   1884578.79608  24290361.23708  24290360.19908
 94 01 30 03 40 00.0000000  0  6 02 04 07 12 13 27
 -15993875.06708 -12462739.85608  21681247.13508  21681246.91108
 -14928311.34008 -11632441.95508  22142946.31708  22142945.93008
 -22834884.55408 -17793394.95708  20946990.52108  20946989.89808
  -3369796.13008  -2625813.93108  23616705.24108  23616706.15908
 -24496450.26909 -19088126.05508  20693922.98109  20693923.42408
   2532944.82408   1973734.67008  24312133.63408  24312132.92208
 94 01 30 03 40 30.0000000  0  6 02 04 07 12 13 27
 -15954552.81808 -12432099.14408  21688730.00108  21688729.58708
 -15013179.90508 -11698573.27408  22126796.30608  22126795.94908
 -22785941.56308 -17755257.55908  20956304.07508  20956303.60208
  -3460115.53508  -2696192.65608  23599518.00808  23599518.99308
 -24535474.21209 -19118534.30408  20686496.92509  20686497.39508
   2647488.74608   2062989.67108  24333930.30008  24333929.62708
 94 01 30 03 41 00.0000000  0  6 02 04 07 12 13 27
 -15915021.43908 -12401295.47708  21696252.25208  21696251.94708
 -15097713.14608 -11764443.30308  22110710.14008  22110709.65208
 -22736703.90208 -17716890.54708  20965673.72508  20965673.25708
  -3550379.03108  -2766527.81508  23582341.28308  23582342.39608
 -24573947.34309 -19148513.34808  20679175.73909  20679176.16508
   2762144.57708   2152331.87508  24355748.52908  24355747.99608
 94 01 30 03 41 30.0000000  0  6 02 04 07 12 13 27
 -15875290.25408 -12370336.11308  21703812.80708  21703812.59408
 -15181929.23208 -11830066.20508  22094684.32808  22094683.70408
 -22687184.43308 -17678303.94208  20975096.94408  20975096.42308
  -3640590.77408  -2836822.64608  23565174.40708  23565175.66208
 -24611875.60609 -19178067.81908  20671958.19909  20671958.54608
   2876904.27708   2241755.00908  24377586.47708  24377586.39608
 94 01 30 03 42 00.0000000  0  6 02 04 07 12 13 27
 -15835369.74308 -12339229.22008  21711409.43208  21711409.40808
 -15265837.80108 -11895449.48208  22078716.98108  22078716.45208
 -22637401.36008 -17639511.93108  20984570.17508  20984569.67808
  -3730748.08708  -2907075.06308  23548018.05508  23548019.24008
 -24649257.85809 -19207196.83008  20664844.57809  20664844.96408
   2991765.97607   2331257.61808  24399443.79107  24399443.81308
 94 01 30 03 42 30.0000000  0  6 02 04 07 12 13 27
 -15795222.04008 -12307945.28608  21719049.29508  21719049.36508
 -15349400.45608 -11960563.20608  22062815.48608  22062815.17108
 -22587331.91008 -17600496.76408  20994098.16308  20994097.69108
  -3820812.92008  -2977255.41908  23530879.17608  23530880.47308
 -24686058.17709 -19235872.38708  20657841.69609  20657842.08808
   3106745.60207   2420852.12108  24421323.21707  24421324.01908
 94 01 30 03 43 00.0000000  0  5 02 04 07 12 13
 -15754848.92908 -12276485.72008  21726732.07608  21726732.18008
 -15432642.84308 -12025427.38008  22046974.96008  22046974.45708
 -22536983.54108 -17561264.26408  21003679.16908  21003678.68008
  -3910790.20308  -3047367.54908  23513756.95508  23513758.40408
 -24722282.98109 -19264099.49108  20650948.27609  20650948.76408
 94 01 30 03 43 30.0000000  0  5 02 04 07 12 13
 -15714251.31708 -12244851.22008  21734457.78408  21734457.43008
 -15515581.04908 -12090054.53408  22031192.38008  22031191.93308
 -22486372.95708 -17521827.44308  21013309.97308  21013309.48308
  -4000685.98908  -3117416.18008  23496650.33108  23496651.83208
 -24757940.64209 -19291884.66508  20644162.93609  20644163.41308
 94 01 30 03 44 00.0000000  0  6 02 04 07 09 12 13
 -15673378.98808 -12213002.64208  21742235.38308  21742235.27308
 -15598162.56608 -12154403.74308  22015477.73308  22015477.19508
 -22435456.10208 -17482151.96208  21022998.99108  21022998.61208
        -0.17018        -0.14318  22450030.31218  22450029.55918
  -4090462.94508  -3187372.21708  23479566.39108  23479567.86708
 -24792995.36109 -19319200.01408  20637492.25509  20637492.70808
 94 01 30 03 44 30.0000000  0  6 02 04 07 09 12 13
 -15632296.71308 -12180990.47508  21750053.21008  21750052.93508
 -15680435.87908 -12218512.80308  21999821.66708  21999820.85608
 -22384273.20308 -17442269.17708  21032738.84708  21032738.57008
    -80935.07208    -63066.29108  22434628.95508  22434628.31908
  -4180183.80408  -3257284.54308  23462493.15708  23462494.50908
 -24827512.03109 -19346096.10208  20630923.97909  20630924.39008
 94 01 30 03 45 00.0000000  0  6 02 04 07 09 12 13
 -15591317.89308 -12149058.93708  21757851.14808  21757850.85108
 -15762690.01008 -12282606.91608  21984169.14108  21984168.46108
 -22333115.03908 -17402405.66808  21042473.85408  21042473.48108
   -161899.76308   -126155.65408  22419221.96108  22419221.32208
  -4270146.25108  -3327385.12008  23445373.81208  23445375.18408
 -24861790.11609 -19372806.28108  20624400.99509  20624401.51608
 94 01 30 03 45 30.0000000  0  6 02 04 07 09 12 13
 -15550344.88108 -12117131.91708  21765647.84308  21765647.59008
 -15844808.98408 -12346595.70008  21968542.40708  21968541.96308
 -22281890.29208 -17362490.27408  21052221.49408  21052221.15008
   -242799.68208   -189194.53908  22403827.14908  22403826.60608
  -4360249.92308  -3397595.74608  23428227.49108  23428229.02708
 -24895731.46509 -19399254.07008  20617942.10609  20617942.61408
 94 01 30 03 46 00.0000000  0  6 02 04 07 09 12 13
 -15508582.19708 -12084589.56308  21773595.18208  21773594.86808
 -15925987.07608 -12409851.32808  21953094.71008  21953094.26908
 -22229807.79108 -17321906.50108  21062132.71208  21062132.33508
   -322833.22908   -251558.33008  22388597.29708  22388596.90908
  -4449688.14208  -3467287.83308  23411207.77708  23411209.39308
 -24928531.40409 -19424812.44508  20611700.46409  20611700.92708
 94 01 30 03 46 30.0000000  0  6 02 04 07 09 12 13
 -15466534.78708 -12051825.34908  21781596.24808  21781596.14208
 -16006727.72508 -12472766.09508  21937730.24408  21937729.78408
 -22177383.58308 -17281056.46308  21072108.72108  21072108.38308
   -402500.05308   -313636.36008  22373437.22608  22373436.83608
  -4538959.20408  -3536849.66408  23394219.94208  23394221.71508
 -24960690.32309 -19449871.32808  20605580.81209  20605581.27508
 94 01 30 03 47 00.0000000  0  6 02 04 07 09 12 13
 -15424292.96108 -12018909.65208  21789634.84208  21789634.48508
 -16087136.76908 -12535422.47408  21922428.97908  21922428.32408
 -22124748.29008 -17240041.95008  21082124.95508  21082124.55208
   -481899.35208   -375505.92708  22358327.99308  22358327.40208
  -4628162.12908  -3606358.40308  23377245.29308  23377246.90808
 -24992309.30409 -19474509.48108  20599563.90909  20599564.30608
 94 01 30 03 47 30.0000000  0  6 02 04 07 09 12 13
 -15381832.04908 -11985823.22108  21797714.88808  21797714.30208
 -16167218.29508 -12597823.64208  21907190.02008  21907189.32508
 -22071898.35408 -17198860.17308  21092181.79608  21092181.50608
   -561017.48508   -437156.40408  22343272.22908  22343271.62508
  -4717287.79508  -3675806.94808  23360285.31108  23360286.90308
 -25023381.27609 -19498721.39208  20593651.04709  20593651.51208
 94 01 30 03 48 00.0000000  0  6 02 04 07 09 12 13
 -15339183.40508 -11952590.51008  21805830.44208  21805830.41508
 -16247005.19308 -12659995.22508  21892006.92408  21892006.44608
 -22018845.98508 -17157520.66308  21102277.34108  21102277.12208
   -639864.34308   -498595.49708  22328268.08008  22328267.73408
  -4806359.90208  -3745213.75708  23343335.46108  23343337.02208
 -25053932.31009 -19522527.37608  20587837.35809  20587837.83408
 94 01 30 03 48 30.0000000  0  6 02 04 07 09 12 13
 -15296329.86708 -11919198.15808  21813985.20208  21813985.07908
 -16326476.99008 -12721921.27008  21876883.91408  21876883.33708
 -21965553.10608 -17115993.74208  21112418.79508  21112418.42008
   -718409.40708   -559799.42008  22313321.24508  22313321.10708
  -4895361.41708  -3814565.56008  23326399.16108  23326400.63608
 -25083947.39409 -19545915.73608  20582125.70009  20582126.25108
 94 01 30 03 49 00.0000000  0  6 02 04 07 09 12 13
 -15253271.61308 -11885646.26108  21822179.14908  21822178.72808
 -16405634.42408 -12783602.36308  21861820.78108  21861820.04608
 -21912014.41408 -17074275.27308  21122606.76108  21122606.52208
   -796655.53008   -620770.40508  22298431.48908  22298431.28608
  -4984289.58208  -3883860.20908  23309476.62808  23309477.99008
 -25113426.11409 -19568886.15008  20576516.01509  20576516.58708
 94 01 30 03 49 30.0000000  0  6 02 04 07 09 12 13
 -15210007.31408 -11851933.81308  21830411.80408  21830411.60608
 -16484453.40808 -12845019.73508  21846822.03908  21846821.30608
 -21858207.64808 -17032347.92408  21132845.97208  21132845.62008
   -874583.27608   -681493.30508  22283602.62108  22283602.17908
  -5073130.28308  -3953086.71408  23292570.81108  23292571.97208
 -25142356.82109 -19591429.54508  20571010.74809  20571011.25708
 94 01 30 03 50 00.0000000  0  6 02 04 07 09 12 13
 -15166560.09208 -11818078.84708  21838679.49008  21838679.44208
 -16562938.56908 -12906176.97508  21831886.76408  21831886.05808
 -21804159.91408 -16990232.79708  21143130.87908  21143130.47208
   -952207.93908   -741980.03708  22268830.93808  22268830.55808
  -5161898.39108  -4022256.65008  23275678.93608  23275679.95208
 -25170756.43009 -19613559.09708  20565606.48109  20565606.92908
 94 01 30 03 50 30.0000000  0  6 02 04 07 09 12 13
 -15122903.64708 -11784060.85008  21846987.27008  21846987.05208
 -16641048.47308 -12967041.81708  21817022.93308  21817022.25908
 -21749870.81308 -16947929.60008  21153461.76308  21153461.38708
  -1029497.83808   -802205.91608  22254123.05908  22254122.74508
  -5250562.90908  -4091345.87608  23258806.64408  23258807.48508
 -25198596.47009 -19635252.62308  20560308.69909  20560309.08008
 94 01 30 03 51 00.0000000  0  6 02 04 07 09 12 13
 -15079028.14308 -11749872.14208  21855336.55608  21855336.32408
 -16718775.97208 -13027608.67808  21802231.72008  21802231.13408
 -21695355.20608 -16905449.90008  21163835.71808  21163835.11308
  -1106445.05808   -862164.77108  22239480.38508  22239480.18908
  -5339116.34608  -4160348.54708  23241955.52008  23241956.25208
 -25225871.74009 -19656506.06608  20555118.39409  20555118.71708
 94 01 30 03 51 30.0000000  0  6 02 04 07 09 12 13
 -15034940.27108 -11715517.95608  21863726.30408  21863725.89008
 -16796120.68408 -13087877.25808  21787513.53008  21787512.94208
 -21640608.92208 -16862790.45608  21174253.73108  21174253.15708
  -1183045.00108   -921853.02108  22224903.76608  22224903.66308
  -5427561.60208  -4229266.91608  23225124.89608  23225125.78808
 -25252587.71709 -19677323.69508  20550034.47709  20550034.85308
 94 01 30 03 52 00.0000000  0  6 02 04 07 09 12 13
 -14990626.94908 -11680988.09708  21872158.96908  21872158.38208
 -16873087.63708 -13147851.49308  21772867.08108  21772866.52108
 -21585622.19808 -16819943.65808  21184717.25508  21184716.69808
  -1259285.90608   -981261.50008  22210395.55208  22210395.42308
  -5515894.56008  -4298097.78008  23208315.69408  23208316.65508
 -25278742.48709 -19697704.02508  20545057.29909  20545057.81608
 94 01 30 03 52 30.0000000  0  6 02 04 07 09 12 13
 -14946092.53908 -11646285.96008  21880633.71508  21880632.85608
 -16949679.79108 -13207533.67908  21758292.11808  21758291.69208
 -21530396.33408 -16776910.51008  21195226.34208  21195225.81408
  -1335167.29808  -1040389.84108  22195956.01908  22195955.71908
  -5604117.20008  -4366842.68308  23191527.38208  23191528.33008
 -25304340.65009 -19717650.63608  20540186.07709  20540186.68508
 94 01 30 03 53 00.0000000  0  6 02 04 07 09 12 13
 -14901355.99408 -11611426.31508  21889146.48508  21889146.05108
 -17025934.42208 -13266952.85108  21743781.39608  21743780.87308
 -21474935.82808 -16733694.52708  21205780.24008  21205779.65308
  -1410732.74908  -1099271.99508  22181576.35408  22181575.97008
  -5692258.20808  -4435523.97908  23174754.65008  23174755.64408
 -25329413.38709 -19737187.81908  20535415.04909  20535415.40108
 94 01 30 03 53 30.0000000  0  6 02 04 07 09 12 13
 -14856410.32108 -11576403.72808  21897699.71108  21897699.15208
 -17101827.35308 -13326090.18108  21729339.37808  21729338.83008
 -21419214.89608 -16690275.61608  21216383.54108  21216383.08208
  -1485982.42408  -1157908.08808  22167256.83908  22167256.52508
  -5780298.86708  -4504127.07508  23158001.03208  23158001.89908
 -25353944.60909 -19756303.04308  20530746.87209  20530747.26208
 94 01 30 03 54 00.0000000  0  6 02 04 07 09 12 13
 -14811257.51608 -11541219.72208  21906291.87608  21906291.54008
 -17177351.62508 -13384940.24108  21714967.37008  21714966.87208
 -21363248.07508 -16646665.10008  21227033.72508  21227033.22908
  -1560919.18108  -1216300.35108  22152996.72108  22152996.46308
  -5868231.66608  -4572646.12708  23141267.95308  23141268.65408
 -25377929.28909 -19774992.39308  20526182.68309  20526183.14408
 94 01 30 03 54 30.0000000  0  6 02 04 07 09 12 13
 -14765897.09608 -11505873.93808  21914923.54008  21914923.41008
 -17252480.33408 -13443482.06908  21700670.88208  21700670.27008
 -21307027.33408 -16602856.72408  21237732.05408  21237731.60408
  -1635548.80808  -1274453.29208  22138795.07808  22138794.71908
  -5956042.09208  -4641069.82608  23124558.17208  23124558.79408
 -25401355.54109 -19793246.60308  20521724.85309  20521725.18508
 94 01 30 03 55 00.0000000  0  6 02 04 07 09 12 13
 -14720319.22308 -11470358.71508  21923596.87708  21923596.62208
 -17327203.21108 -13501707.66908  21686451.63008  21686450.86408
 -21250541.86008 -16558842.06608  21248480.88608  21248480.24008
  -1709873.15908  -1332368.35408  22124651.94808  22124651.45908
  -6043717.35208  -4709388.19708  23107874.04208  23107874.76708
 -25424213.21709 -19811057.76608  20517375.20309  20517375.53608
 94 01 30 03 55 30.0000000  0  6 02 04 07 09 12 13
 -14674510.56208 -11434663.64108  21932314.03508  21932313.67608
 -17401495.82308 -13559597.99508  21672314.45608  21672313.51808
 -21193791.71608 -16514621.16008  21259280.12908  21259279.53308
  -1783852.24208  -1390014.38008  22110574.18208  22110573.73808
  -6131235.53708  -4777584.16808  23091219.82608  23091220.63208
 -25446483.14709 -19828410.94108  20513137.35109  20513137.76908
 94 01 30 03 56 00.0000000  0  6 02 04 07 09 12 13
 -14628460.59108 -11398780.55508  21941076.79508  21941076.79008
 -17475360.26208 -13617154.69008  21658258.49608  21658257.54208
 -21136786.17208 -16470201.26308  21270127.89008  21270127.34508
  -1857467.83108  -1447377.16308  22096565.53608  22096565.14308
  -6218598.63708  -4845659.29708  23074595.13308  23074596.05308
 -25468170.07009 -19845309.82808  20509010.32509  20509010.86408
 94 01 30 03 56 30.0000000  0  6 02 04 07 09 12 13
 -14582147.40808 -11362692.37108  21949889.83408  21949889.60508
 -17548791.69208 -13674373.96708  21644284.89108  21644284.07208
 -21079522.99308 -16425580.60108  21281024.59208  21281023.93808
  -1930703.60008  -1504443.97908  22082629.20108  22082628.75708
  -6305802.66408  -4913610.47008  23058000.72008  23058001.73508
 -25489272.59409 -19861753.34108  20504994.61209  20504995.13108
 94 01 30 03 57 00.0000000  0  6 02 04 07 09 12 13
 -14535585.80308 -11326410.60908  21958750.37708  21958750.04608
 -17621819.44508 -13731278.68808  21630388.24008  21630387.37708
 -21022032.97808 -16380783.17908  21291964.70308  21291964.01608
  -2003552.81108  -1561209.58708  22068766.44308  22068765.96208
  -6392863.57908  -4981450.12808  23041433.69308  23041434.69208
 -25509809.43909 -19877756.06608  20501086.62109  20501087.01808
 94 01 30 03 57 30.0000000  0  6 02 04 07 09 12 13
 -14488778.29208 -11289937.23708  21967657.43708  21967657.07708
 -17694441.48408 -13787867.27908  21616568.74508  21616567.87608
 -20964319.26408 -16335811.45808  21302947.16508  21302946.53008
  -2076002.53608  -1617663.90908  22054979.74908  22054979.28208
  -6479783.66408  -5049180.04308  23024893.48308  23024894.20908
 -25529785.77209 -19893322.02708  20497285.30209  20497285.61708
 94 01 30 03 58 00.0000000  0  6 02 04 07 09 12 13
 -14441726.03908 -11253273.14308  21976611.39708  21976610.98208
 -17766660.95308 -13844142.17208  21602825.80708  21602825.04608
 -20906392.13708 -16290673.42608  21313970.36508  21313969.75208
  -2148063.24308  -1673815.09808  22041267.06808  22041266.60008
  -6566564.47308  -5116801.43108  23008379.75308  23008380.48908
 -25549206.18109 -19908454.80008  20493589.71009  20493590.08008
 94 01 30 03 58 30.0000000  0  6 02 04 07 09 12 13
 -14394467.72008 -11216448.47608  21985604.15608  21985603.93908
 -17838498.33408 -13900119.33508  21589155.55308  21589154.73608
 -20848273.61008 -16245386.26808  21325029.81208  21325029.37208
  -2219753.80008  -1729677.86608  22027624.87008  22027624.26708
  -6653220.29708  -5184325.42908  22991889.77708  22991890.47208
 -25568087.49209 -19923167.49908  20489996.64409  20489997.14608
 94 01 30 03 59 00.0000000  0  6 02 04 07 09 12 13
 -14347021.22408 -11179477.17708  21994632.74708  21994632.45108
 -17909952.32508 -13955797.75808  21575558.22908  21575557.43908
 -20789951.63508 -16199940.56908  21336128.19408  21336127.61608
  -2291079.11508  -1785256.03408  22014051.96808  22014051.29808
  -6739747.21008  -5251748.97908  22975424.30308  22975424.88108
 -25586428.99009 -19937459.56708  20486506.40409  20486506.89408
 94 01 30 03 59 30.0000000  0  6 02 04 07 09 12 13
 -14299351.91808 -11142332.26808  22003703.77708  22003703.77508
 -17980977.89708 -14011142.33608  21562042.44108  21562041.77008
 -20731398.21108 -16154314.52608  21347270.40108  21347270.05808
  -2362012.46308  -1840528.76908  22000553.87408  22000553.34608
  -6826110.90208  -5319045.34908  22958989.88808  22958990.40608
 -25604198.92209 -19951306.25508  20483124.86709  20483125.36308
 94 01 30 04 00 00.0000000  0  6 02 04 07 09 12 13
 -14251477.73808 -11105027.71408  22012814.19908  22012813.79808
 -18051589.09708 -14066164.02508  21548605.46308  21548604.74708
 -20672642.36708 -16108530.75708  21358451.38608  21358450.88508
  -2432562.62008  -1895502.90808  21987128.62208  21987128.26908
  -6912327.67408  -5386227.23908  22942583.38208  22942583.89708
 -25621416.74109 -19964722.72608  20479848.42009  20479848.87608
 94 01 30 04 00 30.0000000  0  6 02 04 07 09 12 13
 -14203406.09508 -11067569.28008  22021961.88708  22021961.47008
 -18121783.35908 -14120860.83608  21535248.17608  21535247.19408
 -20613675.86308 -16062582.82208  21369672.21408  21369671.95708
  -2502735.03308  -1950182.70308  21973775.32208  21973774.79508
  -6998401.55808  -5453297.78408  22926204.03308  22926204.59308
 -25638089.70609 -19977714.63208  20476675.62009  20476675.97408
 94 01 30 04 01 00.0000000  0  6 02 04 07 09 12 13
 -14155094.98208 -11029924.25808  22031155.34508  22031154.90508
 -18191538.57208 -14175215.53608  21521974.23308  21521973.18608
 -20554486.06108 -16016460.90408  21380935.60608  21380935.24908
  -2572525.87108  -2004565.16708  21960494.67208  21960493.89608
  -7084320.23408  -5520247.39508  22909854.21908  22909854.78708
 -25654208.03709 -19990274.35508  20473608.40209  20473608.74108
 94 01 30 04 01 30.0000000  0  6 02 04 07 09 12 13
 -14106541.27208 -10992090.22108  22040394.93208  22040394.29608
 -18260862.17308 -14229233.90308  21508782.21008  21508781.44208
 -20495093.56208 -15970181.03108  21392237.82108  21392237.41708
  -2641941.52308  -2058655.28308  21947285.42608  21947284.50008
  -7170094.22308  -5587084.25208  22893531.98508  22893532.60508
 -25669785.73009 -20002412.80608  20470644.10909  20470644.43108
 94 01 30 04 02 00.0000000  0  6 02 04 07 09 12 13
 -14057744.51608 -10954066.77108  22049680.89908  22049679.84408
 -18329765.57908 -14282924.85008  21495670.42408  21495669.58308
 -20435488.21208 -15923735.30808  21403580.31808  21403579.99108
  -2710997.89708  -2112465.44308  21934144.25508  21934143.49808
  -7255723.39608  -5653808.26008  22877237.18908  22877237.82708
 -25684825.41609 -20014132.02908  20467782.15009  20467782.49008
 94 01 30 04 02 30.0000000  0  6 02 04 07 09 12 13
 -14008694.18708 -10915845.73508  22059014.88908  22059013.87308
 -18398241.87308 -14336282.98408  21482639.79708  21482638.99908
 -20375653.21408 -15877110.63308  21414966.45608  21414966.06608
  -2779704.11908  -2166002.75608  21921070.04408  21921069.16008
  -7341194.58208  -5720409.15808  22860972.53908  22860973.20508
 -25699317.16109 -20025424.28508  20465024.45709  20465024.78208
 94 01 30 04 03 00.0000000  0  6 02 04 07 09 12 13
 -13959410.65108 -10877443.00408  22068392.90608  22068392.21308
 -18466321.86308 -14389332.31108  21469684.55808  21469683.92908
 -20315627.09408 -15830337.03308  21426389.07108  21426388.77308
  -2848081.08808  -2219283.51008  21908058.23908  21908057.36908
  -7426530.47208  -5786904.62908  22844733.50508  22844734.34408
 -25713287.02209 -20036309.87908  20462365.98309  20462366.38608
 94 01 30 04 03 30.0000000  0  6 02 04 07 09 12 13
 -13909911.14108 -10838871.98508  22077812.44208  22077811.60108
 -18533999.74408 -14442068.29608  21456805.77708  21456805.11908
 -20255415.69608 -15783419.05708  21437846.93508  21437846.58508
  -2916106.99508  -2272290.70808  21895113.12708  21895112.36408
  -7511718.73308  -5853285.07008  22828522.68608  22828523.59508
 -25726725.62909 -20046781.51208  20459808.69609  20459809.12008
 94 01 30 04 04 00.0000000  0  6 02 04 07 09 12 13
 -13860171.20908 -10800113.61408  22087277.80608  22087276.90508
 -18601226.36808 -14494452.66808  21444013.11608  21444012.23508
 -20194987.52108 -15736332.16608  21449345.80908  21449345.53508
  -2983739.92308  -2324991.69208  21882243.22508  21882242.40108
  -7596717.98208  -5919518.23608  22812347.87508  22812348.78608
 -25739594.92109 -20056809.52308  20457359.83009  20457360.23708
 94 01 30 04 04 30.0000000  0  6 02 04 07 09 12 13
 -13810186.56008 -10761164.54708  22096789.53008  22096788.83308
 -18667983.29108 -14546471.02808  21431309.69008  21431308.98708
 -20134345.33908 -15689078.51108  21460885.78808  21460885.39508
  -3050943.26808  -2377357.93608  21869454.86308  21869454.11508
  -7681519.20908  -5985597.10008  22796210.81308  22796211.60208
 -25751888.79809 -20066389.15808  20455020.37309  20455020.74208
 94 01 30 04 05 00.0000000  0  6 02 04 07 09 12 13
 -13759975.20408 -10722038.81908  22106344.35608  22106343.63508
 -18734276.42308 -14598127.99508  21418694.54308  21418693.67708
 -20073512.65408 -15641676.42008  21472461.84208  21472461.48108
  -3117706.07308  -2429380.90008  21856750.28908  21856749.41108
  -7766132.00408  -6051529.13508  22780109.44908  22780110.24508
 -25763620.51809 -20075530.75208  20452787.89509  20452788.14708
 94 01 30 04 05 30.0000000  0  6 02 04 07 09 12 13
 -13709535.06508 -10682734.82608  22115942.75808  22115941.98008
 -18800097.45008 -14649417.09508  21406169.26208  21406168.43608
 -20012483.36108 -15594121.12208  21484075.15508  21484074.84608
  -3184027.74508  -2481060.12808  21844129.75108  21844128.84008
  -7850555.20408  -6117313.42908  22764044.11408  22764045.02108
 -25774791.84409 -20084235.67408  20450662.06509  20450662.31808
 94 01 30 04 06 00.0000000  0  6 02 04 07 09 12 13
 -13658904.06308 -10643282.10308  22125577.42708  22125576.69508
 -18865500.30208 -14700380.33208  21393723.48808  21393722.68408
 -19951294.06508 -15546441.15108  21495719.55408  21495718.98708
  -3249966.55608  -2532441.01908  21831581.90308  21831581.16408
  -7934844.03908  -6182993.02208  22748004.24408  22748005.38208
 -25785461.36709 -20092549.57708  20448631.73509  20448631.95208
 94 01 30 04 06 30.0000000  0  6 02 04 07 09 12 13
 -13608035.67108 -10603644.40308  22135257.38408  22135256.82908
 -18930453.46808 -14750993.17108  21381363.14608  21381362.31408
 -19889903.00908 -15498603.95708  21507401.68508  21507401.14908
  -3315493.73408  -2583501.15908  21819112.46608  21819111.80108
  -8018958.05808  -6248536.38908  22731997.74608  22731999.03008
 -25795592.18909 -20100443.71108  20446703.84709  20446704.17008
 94 01 30 04 07 00.0000000  0  6 02 04 07 09 12 13
 -13556938.67908 -10563828.57608  22144980.92408  22144980.57908
 -18994956.67008 -14801255.39208  21369088.54308  21369087.64508
 -19828313.87708 -15450612.42808  21519121.80408  21519121.32008
  -3380641.70508  -2634265.81508  21806715.28908  21806714.63108
  -8102903.50308  -6313948.40608  22716023.56508  22716024.80808
 -25805193.83409 -20107925.49808  20444876.77909  20444877.09508
 94 01 30 04 07 30.0000000  0  6 02 04 07 09 12 13
 -13505605.82608 -10523828.96708  22154749.44608  22154748.82308
 -19059011.11108 -14851167.92508  21356899.51608  21356898.50708
 -19766519.99508 -15402461.35508  21530880.75408  21530880.35808
  -3445425.16708  -2684746.43508  21794387.47108  21794386.85708
  -8186679.72308  -6379228.56408  22700081.48508  22700082.72108
 -25814269.01509 -20114997.05308  20443149.80909  20443150.18808
 94 01 30 04 08 00.0000000  0  6 02 04 07 09 12 13
 -13454056.16608 -10483660.41208  22164559.01608  22164558.40308
 -19122628.95008 -14900740.25008  21344793.52608  21344792.48308
 -19704539.02608 -15354164.49208  21542675.28508  21542674.86208
  -3509842.79508  -2734941.99308  21782129.07508  21782128.62208
  -8270292.22708  -6444381.14608  22684170.80008  22684171.88608
 -25822826.83809 -20121665.47708  20441521.29809  20441521.68808
 94 01 30 04 08 30.0000000  0  6 02 04 07 09 12 13
 -13402281.38908 -10443316.44608  22174411.18808  22174410.90708
 -19185789.52508 -14949956.26808  21332774.24708  21332773.40508
 -19642370.85308 -15305721.75808  21554505.42708  21554505.07408
  -3573876.94408  -2784838.73208  21769943.70208  21769943.20508
  -8353723.00008  -6509392.12408  22668294.54308  22668295.44708
 -25830852.60209 -20127919.31008  20439994.07409  20439994.28408
 94 01 30 04 09 00.0000000  0  6 02 04 07 09 12 13
 -13350253.68408 -10402775.38808  22184311.76808  22184311.39108
 -19248467.24608 -14998796.03708  21320846.97608  21320846.14408
 -19579992.10208 -15257114.94208  21566375.62808  21566375.42208
  -3637483.86908  -2834402.57108  21757839.72608  21757839.08108
  -8436943.76508  -6574239.46208  22652458.25308  22652458.97208
 -25838321.57309 -20133739.27408  20438572.80809  20438572.90308
 94 01 30 04 09 30.0000000  0  6 02 04 07 09 12 13
 -13297991.60808 -10362051.70208  22194256.65408  22194256.39908
 -19310695.55208 -15047285.60708  21309005.46608  21309004.56008
 -19517430.12108 -15208365.34808  21578280.92608  21578280.57108
  -3700658.43308  -2883629.50908  21745817.89208  21745817.33408
  -8519969.02008  -6638934.45908  22636659.04708  22636659.78008
 -25845251.72109 -20139139.37508  20437253.99109  20437254.15408
 94 01 30 04 10 00.0000000  0  6 02 04 07 09 12 13
 -13245491.55108 -10321142.58008  22204247.27608  22204247.03608
 -19372456.02008 -15095410.63108  21297252.94308  21297251.93608
 -19454680.62108 -15159469.62908  21590221.68108  21590221.50108
  -3763387.72308  -2932509.47608  21733881.00008  21733880.38408
  -8602784.62008  -6703466.08208  22620899.77108  22620900.55908
 -25851632.49409 -20144111.39708  20436039.72609  20436039.98408
 94 01 30 04 10 30.0000000  0  6 02 04 07 09 12 13
 -13192732.73308 -10280031.82208  22214286.91208  22214286.76508
 -19433730.00708 -15143156.58508  21285592.90108  21285591.88808
 -19391731.17908 -15110418.11508  21602200.63508  21602200.30808
  -3825659.49908  -2981032.93708  21722031.06008  21722030.39608
  -8685372.66608  -6767820.39108  22605183.79108  22605184.59908
 -25857449.41809 -20148644.05708  20434932.76009  20434933.08408
 94 01 30 04 11 00.0000000  0  6 02 04 07 09 12 13
 -13139730.65808 -10238731.50708  22224372.78808  22224372.76008
 -19494550.99008 -15190549.54708  21274018.95108  21274017.96808
 -19328611.59008 -15061234.01508  21614211.77508  21614211.51808
  -3887495.55508  -3029216.88008  21710264.05808  21710263.34808
  -8767754.57508  -6832014.07008  22589506.95808  22589507.80508
 -25862727.75609 -20152757.03908  20433928.25209  20433928.57408
 94 01 30 04 11 30.0000000  0  6 02 04 07 09 12 13
 -13086473.90808 -10197232.76408  22234507.24508  22234507.51808
 -19554899.41808 -15237574.28308  21262535.05408  21262534.16708
 -19265317.03308 -15011913.58308  21626256.38908  21626256.17908
  -3948897.52908  -3077062.57708  21698579.71708  21698578.93308
  -8849920.54208  -6896039.49808  22573871.25208  22573872.07008
 -25867460.97809 -20156445.25508  20433027.57809  20433027.76308
 94 01 30 04 12 00.0000000  0  6 02 04 07 09 12 13
 -13032958.41308 -10155532.40708  22244690.85808  22244690.86008
 -19614752.91108 -15284213.35308  21251145.30108  21251144.27008
 -19201842.69408 -14962453.06108  21638335.08308  21638334.90008
  -4009871.67008  -3124574.90008  21686976.53608  21686975.86708
  -8931871.01908  -6959897.00608  22558276.40408  22558277.40808
 -25871653.42909 -20159712.09008  20432229.86409  20432229.95308
 94 01 30 04 12 30.0000000  0  6 02 04 07 09 12 13
 -12979196.74008 -10113640.20208  22254921.43708  22254921.06708
 -19674136.21108 -15330486.04608  21239844.97908  21239843.80508
 -19138207.19008 -14912866.95408  21650444.52508  21650444.08408
  -4070420.35808  -3171755.69708  21675454.45708  21675453.74208
  -9013621.31408  -7023598.53108  22542719.86108  22542720.68608
 -25875324.10709 -20162572.35108  20431531.29709  20431531.46608
 94 01 30 04 13 00.0000000  0  6 02 04 07 09 12 13
 -12925209.29208 -10071572.06208  22265194.90508  22265195.11908
 -19733056.34908 -15376397.82808  21228632.79108  21228631.65408
 -19074420.55708 -14863163.08408  21662582.77208  21662582.38108
  -4130565.78408  -3218622.26608  21664009.23908  21664008.56808
  -9095184.92808  -7087154.58608  22527198.86408  22527199.55708
 -25878489.96609 -20165039.24508  20430928.81709  20430928.99508
 94 01 30 04 13 30.0000000  0  6 02 04 07 09 12 13
 -12871001.05008 -10029331.89108  22275510.44308  22275510.69408
 -19791490.69808 -15421931.07008  21217513.10208  21217512.18808
 -19010466.07008 -14813328.42308  21674752.96708  21674752.60108
  -4190292.67008  -3265162.69908  21652643.74508  21652643.14408
  -9176546.61508  -7150553.28708  22511716.19708  22511717.02608
 -25881139.65309 -20167103.92608  20430424.58709  20430424.81808
 94 01 30 04 14 00.0000000  0  6 02 04 07 09 12 13
 -12816569.76408  -9986917.91908  22285868.46508  22285868.25608
 -19849449.93608 -15467094.09308  21206483.82808  21206482.78808
 -18946335.97208 -14763356.92708  21686956.60008  21686956.22408
  -4249582.50008  -3311362.56308  21641361.39008  21641360.72408
  -9257693.23908  -7213784.40708  22496274.37308  22496275.39408
 -25883263.63609 -20168758.96608  20430020.38209  20430020.59808
 94 01 30 04 14 30.0000000  0  6 02 04 07 09 12 13
 -12761924.93108  -9944337.53608  22296267.11408  22296266.88708
 -19906972.58208 -15511916.92108  21195537.56008  21195536.57208
 -18882056.88308 -14713269.33308  21699188.44708  21699187.93608
  -4308454.67208  -3357236.98608  21630158.47308  21630157.72408
  -9338634.78208  -7276855.72308  22480871.79608  22480872.67108
 -25884875.78009 -20170015.17108  20429713.64609  20429713.88308
 94 01 30 04 15 00.0000000  0  6 02 04 07 09 12 13
 -12707051.58808  -9901579.10308  22306709.03008  22306709.19508
 -19964034.47908 -15556380.72408  21184678.97708  21184678.10108
 -18817619.99108 -14663058.77308  21711450.27708  21711449.68808
  -4366909.50808  -3402786.21708  21619034.85008  21619034.17108
  -9419361.21408  -7339759.42408  22465510.08108  22465510.75908
 -25885969.90209 -20170867.72708  20429505.35609  20429505.65908
 94 01 30 04 15 30.0000000  0  6 02 04 07 09 12 13
 -12651917.13408  -9858617.19908  22317200.73808  22317200.89308
 -20020608.10808 -15600464.06208  21173913.37808  21173912.45908
 -18752996.06008 -14612702.47508  21723747.96408  21723747.31208
  -4424898.15708  -3447972.17908  21607999.80608  21607999.29108
  -9499840.05408  -7402470.19108  22450195.21908  22450196.27108
 -25886517.30509 -20171294.26708  20429401.17809  20429401.51908
 94 01 30 04 16 00.0000000  0  6 02 04 07 09 12 13
 -12596528.47308  -9815457.22908  22327741.01108  22327740.71908
 -20076699.37208 -15644171.52308  21163239.60708  21163238.71008
 -18688194.64108 -14562207.85408  21736079.13808  21736078.76908
  -4482439.28208  -3492809.42008  21597050.01308  21597049.54608
  -9580085.68108  -7464999.22908  22434925.02608  22434926.15608
 -25886536.10709 -20171308.91208  20429397.58709  20429397.93608
 94 01 30 04 16 30.0000000  0  7 02 04 05 07 09 12 13
 -12540857.64408  -9772077.37208  22338334.92408  22338334.16308
 -20132243.04908 -15687452.30208  21152669.95608  21152668.95908
        -0.36216        -0.42316  24076034.74916  24076034.33816
 -18623186.36208 -14511552.07308  21748449.68408  21748449.46908
  -4539495.57208  -3537268.86308  21586192.46808  21586192.11908
  -9660067.78108  -7527322.93208  22419705.00808  22419705.96508
 -25886000.08009 -20170891.22708  20429499.62309  20429499.86808
 94 01 30 04 17 00.0000000  0  6 02 04 07 09 12 13
 -12484933.16208  -9728499.87408  22348977.09708  22348976.54208
 -20187216.66608 -15730288.87008  21142208.75208  21142207.91808
 -18557976.97808 -14460739.55708  21760858.56108  21760858.22508
  -4596058.24208  -3581343.67108  21575429.04008  21575428.65308
  -9739792.90808  -7589446.40508  22404533.82408  22404534.68508
 -25884919.49309 -20170049.20508  20429705.24409  20429705.48608
 94 01 30 04 17 30.0000000  0  6 02 04 07 09 12 13
 -12428796.13608  -9684756.76008  22359659.77508  22359659.12808
 -20241674.46008 -15772723.49308  21131845.68008  21131844.78008
 -18492607.75608 -14409802.49208  21773298.00308  21773297.93708
  -4652159.31708  -3625058.79508  21564753.34708  21564752.89008
  -9819297.43408  -7651397.97808  22389404.71508  22389405.46908
 -25883334.54809 -20168814.17108  20430006.88009  20430007.10508
 94 01 30 04 18 00.0000000  0  6 02 04 07 09 12 13
 -12372472.13008  -9640867.94508  22370377.45708  22370377.11008
 -20295635.63508 -15814771.14908  21121577.19608  21121576.32208
 -18427117.84408 -14358771.39208  21785760.24408  21785760.27908
  -4707826.96508  -3668436.18508  21554160.14608  21554159.49608
  -9898600.21808  -7713192.35308  22374314.01808  22374314.68608
 -25881268.09309 -20167203.93908  20430400.08509  20430400.32208
 94 01 30 04 18 30.0000000  0  6 02 04 07 09 12 13
 -12315933.87108  -9596812.19008  22381136.25408  22381136.15308
 -20349081.22908 -15856417.04508  21111406.80508  21111406.02708
 -18361498.01808 -14307639.06808  21798247.27108  21798247.34608
  -4763037.86908  -3711457.66808  21543654.05008  21543653.32608
  -9977671.32408  -7774806.19208  22359267.19908  22359268.09108
 -25878694.30709 -20165198.38808  20430889.79809  20430890.11908
 94 01 30 04 19 00.0000000  0  6 02 04 07 09 12 13
 -12259143.27808  -9552559.78708  22391943.38808  22391943.11908
 -20402008.73008 -15897659.23908  21101334.99808  21101334.20608
 -18295714.30408 -14256379.01908  21810765.75108  21810765.53408
  -4817772.70208  -3754108.18508  21533238.39608  21533237.82108
 -10056474.60008  -7836211.32708  22344271.35208  22344272.24908
 -25875580.86609 -20162772.31808  20431482.24709  20431482.59508
 94 01 30 04 19 30.0000000  0  7 02 04 05 07 09 12 13
 -12202119.19108  -9508125.44408  22402794.40808  22402794.32108
 -20454465.37408 -15938534.52808  21091352.92608  21091351.99008
         0.15016        -0.34416  23984590.56416  23984590.66216
 -18229786.71908 -14205006.87208  21823311.38208  21823311.02008
  -4872070.82108  -3796418.40308  21522905.80308  21522905.15208
 -10135035.79008  -7897427.82208  22329321.75308  22329322.42808
 -25871957.47309 -20159948.88308  20432171.77709  20432172.05608
 94 01 30 04 20 00.0000000  0  6 02 04 07 09 12 13
 -12144855.40108  -9463504.32808  22413691.23508  22413691.22008
 -20506424.17108 -15979021.89208  21081465.54108  21081464.51808
 -18163710.20508 -14153518.68108  21835885.42408  21835885.03908
  -4925926.44108  -3838383.82008  21512657.22908  21512656.71008
 -10213344.14308  -7958447.31208  22314420.27108  22314420.90308
 -25867817.47309 -20156722.89808  20432959.62409  20432959.88408
 94 01 30 04 20 30.0000000  0  6 02 04 07 09 12 13
 -12087348.58708  -9418693.84508  22424634.73108  22424634.51708
 -20557897.39208 -16019130.88308  21071670.58808  21071669.39208
 -18097482.42608 -14101912.62608  21848488.22308  21848487.72308
  -4979344.29208  -3880008.11808  21502492.09808  21502491.67008
 -10291411.12808  -8019278.73308  22299564.67808  22299565.30308
 -25863176.39209 -20153106.46508  20433842.70809  20433843.03708
 94 01 30 04 21 00.0000000  0  6 02 04 07 09 12 13
 -12029561.36808  -9373664.85208  22435630.79308  22435631.07408
 -20608844.83608 -16058830.18108  21061975.75008  21061974.46308
 -18031064.67108 -14050158.53708  21861127.29208  21861126.51008
  -5032270.39108  -3921249.22908  21492420.66908  21492420.26308
 -10369201.38108  -8079894.51608  22284761.69308  22284762.25008
 -25858002.88109 -20149075.14708  20434827.20909  20434827.52408
 94 01 30 04 21 30.0000000  0  6 02 04 07 09 12 13
 -11971504.31408  -9328425.60908  22446678.79108  22446679.03008
 -20659253.19108 -16098109.40608  21052383.32408  21052382.12608
 -17964478.97708 -13998273.57708  21873798.01408  21873797.32908
  -5084701.00108  -3962104.24808  21482443.32408  21482443.06208
 -10446723.46008  -8140301.32508  22270009.66508  22270010.20308
 -25852309.62609 -20144638.83208  20435910.56409  20435910.90408
 94 01 30 04 22 00.0000000  0  6 02 04 07 09 12 13
 -11913190.80408  -9282986.53508  22457775.78308  22457775.72308
 -20709137.42508 -16136980.23008  21042890.64208  21042889.59708
 -17897756.67308 -13946282.18308  21886494.76608  21886494.03508
  -5136646.60608  -4002581.34608  21472558.62408  21472558.26608
 -10523992.24808  -8200510.76508  22255305.81808  22255306.43108
 -25846115.64709 -20139812.34708  20437089.27609  20437089.60308
 94 01 30 04 22 30.0000000  0  6 02 04 07 09 12 13
 -11854631.45908  -9237355.89308  22468919.21208  22468919.17508
 -20758516.88708 -16175457.71808  21033493.95608  21033493.14608
 -17830915.55808 -13894198.19808  21899214.30608  21899213.33908
  -5188115.61208  -4042687.06208  21462764.30308  21462763.95008
 -10601020.73208  -8260532.94708  22240647.80808  22240648.42808
 -25839437.98909 -20134608.97608  20438359.97509  20438360.38708
 94 01 30 04 23 00.0000000  0  6 02 04 07 09 12 13
 -11795824.20508  -9191532.06808  22480109.74708  22480109.73608
 -20807374.11208 -16213528.26808  21024196.57608  21024195.79108
 -17763947.09208 -13842014.98108  21911957.88108  21911957.15608
  -5239099.44408  -4082414.72208  21453062.57208  21453061.98608
 -10677790.98708  -8320353.91108  22226038.83108  22226039.48108
 -25832262.99109 -20129018.06608  20439725.38509  20439725.68408
 94 01 30 04 23 30.0000000  0  6 02 04 07 09 12 13
 -11736773.51408  -9145518.56408  22491347.03708  22491346.88008
 -20855710.20208 -16251192.73708  21014998.43908  21014997.82408
 -17696849.93208 -13789731.49408  21924726.03208  21924725.18108
  -5289613.01408  -4121775.94608  21443450.26408  21443449.44808
 -10754302.39008  -8379973.17908  22211479.09508  22211479.86308
 -25824594.03209 -20123042.24608  20441184.67109  20441185.07008
 94 01 30 04 24 00.0000000  0  6 02 04 07 09 12 13
 -11677495.99708  -9099328.30508  22502627.17008  22502627.17708
 -20903566.00508 -16288482.95508  21005891.81308  21005891.22508
 -17629647.98708 -13737366.34508  21937514.20308  21937513.17008
  -5339690.23308  -4160797.15608  21433920.77608  21433920.10308
 -10830580.38908  -8439410.57208  22196963.85908  22196964.68508
 -25816460.73109 -20116704.60108  20442732.31709  20442732.73108
 94 01 30 04 24 30.0000000  0  6 02 04 07 09 12 13
 -11617993.49008  -9052962.74608  22513950.07808  22513950.01708
 -20950927.54308 -16325388.03708  20996879.23308  20996878.63308
 -17562324.99808 -13684906.87408  21950325.08608  21950324.39708
  -5389315.82608  -4199466.44508  21424477.20308  21424476.67108
 -10906614.04208  -8498657.56308  22182495.14408  22182495.94108
 -25807856.44409 -20109999.95308  20444369.71809  20444370.00508
 94 01 30 04 25 00.0000000  0  6 02 04 07 09 12 13
 -11558286.70008  -9006437.99608  22525312.24308  22525311.88408
 -20997803.65308 -16361914.86208  20987959.01208  20987958.38008
 -17494887.05808 -13632357.85608  21963158.28208  21963157.45708
  -5438493.99908  -4237787.09708  21415118.81008  21415118.41708
 -10982405.30508  -8557715.68708  22168072.47408  22168073.32308
 -25798787.34609 -20102933.12308  20446095.57709  20446095.78008
 94 01 30 04 25 30.0000000  0  6 02 04 07 09 12 13
 -11498363.07308  -8959744.27608  22536715.00808  22536715.31708
 -21044193.31608 -16398062.64008  20979131.38708  20979130.64708
 -17427334.26808 -13579719.30708  21976013.14408  21976012.40508
  -5487212.23608  -4275749.35608  21405848.14308  21405847.74908
 -11057945.79508  -8616578.40808  22153697.58708  22153698.39508
 -25789249.44809 -20095500.99908  20447910.61509  20447910.80508
 94 01 30 04 26 00.0000000  0  6 02 04 07 09 12 13
 -11438198.40408  -8912862.72908  22548164.03108  22548164.39708
 -21090051.82108 -16433796.52808  20970404.91308  20970404.02308
 -17359643.39108 -13526973.16908  21988894.23608  21988893.70608
  -5535421.48208  -4313315.00208  21396674.34708  21396673.76008
 -11133196.42108  -8675215.26108  22139377.86208  22139378.70708
 -25779207.56309 -20087676.15008  20449821.51609  20449821.76908
 94 01 30 04 26 30.0000000  0  7 02 04 05 07 09 12 13
 -11377819.66008  -8865814.37708  22559653.75508  22559653.67608
 -21135365.66208 -16469106.00308  20961782.00908  20961780.96908
        -0.21117        -0.05917  23770690.58417  23770691.04617
 -17291827.83208 -13474129.88708  22001799.09608  22001798.79608
  -5583132.24808  -4350492.22608  21387595.16608  21387594.63708
 -11208159.66708  -8733628.18108  22125112.93008  22125113.82908
 -25768668.75709 -20079464.08608  20451826.93909  20451827.19308
 94 01 30 04 27 00.0000000  0  7 02 04 05 07 09 12 13
 -11317195.35008  -8818574.67608  22571190.01408  22571190.05808
 -21180110.08808 -16503971.78008  20953267.43208  20953266.31408
    -80421.95907    -62666.35207  23755387.18307  23755386.93807
 -17223874.20808 -13421179.02008  22014730.17808  22014729.85408
  -5630327.40108  -4387267.67408  21378614.22308  21378613.71608
 -11282814.45108  -8791800.74508  22110906.62808  22110907.33408
 -25757616.06009 -20070851.58708  20453930.11909  20453930.41908
 94 01 30 04 27 30.0000000  0  7 02 04 05 07 09 12 13
 -11256307.65008  -8771129.72508  22582776.63708  22582776.70708
 -21224268.23908 -16538380.72008  20944864.42108  20944863.24108
   -160800.68407   -125299.11707  23740091.76307  23740091.01507
 -17155771.45008 -13368111.94608  22027689.77708  22027689.27508
  -5676999.09308  -4423635.22108  21369732.87408  21369732.41308
 -11357149.72508  -8849724.32808  22096761.13408  22096761.64508
 -25746042.92709 -20061833.55608  20456132.46609  20456132.70308
 94 01 30 04 28 00.0000000  0  7 02 04 05 07 09 12 13
 -11195173.92108  -8723493.07808  22594410.21308  22594410.00008
 -21267845.39508 -16572336.93708  20936571.90508  20936570.73008
   -241122.26507   -187887.36107  23724806.83207  23724806.30807
 -17087524.17108 -13314932.23908  22040676.69408  22040676.16608
  -5723168.52608  -4459611.40108  21360947.09108  21360946.61108
 -11431176.65508  -8907407.64308  22082674.28608  22082674.85208
 -25733964.68809 -20052421.93408  20458430.91409  20458431.06608
 94 01 30 04 28 30.0000000  0  7 02 04 05 07 09 12 13
 -11133806.14208  -8675674.04008  22606088.00508  22606087.94408
 -21310886.00608 -16605875.06408  20928381.51508  20928380.33608
   -321424.71307   -250460.68207  23709525.54107  23709525.29907
 -17019142.71508 -13261647.99908  22053689.22608  22053689.09808
  -5768869.67708  -4495222.68208  21352250.43308  21352249.83308
 -11504923.86508  -8964872.99308  22068640.54908  22068641.31008
 -25721414.37409 -20042642.46108  20460819.11609  20460819.28008
 94 01 30 04 29 00.0000000  0  7 02 04 05 07 09 12 13
 -11072189.72208  -8627661.28108  22617812.98508  22617812.99108
 -21353413.03808 -16639013.00108  20920288.79708  20920287.81108
   -401725.24207   -313032.52007  23694245.03407  23694244.52907
 -16950617.29708 -13208251.59508  22066729.17008  22066728.81208
  -5814085.37708  -4530455.69108  21343646.08008  21343645.56308
 -11578394.53408  -9022122.85208  22054659.52208  22054660.28608
 -25708399.37409 -20032500.89908  20463295.77809  20463295.98608
 94 01 30 04 29 30.0000000  0  7 02 04 05 07 09 12 13
 -11010335.52308  -8579463.23408  22629583.48908  22629583.35408
 -21395441.17908 -16671762.19008  20912291.08708  20912290.17308
   -482046.23307   -375620.30607  23678960.74707  23678959.98607
 -16881962.90608 -13154754.66208  22079793.86508  22079793.35508
  -5858832.53508  -4565323.60508  21335131.02308  21335130.51608
 -11651593.55108  -9079161.03508  22040730.41808  22040730.98608
 -25694929.15009 -20022004.61308  20465859.08709  20465859.29008
 94 01 30 04 30 00.0000000  0  7 02 04 05 07 09 12 13
 -10948250.70408  -8531085.46208  22641398.02608  22641397.68908
 -21436979.24708 -16704129.50208  20904386.67808  20904385.76308
   -562425.45007   -438253.45007  23663665.04807  23663664.46407
 -16813203.54008 -13101175.93308  22092878.22508  22092877.88408
  -5903114.32908  -4599828.89908  21326704.51308  21326704.02308
 -11724528.38608  -9135993.36508  22026851.32208  22026851.89408
 -25681015.49509 -20011162.79808  20468506.79309  20468507.00208
 94 01 30 04 30 30.0000000  0  7 02 04 05 07 09 12 13
 -10885912.62808  -8482510.34408  22653260.46808  22653260.40708
 -21478005.47108 -16736097.97308  20896579.49908  20896578.71108
   -642871.36207   -500938.55907  23648356.13907  23648356.16807
 -16744329.12308 -13047507.56008  22105984.62608  22105984.27208
  -5946890.42608  -4633940.14008  21318374.13508  21318373.57908
 -11797171.92008  -9192598.71208  22013027.67408  22013028.26008
 -25666635.56409 -19999957.65308  20471243.17309  20471243.40108
 94 01 30 04 31 00.0000000  0  7 02 04 05 07 09 12 13
 -10823318.41608  -8433735.66008  22665171.68508  22665171.39108
 -21518490.46508 -16767644.71208  20888875.19508  20888874.49208
   -723373.62907   -563667.58007  23633036.82507  23633037.15307
 -16675357.02708 -12993763.07808  22119109.63008  22119109.33408
  -5990156.12208  -4667653.66708  21310141.05808  21310140.47808
 -11869508.63008  -9248964.97808  21999262.35008  21999263.00908
 -25651778.29909 -19988380.55808  20474070.38909  20474070.66308
 94 01 30 04 31 30.0000000  0  7 02 04 05 07 09 12 13
 -10760457.93508  -8384753.50708  22677133.66508  22677133.75508
 -21558393.97708 -16798738.34508  20881281.85308  20881281.21608
   -803895.30607   -626411.73207  23617714.46807  23617714.34307
 -16606284.57208 -12939940.38408  22132253.70808  22132253.33508
  -6032903.70608  -4700963.47108  21302006.49708  21302005.83408
 -11941512.30108  -9305071.72608  21985560.43008  21985561.21208
 -25636422.12409 -19976414.70308  20476992.56309  20476992.84608
 94 01 30 04 32 00.0000000  0  7 02 04 05 07 09 12 13
 -10697316.19208  -8335552.14008  22689149.31608  22689149.09108
 -21597693.22608 -16829361.12308  20873803.56108  20873802.77308
   -884398.64307   -689141.59007  23602395.36807  23602395.17307
 -16537089.23208 -12886021.93908  22145421.10408  22145420.80008
  -6075100.31908  -4733843.95808  21293976.74008  21293976.10208
 -12013165.12808  -9360905.09008  21971925.55008  21971926.03908
 -25620553.68309 -19964049.67708  20480012.17709  20480012.51708
 94 01 30 04 32 30.0000000  0  7 02 04 05 07 09 12 13
 -10633911.16408  -8286145.64608  22701215.07508  22701214.56208
 -21636408.68608 -16859529.00108  20866436.22408  20866435.46608
   -964872.89107   -751848.78907  23587081.32807  23587081.81107
 -16467777.18308 -12832012.55208  22158610.68108  22158610.34708
  -6116772.84908  -4766316.05808  21286046.51408  21286046.03108
 -12084481.91108  -9416476.60808  21958354.36908  21958354.80608
 -25604191.86009 -19951300.20008  20483125.74209  20483126.06708
 94 01 30 04 33 00.0000000  0  7 02 04 05 07 09 12 13
 -10570259.78908  -8236547.21608  22713327.56008  22713327.18708
 -21674556.25708 -16889254.36808  20859177.04408  20859176.16808
  -1045310.84007   -814527.68808  23571774.14207  23571774.90008
 -16398354.97208 -12777917.32108  22171821.02608  22171820.79108
  -6157943.29508  -4798396.92508  21278212.04108  21278211.64608
 -12155477.95208  -9471798.20008  21944844.25908  21944844.77808
 -25587356.82709 -19938181.98408  20486329.44909  20486329.65708
 94 01 30 04 33 30.0000000  0  7 02 04 05 07 09 12 13
 -10506352.41108  -8186749.28308  22725488.58908  22725488.50708
 -21712146.88808 -16918545.75708  20852023.87408  20852022.98308
  -1125699.55607   -877168.23808  23556477.23107  23556476.88508
 -16328797.70908 -12723716.85508  22185057.52108  22185057.41608
  -6198587.30008  -4830067.57908  21270477.78108  21270477.37308
 -12226149.67208  -9526867.07308  21931395.93408  21931396.39108
 -25570049.19809 -19924695.51108  20489622.93409  20489623.15808
 94 01 30 04 34 00.0000000  0  7 02 04 05 07 09 12 13
 -10442188.58008  -8136751.52308  22737698.90408  22737698.81708
 -21749189.46108 -16947410.09308  20844974.95908  20844973.99308
  -1206049.68007   -939778.71508  23541187.17407  23541186.21108
 -16259101.50608 -12669408.13208  22198320.36108  22198320.08908
  -6238700.66508  -4861324.74408  21262844.48308  21262844.07708
 -12296498.53408  -9581684.37308  21918008.99108  21918009.46008
 -25552275.10009 -19910845.56008  20493005.09709  20493005.47708
 94 01 30 04 34 30.0000000  0  7 02 04 05 07 09 12 13
 -10377799.25308  -8086578.02208  22749952.00908  22749952.13808
 -21785716.88508 -16975873.00908  20838024.00908  20838022.95708
  -1286407.86808  -1002395.46908  23525895.41608  23525894.54508
 -16189302.84208 -12615019.56908  22211602.40208  22211602.00308
  -6278320.98008  -4892197.71308  21255305.01408  21255304.57708
 -12366554.03908  -9636273.07408  21904677.90208  21904678.39008
 -25534068.59709 -19896658.67108  20496469.71409  20496470.01308
 94 01 30 04 35 00.0000000  0  7 02 04 05 07 09 12 13
 -10313194.27808  -8036236.49808  22762245.52808  22762245.86908
 -21821730.07308 -17003935.22408  20831170.86908  20831169.75808
  -1366780.39308  -1065023.39908  23510600.95908  23510600.36608
 -16119412.95308 -12560559.90008  22224902.09208  22224901.67508
  -6317440.38608  -4922680.37008  21247860.85908  21247860.25808
 -12436316.78308  -9690633.64808  21891402.35508  21891403.03308
 -25515434.77909 -19882138.80908  20500015.61609  20500015.85808
 94 01 30 04 35 30.0000000  0  7 02 04 05 07 09 12 13
 -10248364.73908  -7985719.99708  22774582.37208  22774582.74808
 -21857211.37808 -17031582.98308  20824419.01008  20824417.95808
  -1447157.07108  -1127654.57408  23495306.05308  23495305.49908
 -16049440.15108 -12506035.65008  22238217.31308  22238217.12308
  -6356060.49508  -4952773.96208  21240511.79608  21240511.09208
 -12505771.67808  -9744754.33708  21878185.35308  21878186.15108
 -25496362.92609 -19867277.61908  20503644.85109  20503645.08008
 94 01 30 04 36 00.0000000  0  7 02 04 05 07 09 12 13
 -10183323.19808  -7935038.29608  22786959.23608  22786959.73508
 -21892148.50008 -17058806.71008  20817770.67008  20817769.67208
  -1527539.30508  -1190290.08208  23480009.77508  23480009.44208
 -15979392.45708 -12451453.04808  22251547.19508  22251546.70808
  -6394197.42908  -4982491.05808  21233254.54108  21233253.88908
 -12574910.01908  -9798628.36908  21865028.90008  21865029.55008
 -25476848.88609 -19852071.86908  20507358.27909  20507358.50808
 94 01 30 04 36 30.0000000  0  7 02 04 05 07 09 12 13
 -10118084.17908  -7884202.71908  22799373.83908  22799374.20208
 -21926541.41608 -17085606.37408  20811225.87608  20811224.85608
  -1607927.95708  -1252930.57908  23464712.17608  23464711.65208
 -15909268.40008 -12396810.92808  22264891.17108  22264890.54208
  -6431857.27008  -5011836.39308  21226088.24508  21226087.51908
 -12643733.71908  -9852257.22408  21851932.21808  21851932.75708
 -25456899.40809 -19836526.81808  20511154.52709  20511154.80908
 94 01 30 04 37 00.0000000  0  7 02 04 05 07 09 12 13
 -10052623.40808  -7833194.35008  22811830.52408  22811830.73708
 -21960363.18208 -17111960.98308  20804789.70308  20804788.64808
  -1688301.98208  -1315559.68308  23449417.37508  23449417.25908
 -15839044.85508 -12342091.28008  22278254.34308  22278253.62808
  -6469004.13908  -5040782.01408  21219019.43908  21219018.74908
 -12712209.78708  -9905615.19108  21838901.51308  21838902.29308
 -25436485.87009 -19820620.16108  20515039.06909  20515039.38908
 94 01 30 04 37 30.0000000  0  7 02 04 05 07 09 12 13
  -9986915.86408  -7781993.68108  22824334.47908  22824334.42908
 -21993592.82008 -17137854.19508  20798466.41708  20798465.30808
  -1768654.71608  -1378172.20308  23434126.62808  23434126.78208
 -15768703.22708 -12287279.62808  22291640.13008  22291639.67708
  -6505605.88108  -5069302.85908  21212054.23508  21212053.60808
 -12780318.32408  -9958686.77408  21825940.86908  21825941.69408
 -25415592.93109 -19804339.94408  20519014.82109  20519015.13508
 94 01 30 04 38 00.0000000  0  7 02 04 05 07 09 12 13
  -9920960.87308  -7730600.21308  22836885.10408  22836885.34808
 -22026244.80308 -17163297.29008  20792252.84308  20792251.86008
  -1848999.95308  -1440778.88308  23418837.69008  23418837.52208
 -15698237.16308 -12232371.03508  22305049.29608  22305048.79808
  -6541642.60308  -5097383.42908  21205196.87208  21205196.19408
 -12848070.08808 -10011480.34808  21813048.33008  21813048.95908
 -25394235.94409 -19787698.13208  20523078.98409  20523079.19108
 94 01 30 04 38 30.0000000  0  7 02 04 05 07 09 12 13
  -9854748.13108  -7679005.89808  22849485.31408  22849485.32108
 -22058327.82008 -17188297.03208  20786147.70508  20786146.66408
  -1929350.84008  -1503389.96508  23403547.53508  23403547.44108
 -15627646.73708 -12177365.51608  22318482.46308  22318481.45108
  -6577101.61008  -5125013.83408  21198449.27908  21198448.57108
 -12915470.85308 -10064000.42808  21800222.52308  21800222.96908
 -25372425.48609 -19770702.97008  20527229.42109  20527229.59808
 94 01 30 04 39 00.0000000  0  7 02 04 05 07 09 12 13
  -9788257.67908  -7627195.20208  22862137.76508  22862137.83908
 -22089841.95908 -17212853.49608  20780150.79508  20780149.69008
  -2009706.60408  -1566004.85408  23388256.19308  23388256.15908
 -15556936.62508 -12122266.71408  22331937.81708  22331937.10608
  -6611973.83908  -5152186.99808  21191813.03308  21191812.57908
 -12982515.54308 -10116243.05008  21787464.20008  21787464.73008
 -25350160.77609 -19753353.84408  20531466.24709  20531466.42108
 94 01 30 04 39 30.0000000  0  7 02 04 05 07 09 12 13
  -9721492.17308  -7575170.16508  22874842.92008  22874843.35708
 -22120781.91008 -17236962.54208  20774263.27408  20774262.15508
  -2090039.37908  -1628601.82208  23372969.23908  23372969.23508
 -15486103.17008 -12067071.83108  22345416.95708  22345416.46308
  -6646271.41608  -5178912.37708  21185286.51508  21185286.05508
 -13049204.14508 -10168208.19808  21774773.85708  21774774.34608
 -25327446.58109 -19735654.46808  20535788.60609  20535788.76308
 94 01 30 04 40 00.0000000  0  7 02 04 05 07 09 12 13
  -9654454.33308  -7522932.91508  22887599.81808  22887600.14908
 -22151142.66108 -17260620.26008  20768485.70608  20768484.69008
  -2170350.51808  -1691181.92608  23357686.69208  23357686.48108
 -15415148.00008 -12011782.10008  22358919.31208  22358918.70508
  -6680014.02508  -5205205.31708  21178865.43108  21178864.97308
 -13115533.22508 -10219893.20008  21762151.83908  21762152.34608
 -25304283.94309 -19717605.65208  20540196.24309  20540196.51708
 94 01 30 04 40 30.0000000  0  7 02 04 05 07 09 12 13
  -9587169.39608  -7470503.11108  22900403.80408  22900403.97908
 -22180927.48208 -17283829.20208  20762817.78308  20762816.78008
  -2250655.18008  -1753756.98408  23342405.33208  23342404.85408
 -15344099.80408 -11956419.87108  22372439.53708  22372438.96608
  -6713239.28208  -5231095.13108  21172542.99408  21172542.48908
 -13181510.98508 -10271304.44608  21749596.63908  21749597.20008
 -25280685.96209 -19699217.60708  20544686.72909  20544687.13908
 94 01 30 04 41 00.0000000  0  7 02 04 05 07 09 12 13
  -9519639.25208  -7417882.23708  22913254.43808  22913254.51708
 -22210127.44708 -17306582.40908  20757261.16008  20757260.20208
  -2330928.25808  -1816307.42908  23327129.99008  23327129.21808
 -15272972.35208 -11900995.89108  22385974.37908  22385974.07008
  -6745952.42708  -5256585.90308  21166317.68708  21166317.10608
 -13247125.92708 -10322432.97308  21737110.53208  21737111.14808
 -25256645.61309 -19680484.86108  20549261.42209  20549261.83908
 94 01 30 04 41 30.0000000  0  7 02 04 05 07 09 12 13
  -9451877.58508  -7365080.97008  22926148.95208  22926148.84908
 -22238738.03208 -17328876.36208  20751816.78508  20751815.86208
  -2411165.35108  -1878829.83808  23311861.36908  23311860.41708
 -15201765.55508 -11845510.05708  22399524.47308  22399524.07108
  -6778158.15908  -5281681.28208  21160189.12408  21160188.58208
 -13312376.00508 -10373277.18508  21724693.80608  21724694.57608
 -25232165.60109 -19661409.52108  20553919.90109  20553920.19508
 94 01 30 04 42 00.0000000  0  7 02 04 05 07 09 12 13
  -9383870.71008  -7312088.63608  22939090.47008  22939090.44008
 -22266757.92208 -17350710.03108  20746484.83408  20746483.82508
  -2491377.70908  -1941332.96908  23296597.23208  23296596.52708
 -15130476.50508 -11789960.17808  22413090.31308  22413090.35208
  -6809842.40508  -5306370.30608  21154159.79208  21154159.27708
 -13377255.43108 -10423832.57408  21712347.59608  21712348.56308
 -25207244.69809 -19641990.63308  20558662.22709  20558662.47608
 94 01 30 04 42 30.0000000  0  7 02 04 05 07 09 12 13
  -9315602.99108  -7258893.03108  22952081.40208  22952080.61508
 -22294180.26508 -17372078.08408  20741266.55008  20741265.48908
  -2571539.49908  -2003796.70308  23281342.77408  23281342.29008
 -15059091.91908 -11734335.80508  22426674.48808  22426673.90208
  -6840983.01808  -5330635.71208  21148234.18408  21148233.47708
 -13441748.27908 -10474086.73908  21700074.89308  21700075.91308
 -25181871.60309 -19622219.38908  20563490.54609  20563490.77908
 94 01 30 04 43 00.0000000  0  7 02 04 05 07 09 12 13
  -9247108.31408  -7205520.58708  22965115.09508  22965114.80808
 -22321048.81908 -17393014.61408  20736153.68308  20736152.67808
  -2651678.73208  -2066242.85308  23266092.82708  23266092.33108
 -14987637.98108 -11678657.41408  22440271.76108  22440271.44108
  -6871600.85308  -5354493.76608  21142407.89908  21142407.17108
 -13505890.85308 -10524067.96508  21687869.03008  21687869.94308
 -25156087.44209 -19602127.82908  20568397.15809  20568397.28508
 94 01 30 04 43 30.0000000  0  7 02 04 05 07 09 12 13
  -9178364.48408  -7151953.97208  22978196.67208  22978196.78608
 -22347353.53508 -17413511.78808  20731148.03508  20731147.02808
  -2731795.29008  -2128671.33208  23250847.31008  23250846.78108
 -14916093.04108 -11622908.10308  22453886.39608  22453886.15108
  -6901679.26508  -5377931.49208  21136684.11208  21136683.41508
 -13569672.70408 -10573768.11108  21675731.78708  21675732.61908
 -25129886.23009 -19581711.29408  20573383.12709  20573383.24908
 94 01 30 04 44 00.0000000  0  7 02 04 05 07 09 12 13
  -9109357.10008  -7098182.01208  22991328.62108  22991328.35708
 -22373093.94008 -17433569.23608  20726249.74308  20726248.77508
  -2811886.57608  -2191080.12508  23235606.51308  23235605.91308
 -14844458.76008 -11567089.19208  22467518.33408  22467517.73808
  -6931210.38008  -5400942.74908  21131064.57708  21131063.80908
 -13633084.99008 -10623180.28208  21663664.86308  21663665.63408
 -25103263.87609 -19560966.59908  20578449.14209  20578449.34308
 94 01 30 04 44 30.0000000  0  7 02 04 05 07 09 12 13
  -9040096.40808  -7044212.65808  23004508.72708  23004508.35008
 -22398277.74308 -17453192.96708  20721457.45708  20721456.45708
  -2891957.29208  -2253472.88408  23220369.41008  23220368.87408
 -14772743.92508 -11511207.50608  22481164.70408  22481164.60008
  -6960195.75808  -5423528.76208  21125548.68808  21125547.98008
 -13696131.01508 -10672307.05008  21651667.70308  21651668.36808
 -25076228.45409 -19539900.03208  20583593.80609  20583593.96308
 94 01 30 04 45 00.0000000  0  7 02 04 05 07 09 12 13
  -8970586.86708  -6990049.38408  23017735.84508  23017735.86508
 -22422915.39208 -17472391.12508  20716769.10208  20716768.13808
  -2972014.17108  -2315854.85708  23205135.00708  23205134.75308
 -14700964.20008 -11455275.26308  22494824.12508  22494823.51908
  -6988632.12708  -5445686.97708  21120137.46108  21120136.77208
 -13758814.01508 -10721150.94208  21639739.59908  21639740.07308
 -25048787.77709 -19518517.67908  20588815.60009  20588815.68908
 94 01 30 04 45 30.0000000  0  7 02 04 05 07 09 12 13
  -8900845.34108  -6935705.36208  23031007.27708  23031007.13008
 -22447018.92809 -17491173.09308  20712182.29609  20712181.30608
  -3052085.46408  -2378248.06008  23189897.83008  23189897.69408
 -14629150.30508 -11399316.37808  22508489.62208  22508489.13408
  -7016536.64408  -5467430.76708  21114827.49308  21114826.77508
 -13821147.64408 -10769722.60108  21627878.10508  21627878.29408
 -25020960.31709 -19496833.93608  20594110.87909  20594111.04408
 94 01 30 04 46 00.0000000  0  7 02 04 05 07 09 12 13
  -8830854.66308  -6881167.20508  23044326.17308  23044326.36708
 -22470553.09408 -17509511.39508  20707703.97908  20707703.00808
  -3132140.75108  -2440628.79008  23174663.74808  23174663.70708
 -14557268.47708 -11343304.55708  22522168.89408  22522167.90308
  -7043876.69008  -5488734.70508  21109624.81108  21109624.27108
 -13883099.81808 -10817997.02108  21616088.95308  21616089.15408
 -24992718.48909 -19474827.31108  20599485.10609  20599485.32008
 94 01 30 04 46 30.0000000  0  7 02 04 05 07 09 12 13
  -8760643.43908  -6826457.18608  23057686.98408  23057687.19408
 -22493530.71308 -17527416.02508  20703331.37008  20703330.34508
  -3212206.76108  -2503017.87808  23159427.63608  23159427.55708
 -14485341.03008 -11287257.18608  22535855.73108  22535855.47308
  -7070676.06108  -5509617.33608  21104525.02208  21104524.55508
 -13944689.73908 -10865989.17008  21604368.54308  21604369.04808
 -24964086.28309 -19452516.49508  20604933.61209  20604933.86908
 94 01 30 04 47 00.0000000  0  7 02 04 05 07 09 12 13
  -8690202.05208  -6771567.82108  23071091.44908  23071091.57108
 -22515930.89608 -17544870.70308  20699068.65308  20699067.68208
  -3292273.81508  -2565407.77708  23144191.53408  23144191.31008
 -14413352.98308 -11231162.62408  22549554.77708  22549554.33008
  -7096930.14608  -5530075.06908  21099528.94308  21099528.37208
 -14005901.94408 -10913686.99208  21592720.20808  21592720.86408
 -24935052.95609 -19429893.11908  20610458.51809  20610458.86608
 94 01 30 04 47 30.0000000  0  7 02 04 05 07 09 12 13
  -8619523.59508  -6716493.72408  23084541.14408  23084541.12908
 -22537736.91808 -17561862.39608  20694919.02808  20694918.03808
  -3372339.67908  -2627796.75008  23128955.49308  23128955.27508
 -14341292.01708 -11175011.23608  22563266.95208  22563266.81908
  -7122650.98208  -5550117.28408  21094634.52308  21094633.91308
 -14066729.15808 -10961084.81808  21581145.19208  21581145.79308
 -24905616.03409 -19406955.25508  20616060.16109  20616060.44008
 94 01 30 04 48 00.0000000  0  7 02 04 05 07 09 12 13
  -8548606.85008  -6661233.94108  23098036.05908  23098036.17108
 -22558950.85208 -17578392.72608  20690882.24908  20690881.26308
  -3452378.02608  -2690164.27308  23113724.79708  23113724.46208
 -14269148.04908 -11118795.15308  22576996.16708  22576995.48508
  -7147841.34408  -5569746.13808  21089840.95308  21089840.26008
 -14127165.42508 -11008178.02208  21569644.57208  21569645.13908
 -24875774.15509 -19383701.84608  20621738.83709  20621739.16408
 94 01 30 04 48 30.0000000  0  7 02 04 05 07 09 12 13
  -8477436.97308  -6605776.91408  23111579.10008  23111579.54308
 -22579561.76708 -17594453.16808  20686960.19508  20686959.18908
  -3532369.71108  -2752495.44008  23098502.93808  23098502.58708
 -14196928.51508 -11062520.18708  22590738.95708  22590738.36008
  -7172491.81608  -5588954.29608  21085150.12008  21085149.50008
 -14187197.09308 -11054955.95408  21558220.83108  21558221.56608
 -24845518.32809 -19360125.88108  20627496.34909  20627496.67208
 94 01 30 04 49 00.0000000  0  7 02 04 05 07 09 12 13
  -8406014.24108  -6550122.86708  23125170.20508  23125171.00208
 -22599585.44808 -17610056.03008  20683149.77308  20683148.71508
  -3612310.57208  -2814787.01008  23083290.71408  23083290.29508
 -14124636.04408 -11006188.39008  22604496.10508  22604495.20708
  -7196593.90008  -5607735.14608  21080563.58708  21080562.93908
 -14246823.10708 -11101417.79208  21546874.31408  21546875.14208
 -24814852.36209 -19336230.32208  20633331.98109  20633332.10808
 94 01 30 04 49 30.0000000  0  7 02 04 05 07 09 12 13
  -8334361.60308  -6494289.67108  23138805.41008  23138806.12508
 -22619035.78008 -17625212.12508  20679448.48608  20679447.48408
  -3692204.19208  -2877041.76908  23068087.41408  23068087.00508
 -14052282.91608 -10949809.32908  22618263.85708  22618263.71908
  -7220155.42308  -5626094.78308  21076080.13408  21076079.48608
 -14306050.29108 -11147568.84508  21535603.85808  21535604.61508
 -24783787.63209 -19312024.03708  20639243.41809  20639243.45108
 94 01 30 04 50 00.0000000  0  7 02 04 05 07 09 12 13
  -8262469.27808  -6438269.71608  23152486.04908  23152486.73908
 -22637904.32408 -17639914.87908  20675857.88008  20675856.90708
  -3772052.69908  -2939261.37408  23052892.65208  23052892.36408
 -13979847.25508 -10893365.98308  22632048.33508  22632047.49308
  -7243152.76008  -5644014.79608  21071703.95708  21071703.24208
 -14364860.19908 -11193394.75008  21524412.84508  21524413.37408
 -24752310.48509 -19287496.38608  20645233.24009  20645233.38308
 94 01 30 04 50 30.0000000  0  7 02 04 05 07 09 12 13
  -8190340.33608  -6382065.35908  23166212.05208  23166212.63208
 -22656187.64108 -17654161.60908  20672378.57508  20672377.62508
  -3851878.13008  -3001462.99908  23037702.53408  23037702.16208
 -13907324.62108 -10836854.81508  22645848.83108  22645847.93108
  -7265578.16708  -5661489.14508  21067436.49008  21067435.77708
 -14423250.44808 -11238893.64508  21513301.50508  21513302.11708
 -24720423.23509 -19262649.17708  20651301.21609  20651301.32808
 94 01 30 04 51 00.0000000  0  7 02 04 05 07 09 12 13
  -8117989.07508  -6325687.79208  23179980.03308  23179980.44508
 -22673898.51108 -17667962.28208  20669008.31708  20669007.36908
  -3931688.17908  -3063652.63008  23022515.21408  23022514.81208
 -13834701.19508 -10780265.15308  22659668.60908  22659668.13908
  -7287435.60208  -5678520.91208  21063277.08108  21063276.62408
 -14481227.19808 -11284070.32908  21502268.90408  21502269.49808
 -24688136.71209 -19237490.84508  20657445.13409  20657445.36808
 94 01 30 04 51 30.0000000  0  7 02 04 05 07 09 12 13
  -8045398.64308  -6269123.84608  23193793.49408  23193793.76608
 -22691014.61108 -17681299.49108  20665751.17208  20665750.28608
  -4011460.19708  -3125812.63008  23007335.01908  23007334.72508
 -13761960.36808 -10723583.99308  22673510.46208  22673510.26908
  -7308720.52308  -5695106.56008  21059226.78808  21059226.28908
 -14538779.93408 -11328916.60808  21491316.94808  21491317.42908
 -24655445.16209 -19212016.91208  20663666.16509  20663666.44108
 94 01 30 04 52 00.0000000  0  7 02 04 05 07 09 12 13
  -7972540.70808  -6212351.44408  23207658.30308  23207657.72708
 -22707527.90708 -17694166.98408  20662608.79908  20662607.96608
  -4091179.89608  -3187931.85708  22992164.55508  22992164.54708
 -13689100.93708 -10666810.42708  22687374.96008  22687374.99508
  -7329419.20208  -5711235.40108  21055287.95308  21055287.34308
 -14595907.08108 -11373431.26608  21480445.92908  21480446.54308
 -24622351.81009 -19186229.88308  20669963.50909  20669963.89708
 94 01 30 04 52 30.0000000  0  7 02 04 05 07 09 12 13
  -7899429.84508  -6155381.95508  23221570.98308  23221570.74508
 -22723438.87608 -17706565.13408  20659581.12108  20659580.22608
  -4170814.48808  -3249984.75908  22977010.45308  22977010.62408
 -13616140.53008 -10609958.16908  22701259.33508  22701258.95608
  -7349520.81208  -5726899.00008  21051462.66908  21051462.02508
 -14652613.13508 -11417617.79308  21469655.04108  21469655.81708
 -24588865.70909 -19160136.81208  20676335.61609  20676336.08408
 94 01 30 04 53 00.0000000  0  7 02 04 05 07 09 12 13
  -7826063.57408  -6098213.48208  23235532.20308  23235531.74708
 -22738752.57708 -17718497.87808  20656667.02008  20656666.01508
  -4250357.47508  -3311966.27308  22961874.08308  22961874.16908
 -13543088.02408 -10553034.13308  22715160.46608  22715160.11608
  -7369040.34308  -5742109.03208  21047748.23208  21047747.62408
 -14708898.73008 -11461476.69608  21458944.16908  21458944.95108
 -24554992.18409 -19133741.84808  20682781.63109  20682781.93108
 94 01 30 04 53 30.0000000  0  7 02 04 05 07 09 12 13
  -7752448.62408  -6040851.19108  23249540.80908  23249540.10008
 -22753479.87508 -17729973.68508  20653864.43208  20653863.49808
  -4329825.89108  -3373889.68908  22946751.98908  22946751.76008
 -13469976.17408 -10496063.85208  22729073.34308  22729072.78908
  -7388004.81608  -5756886.54308  21044139.29308  21044138.87008
 -14764776.15208 -11505017.54608  21448311.09908  21448311.91008
 -24520748.10709 -19107058.14608  20689298.15409  20689298.31508
 94 01 30 04 54 00.0000000  0  7 02 04 05 07 09 12 13
  -7678620.20008  -5983322.58208  23263589.38208  23263589.41008
 -22767640.72208 -17741008.10008  20651169.62708  20651168.80608
  -4409253.01008  -3435780.93908  22931637.50508  22931637.16908
 -13396838.10008 -10439073.13308  22742991.19508  22742990.78308
  -7406431.79008  -5771245.22008  21040632.94808  21040632.31108
 -14820258.56508 -11548250.59708  21437753.11708  21437754.11308
 -24486151.49409 -19080099.74108  20695881.65609  20695881.80808
 94 01 30 04 54 30.0000000  0  7 02 04 05 07 09 12 13
  -7604602.32008  -5925646.35408  23277674.26208  23277674.31108
 -22781245.11108 -17751608.91608  20648580.84208  20648579.87808
  -4488664.12608  -3497659.72108  22916526.18108  22916525.68208
 -13323690.02708 -10382074.63008  22756910.82708  22756910.22708
  -7424336.47908  -5785196.92808  21037225.83308  21037225.20108
 -14875347.18008 -11591176.79508  21427270.18608  21427271.09308
 -24451208.49609 -19052871.42608  20702531.00409  20702531.27008
 94 01 30 04 55 00.0000000  0  7 02 04 05 07 09 12 13
  -7530348.36808  -5867786.17108  23291804.69508  23291804.64508
 -22794270.77008 -17761758.77408  20646102.12008  20646101.15008
  -4568051.77408  -3559520.22108  22901419.26708  22901418.57108
 -13250513.19508 -10325053.71308  22770836.02908  22770835.51908
  -7441702.23108  -5798728.68108  21033921.11008  21033920.54608
 -14930010.01708 -11633771.21108  21416868.03008  21416869.02508
 -24415891.63009 -19025351.79308  20709251.60909  20709251.80008
 94 01 30 04 55 30.0000000  0  7 02 04 05 07 09 12 13
  -7455851.49608  -5809736.70808  23305980.78008  23305980.76708
 -22806698.13808 -17771442.43008  20643737.19608  20643736.28608
  -4647408.72308  -3621356.79708  22886318.10008  22886317.41008
 -13177311.69108 -10268013.58008  22784765.84508  22784765.13508
  -7458498.38408  -5811816.59608  21030725.06008  21030724.45808
 -14984236.65308 -11676025.72608  21406549.19808  21406550.09008
 -24380195.02709 -18997536.26108  20716044.43009  20716044.68308
 94 01 30 04 56 00.0000000  0  7 02 04 05 07 09 12 13
  -7381117.04208  -5751502.12108  23320202.48408  23320202.04808
 -22818524.25208 -17780657.57408  20641486.90508  20641485.87508
  -4726733.24308  -3683168.08908  22871222.85608  22871222.58508
 -13104079.00708 -10210949.15508  22798701.72908  22798700.83908
  -7474700.38808  -5824441.54108  21027641.84008  21027641.30808
 -15038022.22008 -11717936.56108  21396314.36408  21396314.98908
 -24344118.79809 -18969424.91408  20722909.50109  20722909.69908
 94 01 30 04 56 30.0000000  0  7 02 04 05 07 09 12 13
  -7306121.38308  -5693063.95308  23334473.88308  23334473.11808
 -22829747.69408 -17789403.10808  20639351.29808  20639350.16708
  -4806010.82108  -3744942.79808  22856136.69508  22856136.53408
 -13030794.54408 -10153844.40608  22812647.34208  22812646.66508
  -7490298.60808  -5836596.00008  21024673.56408  21024673.06708
 -15091360.49308 -11759498.86108  21386164.42908  21386165.06908
 -24307661.02509 -18941016.26808  20729847.21509  20729847.40308
 94 01 30 04 57 00.0000000  0  7 02 04 05 07 09 12 13
  -7230866.55508  -5634423.83308  23348794.25608  23348793.87008
 -22840367.49509 -17797678.26908  20637330.35509  20637329.28708
  -4885237.30808  -3806677.70408  22841060.40708  22841060.22008
 -12957452.64508 -10096694.88408  22826603.77708  22826602.93908
  -7505295.82608  -5848282.14308  21021819.76808  21021819.16608
 -15144252.40608 -11800713.34608  21376099.35808  21376100.12508
 -24270827.72309 -18912314.99708  20736856.35709  20736856.48908
 94 01 30 04 57 30.0000000  0  7 02 04 05 07 09 12 13
  -7155366.34708  -5575592.52108  23363161.37608  23363161.06308
 -22850393.83508 -17805490.99908  20635422.44408  20635421.37808
  -4964421.45908  -3868379.62608  22825992.24608  22825991.97208
 -12884049.20908 -10039497.40108  22840572.29108  22840570.89208
  -7519709.28208  -5859513.40808  21019076.97608  21019076.18008
 -15196707.57908 -11841587.50808  21366117.36808  21366118.20408
 -24233632.97209 -18883332.07408  20743934.23709  20743934.51808
 94 01 30 04 58 00.0000000  0  7 02 04 05 07 09 12 13
  -7079624.39008  -5516572.83108  23377575.01008  23377574.54008
 -22859847.69708 -17812857.63608  20633623.42408  20633622.33908
  -5043570.56008  -3930054.24008  22810930.75308  22810930.32008
 -12810573.36708  -9982243.48808  22854554.07308  22854552.98508
  -7533558.09408  -5870304.69408  21016441.53108  21016440.74008
 -15248727.95808 -11882122.86908  21356218.22708  21356218.99908
 -24196083.39909 -18854072.66508  20751079.66809  20751080.05708
 94 01 30 04 58 30.0000000  0  7 02 04 05 07 09 12 13
  -7003639.48208  -5457363.81408  23392034.16508  23392033.88808
 -22868731.20608 -17819779.84208  20631932.88108  20631931.76608
  -5122681.55808  -3991699.16008  22795876.34008  22795875.97508
 -12737037.88508  -9924943.11908  22868547.17608  22868546.25708
  -7546857.89908  -5880668.18108  21013910.72408  21013909.96108
 -15300312.49008 -11922318.60808  21346402.06208  21346402.83508
 -24158182.62509 -18824539.58608  20758292.02809  20758292.29108
 94 01 30 04 59 00.0000000  0  7 02 04 05 07 09 12 13
  -6927405.23108  -5397960.55007  23406540.92008  23406540.48307
 -22877030.28708 -17826246.64808  20630353.53808  20630352.55408
  -5201738.68908  -4053302.10408  22780832.22908  22780831.95108
 -12663437.75608  -9867592.36808  22882552.95508  22882552.12908
  -7559597.54908  -5890595.18408  21011486.44508  21011485.84308
 -15351443.42808 -11962160.89808  21336672.18808  21336672.99508
 -24119917.43809 -18794722.55008  20765573.62709  20765573.86908
 94 01 30 04 59 30.0000000  0  7 02 04 05 07 09 12 13
  -6850914.07608  -5338357.05407  23421096.72608  23421096.59707
 -22884749.46808 -17832261.58408  20628884.60008  20628883.67508
  -5280740.70208  -4114862.10108  22765798.62708  22765798.32708
 -12589768.03408  -9810187.36608  22896571.79308  22896570.81408
  -7571771.46708  -5900081.35908  21009169.70808  21009169.20208
 -15402115.50508 -12001645.63908  21327029.64608  21327030.41208
 -24081287.40909 -18764621.22508  20772924.64809  20772924.90608
 94 01 30 05 00 00.0000000  0  7 02 04 05 07 09 12 13
  -6774197.72207  -5278578.09608  23435695.51707  23435695.38208
 -22891902.22208 -17837835.15408  20627523.48608  20627522.61308
  -5359693.97508  -4176384.12108  22750774.40908  22750773.92208
 -12516050.63608  -9752745.22208  22910599.60808  22910598.77308
  -7583381.81608  -5909128.39108  21006960.42508  21006959.88108
 -15452340.51908 -12040782.01508  21317472.13908  21317472.88608
 -24042309.11209 -18734248.52708  20780341.97409  20780342.18408
 94 01 30 05 00 30.0000000  0  7 02 04 05 07 09 12 13
  -6697249.31107  -5218618.36308  23450338.28307  23450338.48608
 -22898470.89508 -17842953.59308  20626273.48408  20626272.60608
  -5438574.75008  -4237849.66608  22735764.05308  22735763.28408
 -12442274.77608  -9695257.55008  22924638.30608  22924638.09308
  -7594409.43108  -5917721.34608  21004862.03008  21004861.59408
 -15502105.42508 -12079559.86008  21308002.09108  21308002.97708
 -24002973.92809 -18703597.73808  20787827.25809  20787827.43808
 94 01 30 05 01 00.0000000  0  7 02 04 05 07 09 12 13
  -6620062.80507  -5158473.09708  23465026.39907  23465026.49108
 -22904462.70208 -17847622.52408  20625133.28408  20625132.38708
  -5517374.23608  -4299251.86308  22720768.99708  22720768.15108
 -12368412.59308  -9637702.61308  22938694.00908  22938693.43108
  -7604843.28608  -5925851.62508  21002876.42908  21002876.08008
 -15551405.25808 -12117975.31208  21298620.75008  21298621.50008
 -23963281.49609 -18672668.56908  20795380.45209  20795380.64108
 94 01 30 05 01 30.0000000  0  7 02 04 05 07 09 12 13
  -6542665.62407  -5098163.66708  23479755.09407  23479754.66308
 -22909893.86208 -17851854.58508  20624099.78608  20624098.84708
  -5596113.00508  -4360606.73808  22705785.20508  22705784.77308
 -12294493.89508  -9580103.60208  22952760.38908  22952759.61308
  -7614697.91308  -5933530.55308  21001001.22508  21001000.75008
 -15600263.43808 -12156046.62208  21289323.35108  21289324.02808
 -23923259.90209 -18641482.91308  20802996.26609  20802996.56108
 94 01 30 05 02 00.0000000  0  7 02 04 05 07 09 12 13
  -6465059.52308  -5037691.39908  23494522.71308  23494522.59508
 -22914758.45008 -17855645.16808  20623174.06408  20623173.13808
  -5674778.06008  -4421904.16108  22690815.54508  22690815.34308
 -12220522.89008  -9522463.84408  22966836.40108  22966835.86708
  -7623963.55808  -5940750.54108  20999237.91008  20999237.32308
 -15648679.78508 -12193773.64508  21280110.03108  21280110.58808
 -23882913.53109 -18610044.18708  20810673.98409  20810674.18008
 94 01 30 05 02 30.0000000  0  7 02 04 05 07 09 12 13
  -6387221.08208  -4977038.11308  23509335.12808  23509334.82408
 -22919030.68008 -17858974.17208  20622361.12908  20622360.15708
  -5753360.94308  -4483137.55308  22675861.78208  22675861.54708
 -12146495.66908  -9464780.30708  22980923.29108  22980922.96108
  -7632640.87408  -5947512.09008  20997586.81108  20997586.14608
 -15696641.78908 -12231146.63808  21270983.22308  21270983.63208
 -23842234.58809 -18578346.30408  20818414.86609  20818415.08508
 94 01 30 05 03 00.0000000  0  7 02 04 05 07 09 12 13
  -6309154.22308  -4916206.81908  23524190.50808  23524190.70308
 -22922707.73408 -17861839.40008  20621661.37508  20621660.55408
  -5831882.08108  -4544322.83608  22660919.92908  22660919.55108
 -12072443.45908  -9407077.31308  22995015.16608  22995014.78708
  -7640750.60908  -5953831.37008  20996043.56608  20996042.98008
 -15744155.79209 -12268170.54008  21261941.65809  21261942.06508
 -23801233.89309 -18546397.70308  20826217.02709  20826217.31508
 94 01 30 05 03 30.0000000  0  7 02 04 05 07 09 12 13
  -6230869.83608  -4855206.05508  23539087.57208  23539087.97208
 -22925775.97408 -17864230.22908  20621077.52708  20621076.66408
  -5910355.61108  -4605471.02808  22645986.93208  22645986.54408
 -11998392.39408  -9349375.20308  23009106.27908  23009106.44108
  -7648297.00708  -5959711.68708  20994607.55508  20994606.91708
 -15791218.41109 -12304842.71308  21252985.92909  21252986.42208
 -23759912.71309 -18514199.37808  20834080.19709  20834080.54108
 94 01 30 05 04 00.0000000  0  7 02 04 05 07 09 12 13
  -6152388.22108  -4794051.57707  23554021.75908  23554022.06607
 -22928255.17108 -17866162.06108  20620605.79508  20620604.89108
  -5988809.41208  -4666603.84308  22631057.63308  22631057.31508
 -11924361.40008  -9291688.73108  23023194.29408  23023193.97408
  -7655320.11108  -5965184.25108  20993271.31708  20993270.54808
 -15837843.52609 -12341173.96908  21244113.44409  21244114.04208
 -23718289.49609 -18481765.70108  20842000.85409  20842001.15808
